Wetterdaten: Samstag, 07.12.2024
Datum Zeit Temp. I. Temp. A. Feuchte I. Feuchte A. Luftdruck Regen Wind Richtung Richtung Sonnenschein Solar Taupunkt Windchill Windböen
07.12.2024 00:00 22,1 °C 7,2 °C 54 % 90 % 1012,3 hPa 0,0 l/m² 10,2 km/h (2 Bft) SW 221 ° 0 min 0 W/m² 5,7 °C 4,4 °C 14,5 km/h (3 Bft)
07.12.2024 00:02 22,1 °C 7,2 °C 54 % 90 % 1012,2 hPa 0,0 l/m² 10,4 km/h (2 Bft) SW 232 ° 0 min 0 W/m² 5,7 °C 4,2 °C 14,5 km/h (3 Bft)
07.12.2024 00:03 22,0 °C 7,2 °C 54 % 90 % 1012,2 hPa 0,0 l/m² 8,2 km/h (2 Bft) W-SW 247 ° 0 min 0 W/m² 5,7 °C 5,8 °C 14,5 km/h (3 Bft)
07.12.2024 00:05 22,1 °C 7,2 °C 54 % 90 % 1012,3 hPa 0,0 l/m² 10,1 km/h (2 Bft) W-SW 240 ° 0 min 0 W/m² 5,7 °C 4,4 °C 14,5 km/h (3 Bft)
07.12.2024 00:06 22,0 °C 7,2 °C 54 % 90 % 1012,2 hPa 0,0 l/m² 9,9 km/h (2 Bft) W-SW 238 ° 0 min 0 W/m² 5,7 °C 4,6 °C 12,9 km/h (3 Bft)
07.12.2024 00:07 22,0 °C 7,2 °C 54 % 90 % 1012,2 hPa 0,0 l/m² 7,7 km/h (2 Bft) SW 230 ° 0 min 0 W/m² 5,7 °C 6,1 °C 9,7 km/h (2 Bft)
07.12.2024 00:08 22,0 °C 7,2 °C 54 % 90 % 1012,2 hPa 0,0 l/m² 6,7 km/h (2 Bft) SW 234 ° 0 min 0 W/m² 5,7 °C 7,0 °C 8,0 km/h (2 Bft)
07.12.2024 00:09 22,0 °C 7,2 °C 54 % 90 % 1012,3 hPa 0,0 l/m² 5,7 km/h (2 Bft) SW 235 ° 0 min 0 W/m² 5,7 °C 7,2 °C 9,7 km/h (2 Bft)
07.12.2024 00:10 22,0 °C 7,2 °C 54 % 90 % 1012,2 hPa 0,0 l/m² 6,2 km/h (2 Bft) SW 225 ° 0 min 0 W/m² 5,7 °C 7,2 °C 9,7 km/h (2 Bft)
07.12.2024 00:12 22,0 °C 7,2 °C 54 % 90 % 1012,2 hPa 0,0 l/m² 8,0 km/h (2 Bft) SW 227 ° 0 min 0 W/m² 5,7 °C 5,9 °C 12,9 km/h (3 Bft)
07.12.2024 00:13 22,0 °C 7,2 °C 54 % 90 % 1012,2 hPa 0,0 l/m² 9,9 km/h (2 Bft) SW 225 ° 0 min 0 W/m² 5,7 °C 4,6 °C 12,9 km/h (3 Bft)
07.12.2024 00:14 22,0 °C 7,1 °C 54 % 90 % 1012,3 hPa 0,0 l/m² 9,5 km/h (2 Bft) SW 222 ° 0 min 0 W/m² 5,6 °C 4,7 °C 12,9 km/h (3 Bft)
07.12.2024 00:15 22,0 °C 7,1 °C 54 % 90 % 1012,3 hPa 0,0 l/m² 8,9 km/h (2 Bft) SW 218 ° 0 min 0 W/m² 5,6 °C 5,1 °C 11,3 km/h (2 Bft)
07.12.2024 00:16 22,0 °C 7,1 °C 54 % 90 % 1012,3 hPa 0,0 l/m² 10,3 km/h (2 Bft) SW 217 ° 0 min 0 W/m² 5,6 °C 4,2 °C 12,9 km/h (3 Bft)
07.12.2024 00:17 22,0 °C 7,1 °C 54 % 90 % 1012,3 hPa 0,0 l/m² 9,7 km/h (2 Bft) SW 223 ° 0 min 0 W/m² 5,6 °C 4,6 °C 12,9 km/h (3 Bft)
07.12.2024 00:18 22,0 °C 7,1 °C 54 % 90 % 1012,2 hPa 0,0 l/m² 10,0 km/h (2 Bft) SW 222 ° 0 min 0 W/m² 5,6 °C 4,4 °C 11,3 km/h (2 Bft)
07.12.2024 00:19 22,0 °C 7,1 °C 54 % 90 % 1012,3 hPa 0,0 l/m² 8,0 km/h (2 Bft) SW 227 ° 0 min 0 W/m² 5,6 °C 5,8 °C 11,3 km/h (2 Bft)
07.12.2024 00:20 22,0 °C 7,1 °C 54 % 90 % 1012,3 hPa 0,0 l/m² 10,4 km/h (2 Bft) SW 219 ° 0 min 0 W/m² 5,6 °C 4,1 °C 12,9 km/h (3 Bft)
07.12.2024 00:21 22,0 °C 7,0 °C 54 % 90 % 1012,3 hPa 0,0 l/m² 9,1 km/h (2 Bft) SW 223 ° 0 min 0 W/m² 5,5 °C 4,9 °C 11,3 km/h (2 Bft)
07.12.2024 00:23 22,0 °C 7,1 °C 54 % 91 % 1012,3 hPa 0,0 l/m² 9,9 km/h (2 Bft) SW 221 ° 0 min 0 W/m² 5,7 °C 4,5 °C 14,5 km/h (3 Bft)
07.12.2024 00:24 22,0 °C 7,1 °C 54 % 91 % 1012,3 hPa 0,0 l/m² 9,0 km/h (2 Bft) SW 223 ° 0 min 0 W/m² 5,7 °C 5,1 °C 14,5 km/h (3 Bft)
07.12.2024 00:25 22,0 °C 7,1 °C 54 % 91 % 1012,3 hPa 0,0 l/m² 7,0 km/h (2 Bft) SW 222 ° 0 min 0 W/m² 5,7 °C 6,6 °C 9,7 km/h (2 Bft)
07.12.2024 00:26 22,0 °C 7,0 °C 54 % 91 % 1012,3 hPa 0,0 l/m² 9,2 km/h (2 Bft) SW 231 ° 0 min 0 W/m² 5,6 °C 4,8 °C 11,3 km/h (2 Bft)
07.12.2024 00:27 21,9 °C 7,0 °C 54 % 91 % 1012,4 hPa 0,0 l/m² 7,6 km/h (2 Bft) SW 231 ° 0 min 0 W/m² 5,6 °C 6,0 °C 9,7 km/h (2 Bft)
07.12.2024 00:28 21,9 °C 7,0 °C 54 % 91 % 1012,4 hPa 0,0 l/m² 6,6 km/h (2 Bft) SW 232 ° 0 min 0 W/m² 5,6 °C 6,9 °C 9,7 km/h (2 Bft)
07.12.2024 00:29 21,9 °C 7,0 °C 54 % 91 % 1012,4 hPa 0,0 l/m² 6,0 km/h (2 Bft) SW 233 ° 0 min 0 W/m² 5,6 °C 7,0 °C 9,7 km/h (2 Bft)
07.12.2024 00:31 21,9 °C 6,9 °C 54 % 91 % 1012,4 hPa 0,0 l/m² 8,9 km/h (2 Bft) W-SW 241 ° 0 min 0 W/m² 5,5 °C 4,9 °C 14,5 km/h (3 Bft)
07.12.2024 00:33 21,9 °C 6,9 °C 54 % 91 % 1012,3 hPa 0,0 l/m² 8,3 km/h (2 Bft) SW 226 ° 0 min 0 W/m² 5,5 °C 5,4 °C 11,3 km/h (2 Bft)
07.12.2024 00:34 21,9 °C 6,9 °C 54 % 91 % 1012,3 hPa 0,0 l/m² 6,8 km/h (2 Bft) SW 235 ° 0 min 0 W/m² 5,5 °C 6,6 °C 9,7 km/h (2 Bft)
07.12.2024 00:35 21,9 °C 6,9 °C 54 % 91 % 1012,4 hPa 0,0 l/m² 8,2 km/h (2 Bft) SW 227 ° 0 min 0 W/m² 5,5 °C 5,4 °C 11,3 km/h (2 Bft)
07.12.2024 00:36 21,9 °C 6,9 °C 54 % 91 % 1012,4 hPa 0,0 l/m² 5,8 km/h (2 Bft) SW 227 ° 0 min 0 W/m² 5,5 °C 6,9 °C 8,0 km/h (2 Bft)
07.12.2024 00:37 21,9 °C 6,9 °C 54 % 91 % 1012,3 hPa 0,0 l/m² 7,1 km/h (2 Bft) SW 232 ° 0 min 0 W/m² 5,5 °C 6,3 °C 9,7 km/h (2 Bft)
07.12.2024 00:38 21,9 °C 6,9 °C 54 % 91 % 1012,4 hPa 0,0 l/m² 6,8 km/h (2 Bft) W-SW 238 ° 0 min 0 W/m² 5,5 °C 6,6 °C 9,7 km/h (2 Bft)
07.12.2024 00:39 21,9 °C 6,9 °C 54 % 91 % 1012,3 hPa 0,0 l/m² 6,3 km/h (2 Bft) SW 230 ° 0 min 0 W/m² 5,5 °C 6,9 °C 8,0 km/h (2 Bft)
07.12.2024 00:40 21,9 °C 6,9 °C 54 % 91 % 1012,3 hPa 0,0 l/m² 7,4 km/h (2 Bft) SW 223 ° 0 min 0 W/m² 5,5 °C 6,1 °C 11,3 km/h (2 Bft)
07.12.2024 00:41 21,9 °C 6,9 °C 54 % 91 % 1012,4 hPa 0,0 l/m² 8,0 km/h (2 Bft) W-SW 240 ° 0 min 0 W/m² 5,5 °C 5,6 °C 9,7 km/h (2 Bft)
07.12.2024 00:42 21,9 °C 6,9 °C 54 % 91 % 1012,3 hPa 0,0 l/m² 6,2 km/h (2 Bft) SW 232 ° 0 min 0 W/m² 5,5 °C 6,9 °C 8,0 km/h (2 Bft)
07.12.2024 00:43 21,9 °C 6,9 °C 54 % 91 % 1012,3 hPa 0,0 l/m² 4,9 km/h (1 Bft) SW 229 ° 0 min 0 W/m² 5,5 °C 6,9 °C 6,4 km/h (2 Bft)
07.12.2024 00:45 21,9 °C 6,9 °C 54 % 91 % 1012,3 hPa 0,0 l/m² 5,5 km/h (2 Bft) SW 231 ° 0 min 0 W/m² 5,5 °C 6,9 °C 9,7 km/h (2 Bft)
07.12.2024 00:46 21,9 °C 6,9 °C 54 % 91 % 1012,4 hPa 0,0 l/m² 6,2 km/h (2 Bft) SW 223 ° 0 min 0 W/m² 5,5 °C 6,9 °C 9,7 km/h (2 Bft)
07.12.2024 00:47 21,9 °C 6,9 °C 54 % 91 % 1012,3 hPa 0,0 l/m² 6,3 km/h (2 Bft) W-SW 240 ° 0 min 0 W/m² 5,5 °C 6,9 °C 9,7 km/h (2 Bft)
07.12.2024 00:48 21,9 °C 6,9 °C 54 % 91 % 1012,4 hPa 0,0 l/m² 5,4 km/h (2 Bft) W-SW 238 ° 0 min 0 W/m² 5,5 °C 6,9 °C 8,0 km/h (2 Bft)
07.12.2024 00:49 21,9 °C 6,9 °C 54 % 91 % 1012,4 hPa 0,0 l/m² 7,8 km/h (2 Bft) SW 227 ° 0 min 0 W/m² 5,5 °C 5,8 °C 9,7 km/h (2 Bft)
07.12.2024 00:51 21,9 °C 6,9 °C 54 % 91 % 1012,4 hPa 0,0 l/m² 6,2 km/h (2 Bft) SW 229 ° 0 min 0 W/m² 5,5 °C 6,9 °C 9,7 km/h (2 Bft)
07.12.2024 00:53 21,9 °C 6,9 °C 54 % 91 % 1012,4 hPa 0,0 l/m² 6,3 km/h (2 Bft) SW 232 ° 0 min 0 W/m² 5,5 °C 6,9 °C 8,0 km/h (2 Bft)
07.12.2024 00:54 21,9 °C 6,9 °C 54 % 91 % 1012,5 hPa 0,0 l/m² 6,1 km/h (2 Bft) W-SW 239 ° 0 min 0 W/m² 5,5 °C 6,9 °C 8,0 km/h (2 Bft)
07.12.2024 00:55 21,9 °C 6,8 °C 54 % 91 % 1012,4 hPa 0,0 l/m² 7,4 km/h (2 Bft) SW 223 ° 0 min 0 W/m² 5,4 °C 6,0 °C 12,9 km/h (3 Bft)
07.12.2024 00:56 21,9 °C 6,9 °C 54 % 91 % 1012,4 hPa 0,0 l/m² 7,6 km/h (2 Bft) W-SW 238 ° 0 min 0 W/m² 5,5 °C 5,9 °C 9,7 km/h (2 Bft)
07.12.2024 00:57 21,9 °C 6,9 °C 54 % 91 % 1012,4 hPa 0,0 l/m² 7,9 km/h (2 Bft) SW 235 ° 0 min 0 W/m² 5,5 °C 5,7 °C 12,9 km/h (3 Bft)
07.12.2024 00:58 21,9 °C 6,8 °C 54 % 91 % 1012,3 hPa 0,0 l/m² 7,2 km/h (2 Bft) W-SW 246 ° 0 min 0 W/m² 5,4 °C 6,1 °C 11,3 km/h (2 Bft)
07.12.2024 00:59 21,8 °C 6,8 °C 54 % 91 % 1012,4 hPa 0,0 l/m² 5,7 km/h (2 Bft) W-SW 238 ° 0 min 0 W/m² 5,4 °C 6,8 °C 8,0 km/h (2 Bft)
07.12.2024 01:00 21,9 °C 6,8 °C 54 % 91 % 1012,4 hPa 0,0 l/m² 7,7 km/h (2 Bft) W-SW 238 ° 0 min 0 W/m² 5,4 °C 5,7 °C 9,7 km/h (2 Bft)
07.12.2024 01:01 21,9 °C 6,8 °C 54 % 91 % 1012,4 hPa 0,0 l/m² 7,8 km/h (2 Bft) W-SW 238 ° 0 min 0 W/m² 5,4 °C 5,6 °C 11,3 km/h (2 Bft)
07.12.2024 01:02 21,9 °C 6,8 °C 54 % 91 % 1012,4 hPa 0,0 l/m² 7,9 km/h (2 Bft) SW 235 ° 0 min 0 W/m² 5,4 °C 5,6 °C 9,7 km/h (2 Bft)
07.12.2024 01:03 21,8 °C 6,8 °C 54 % 91 % 1012,4 hPa 0,0 l/m² 7,4 km/h (2 Bft) W-SW 240 ° 0 min 0 W/m² 5,4 °C 6,0 °C 9,7 km/h (2 Bft)
07.12.2024 01:04 21,8 °C 6,8 °C 54 % 91 % 1012,4 hPa 0,0 l/m² 7,4 km/h (2 Bft) W-SW 253 ° 0 min 0 W/m² 5,4 °C 6,0 °C 12,9 km/h (3 Bft)
07.12.2024 01:05 21,8 °C 6,8 °C 54 % 92 % 1012,4 hPa 0,0 l/m² 6,8 km/h (2 Bft) SW 236 ° 0 min 0 W/m² 5,6 °C 6,5 °C 9,7 km/h (2 Bft)
07.12.2024 01:06 21,8 °C 6,8 °C 54 % 92 % 1012,4 hPa 0,0 l/m² 6,4 km/h (2 Bft) SW 232 ° 0 min 0 W/m² 5,6 °C 6,8 °C 11,3 km/h (2 Bft)
07.12.2024 01:07 21,9 °C 6,8 °C 54 % 92 % 1012,4 hPa 0,0 l/m² 7,8 km/h (2 Bft) SW 234 ° 0 min 0 W/m² 5,6 °C 5,6 °C 9,7 km/h (2 Bft)
07.12.2024 01:08 21,8 °C 6,8 °C 54 % 92 % 1012,4 hPa 0,0 l/m² 6,9 km/h (2 Bft) SW 229 ° 0 min 0 W/m² 5,6 °C 6,4 °C 9,7 km/h (2 Bft)
07.12.2024 01:09 21,8 °C 6,8 °C 54 % 92 % 1012,4 hPa 0,0 l/m² 8,8 km/h (2 Bft) SW 222 ° 0 min 0 W/m² 5,6 °C 4,9 °C 11,3 km/h (2 Bft)
07.12.2024 01:10 21,8 °C 6,8 °C 54 % 92 % 1012,4 hPa 0,0 l/m² 11,3 km/h (2 Bft) SW 223 ° 0 min 0 W/m² 5,6 °C 3,2 °C 17,7 km/h (3 Bft)
07.12.2024 01:11 21,8 °C 6,8 °C 54 % 92 % 1012,3 hPa 0,0 l/m² 9,2 km/h (2 Bft) SW 229 ° 0 min 0 W/m² 5,6 °C 4,6 °C 12,9 km/h (3 Bft)
07.12.2024 01:13 21,8 °C 6,8 °C 54 % 92 % 1012,3 hPa 0,0 l/m² 10,6 km/h (2 Bft) SW 223 ° 0 min 0 W/m² 5,6 °C 3,7 °C 16,1 km/h (3 Bft)
07.12.2024 01:14 21,8 °C 6,8 °C 54 % 92 % 1012,4 hPa 0,0 l/m² 8,8 km/h (2 Bft) SW 235 ° 0 min 0 W/m² 5,6 °C 4,9 °C 14,5 km/h (3 Bft)
07.12.2024 01:16 21,8 °C 6,8 °C 54 % 92 % 1012,3 hPa 0,0 l/m² 7,7 km/h (2 Bft) SW 220 ° 0 min 0 W/m² 5,6 °C 5,7 °C 9,7 km/h (2 Bft)
07.12.2024 01:17 21,8 °C 6,8 °C 54 % 92 % 1012,3 hPa 0,0 l/m² 10,9 km/h (2 Bft) S-SW 194 ° 0 min 0 W/m² 5,6 °C 3,5 °C 14,5 km/h (3 Bft)
07.12.2024 01:18 21,8 °C 6,8 °C 54 % 92 % 1012,4 hPa 0,0 l/m² 10,7 km/h (2 Bft) SW 227 ° 0 min 0 W/m² 5,6 °C 3,6 °C 12,9 km/h (3 Bft)
07.12.2024 01:19 21,8 °C 6,8 °C 54 % 92 % 1012,4 hPa 0,0 l/m² 11,9 km/h (2 Bft) SW 221 ° 0 min 0 W/m² 5,6 °C 2,9 °C 16,1 km/h (3 Bft)
07.12.2024 01:20 21,8 °C 6,8 °C 54 % 92 % 1012,3 hPa 0,0 l/m² 9,4 km/h (2 Bft) SW 227 ° 0 min 0 W/m² 5,6 °C 4,5 °C 12,9 km/h (3 Bft)
07.12.2024 01:21 21,8 °C 6,9 °C 54 % 92 % 1012,3 hPa 0,0 l/m² 9,3 km/h (2 Bft) SW 223 ° 0 min 0 W/m² 5,7 °C 4,6 °C 11,3 km/h (2 Bft)
07.12.2024 01:22 21,8 °C 6,8 °C 54 % 92 % 1012,3 hPa 0,0 l/m² 6,9 km/h (2 Bft) SW 217 ° 0 min 0 W/m² 5,6 °C 6,4 °C 11,3 km/h (2 Bft)
07.12.2024 01:23 21,8 °C 6,9 °C 54 % 92 % 1012,3 hPa 0,0 l/m² 10,7 km/h (2 Bft) SW 229 ° 0 min 0 W/m² 5,7 °C 3,7 °C 16,1 km/h (3 Bft)
07.12.2024 01:24 21,8 °C 6,9 °C 54 % 92 % 1012,3 hPa 0,0 l/m² 10,3 km/h (2 Bft) SW 221 ° 0 min 0 W/m² 5,7 °C 4,0 °C 14,5 km/h (3 Bft)
07.12.2024 01:25 21,8 °C 6,8 °C 54 % 92 % 1012,3 hPa 0,0 l/m² 9,3 km/h (2 Bft) SW 232 ° 0 min 0 W/m² 5,6 °C 4,5 °C 11,3 km/h (2 Bft)
07.12.2024 01:26 21,8 °C 6,9 °C 54 % 92 % 1012,3 hPa 0,0 l/m² 9,3 km/h (2 Bft) SW 229 ° 0 min 0 W/m² 5,7 °C 4,6 °C 12,9 km/h (3 Bft)
07.12.2024 01:27 21,8 °C 6,9 °C 54 % 92 % 1012,3 hPa 0,0 l/m² 8,3 km/h (2 Bft) SW 222 ° 0 min 0 W/m² 5,7 °C 5,4 °C 9,7 km/h (2 Bft)
07.12.2024 01:28 21,8 °C 6,8 °C 54 % 92 % 1012,3 hPa 0,0 l/m² 10,5 km/h (2 Bft) SW 219 ° 0 min 0 W/m² 5,6 °C 3,7 °C 12,9 km/h (3 Bft)
07.12.2024 01:29 21,8 °C 6,9 °C 54 % 92 % 1012,2 hPa 0,0 l/m² 9,9 km/h (2 Bft) SW 227 ° 0 min 0 W/m² 5,7 °C 4,2 °C 16,1 km/h (3 Bft)
07.12.2024 01:30 21,8 °C 6,9 °C 54 % 92 % 1012,3 hPa 0,0 l/m² 11,1 km/h (2 Bft) SW 227 ° 0 min 0 W/m² 5,7 °C 3,5 °C 17,7 km/h (3 Bft)
07.12.2024 01:31 21,8 °C 6,9 °C 54 % 92 % 1012,4 hPa 0,0 l/m² 8,8 km/h (2 Bft) SW 221 ° 0 min 0 W/m² 5,7 °C 5,0 °C 12,9 km/h (3 Bft)
07.12.2024 01:32 21,8 °C 6,9 °C 54 % 92 % 1012,3 hPa 0,0 l/m² 9,0 km/h (2 Bft) SW 225 ° 0 min 0 W/m² 5,7 °C 4,9 °C 11,3 km/h (2 Bft)
07.12.2024 01:33 21,8 °C 6,9 °C 54 % 92 % 1012,3 hPa 0,0 l/m² 7,1 km/h (2 Bft) SW 227 ° 0 min 0 W/m² 5,7 °C 6,3 °C 9,7 km/h (2 Bft)
07.12.2024 01:34 21,8 °C 6,9 °C 54 % 92 % 1012,3 hPa 0,0 l/m² 11,9 km/h (2 Bft) SW 227 ° 0 min 0 W/m² 5,7 °C 3,0 °C 16,1 km/h (3 Bft)
07.12.2024 01:35 21,8 °C 6,9 °C 54 % 92 % 1012,3 hPa 0,0 l/m² 9,5 km/h (2 Bft) SW 233 ° 0 min 0 W/m² 5,7 °C 4,5 °C 11,3 km/h (2 Bft)
07.12.2024 01:36 21,8 °C 6,9 °C 54 % 92 % 1012,3 hPa 0,0 l/m² 10,0 km/h (2 Bft) SW 223 ° 0 min 0 W/m² 5,7 °C 4,2 °C 12,9 km/h (3 Bft)
07.12.2024 01:37 21,8 °C 6,9 °C 54 % 92 % 1012,3 hPa 0,0 l/m² 10,8 km/h (2 Bft) SW 218 ° 0 min 0 W/m² 5,7 °C 3,7 °C 14,5 km/h (3 Bft)
07.12.2024 01:38 21,8 °C 6,9 °C 54 % 92 % 1012,3 hPa 0,0 l/m² 8,2 km/h (2 Bft) SW 222 ° 0 min 0 W/m² 5,7 °C 5,4 °C 9,7 km/h (2 Bft)
07.12.2024 01:39 21,8 °C 6,9 °C 54 % 92 % 1012,3 hPa 0,0 l/m² 8,0 km/h (2 Bft) SW 228 ° 0 min 0 W/m² 5,7 °C 5,6 °C 9,7 km/h (2 Bft)
07.12.2024 01:40 21,8 °C 6,9 °C 54 % 92 % 1012,3 hPa 0,0 l/m² 10,6 km/h (2 Bft) SW 225 ° 0 min 0 W/m² 5,7 °C 3,8 °C 14,5 km/h (3 Bft)
07.12.2024 01:41 21,8 °C 6,9 °C 54 % 92 % 1012,3 hPa 0,0 l/m² 9,1 km/h (2 Bft) SW 227 ° 0 min 0 W/m² 5,7 °C 4,8 °C 14,5 km/h (3 Bft)
07.12.2024 01:43 21,8 °C 6,8 °C 54 % 92 % 1012,3 hPa 0,0 l/m² 10,3 km/h (2 Bft) SW 221 ° 0 min 0 W/m² 5,6 °C 3,9 °C 12,9 km/h (3 Bft)
07.12.2024 01:44 21,8 °C 6,9 °C 54 % 92 % 1012,3 hPa 0,0 l/m² 10,6 km/h (2 Bft) SW 221 ° 0 min 0 W/m² 5,7 °C 3,8 °C 14,5 km/h (3 Bft)
07.12.2024 01:45 21,8 °C 6,9 °C 54 % 92 % 1012,4 hPa 0,0 l/m² 8,0 km/h (2 Bft) W-SW 244 ° 0 min 0 W/m² 5,7 °C 5,6 °C 12,9 km/h (3 Bft)
07.12.2024 01:46 21,8 °C 6,9 °C 54 % 92 % 1012,3 hPa 0,0 l/m² 7,4 km/h (2 Bft) SW 230 ° 0 min 0 W/m² 5,7 °C 6,1 °C 12,9 km/h (3 Bft)
07.12.2024 01:47 21,8 °C 6,8 °C 54 % 92 % 1012,3 hPa 0,0 l/m² 7,6 km/h (2 Bft) SW 234 ° 0 min 0 W/m² 5,6 °C 5,8 °C 12,9 km/h (3 Bft)
07.12.2024 01:48 21,8 °C 6,9 °C 54 % 92 % 1012,3 hPa 0,0 l/m² 7,0 km/h (2 Bft) SW 225 ° 0 min 0 W/m² 5,7 °C 6,4 °C 11,3 km/h (2 Bft)
07.12.2024 01:49 21,8 °C 6,9 °C 54 % 92 % 1012,3 hPa 0,0 l/m² 11,2 km/h (2 Bft) W-SW 237 ° 0 min 0 W/m² 5,7 °C 3,4 °C 12,9 km/h (3 Bft)
07.12.2024 01:50 21,8 °C 6,8 °C 54 % 92 % 1012,3 hPa 0,0 l/m² 10,3 km/h (2 Bft) SW 236 ° 0 min 0 W/m² 5,6 °C 3,9 °C 12,9 km/h (3 Bft)
07.12.2024 01:51 21,8 °C 6,8 °C 54 % 92 % 1012,3 hPa 0,0 l/m² 7,8 km/h (2 Bft) SW 234 ° 0 min 0 W/m² 5,6 °C 5,6 °C 9,7 km/h (2 Bft)
07.12.2024 01:52 21,8 °C 6,9 °C 54 % 92 % 1012,2 hPa 0,0 l/m² 8,3 km/h (2 Bft) W-SW 240 ° 0 min 0 W/m² 5,7 °C 5,4 °C 9,7 km/h (2 Bft)
07.12.2024 01:53 21,8 °C 6,8 °C 54 % 92 % 1012,3 hPa 0,0 l/m² 9,5 km/h (2 Bft) SW 230 ° 0 min 0 W/m² 5,6 °C 4,4 °C 14,5 km/h (3 Bft)
07.12.2024 01:54 21,8 °C 6,8 °C 54 % 92 % 1012,3 hPa 0,0 l/m² 9,5 km/h (2 Bft) W-SW 247 ° 0 min 0 W/m² 5,6 °C 4,4 °C 14,5 km/h (3 Bft)
07.12.2024 01:55 21,8 °C 6,8 °C 54 % 92 % 1012,3 hPa 0,0 l/m² 10,1 km/h (2 Bft) SW 236 ° 0 min 0 W/m² 5,6 °C 4,0 °C 17,7 km/h (3 Bft)
07.12.2024 01:56 21,8 °C 6,8 °C 54 % 92 % 1012,3 hPa 0,0 l/m² 10,6 km/h (2 Bft) W-SW 237 ° 0 min 0 W/m² 5,6 °C 3,7 °C 12,9 km/h (3 Bft)
07.12.2024 01:57 21,8 °C 6,8 °C 54 % 92 % 1012,2 hPa 0,0 l/m² 14,8 km/h (3 Bft) SW 232 ° 0 min 0 W/m² 5,6 °C 1,4 °C 20,9 km/h (4 Bft)
07.12.2024 01:58 21,7 °C 6,8 °C 54 % 92 % 1012,3 hPa 0,0 l/m² 13,5 km/h (3 Bft) W-SW 251 ° 0 min 0 W/m² 5,6 °C 2,0 °C 17,7 km/h (3 Bft)
07.12.2024 01:59 21,8 °C 6,8 °C 54 % 92 % 1012,3 hPa 0,0 l/m² 13,9 km/h (3 Bft) W-SW 243 ° 0 min 0 W/m² 5,6 °C 1,8 °C 19,3 km/h (3 Bft)
07.12.2024 02:00 21,8 °C 6,8 °C 54 % 92 % 1012,3 hPa 0,0 l/m² 14,3 km/h (3 Bft) W-SW 237 ° 0 min 0 W/m² 5,6 °C 1,6 °C 19,3 km/h (3 Bft)
07.12.2024 02:01 21,8 °C 6,8 °C 54 % 92 % 1012,1 hPa 0,0 l/m² 14,1 km/h (3 Bft) SW 229 ° 0 min 0 W/m² 5,6 °C 1,7 °C 17,7 km/h (3 Bft)
07.12.2024 02:02 21,8 °C 6,8 °C 54 % 92 % 1012,2 hPa 0,0 l/m² 13,5 km/h (3 Bft) W-SW 240 ° 0 min 0 W/m² 5,6 °C 2,0 °C 19,3 km/h (3 Bft)
07.12.2024 02:03 21,8 °C 6,8 °C 54 % 92 % 1012,2 hPa 0,0 l/m² 14,6 km/h (3 Bft) SW 223 ° 0 min 0 W/m² 5,6 °C 1,5 °C 19,3 km/h (3 Bft)
07.12.2024 02:04 21,8 °C 6,8 °C 54 % 92 % 1012,2 hPa 0,0 l/m² 14,3 km/h (3 Bft) SW 235 ° 0 min 0 W/m² 5,6 °C 1,6 °C 19,3 km/h (3 Bft)
07.12.2024 02:05 21,7 °C 6,7 °C 54 % 92 % 1012,2 hPa 0,0 l/m² 12,7 km/h (3 Bft) SW 234 ° 0 min 0 W/m² 5,5 °C 2,3 °C 20,9 km/h (4 Bft)
07.12.2024 02:06 21,8 °C 6,7 °C 54 % 92 % 1012,3 hPa 0,0 l/m² 16,9 km/h (3 Bft) W-SW 247 ° 0 min 0 W/m² 5,5 °C 0,3 °C 22,5 km/h (4 Bft)
07.12.2024 02:07 21,8 °C 6,7 °C 54 % 92 % 1012,1 hPa 0,0 l/m² 10,8 km/h (2 Bft) W-SW 239 ° 0 min 0 W/m² 5,5 °C 3,4 °C 14,5 km/h (3 Bft)
07.12.2024 02:08 21,8 °C 6,7 °C 54 % 92 % 1012,3 hPa 0,0 l/m² 11,4 km/h (2 Bft) W-SW 248 ° 0 min 0 W/m² 5,5 °C 3,1 °C 14,5 km/h (3 Bft)
07.12.2024 02:09 21,8 °C 6,7 °C 54 % 92 % 1012,2 hPa 0,0 l/m² 17,8 km/h (3 Bft) W-SW 246 ° 0 min 0 W/m² 5,5 °C -0,1 °C 24,1 km/h (4 Bft)
07.12.2024 02:10 21,8 °C 6,7 °C 54 % 92 % 1012,3 hPa 0,0 l/m² 16,8 km/h (3 Bft) W-SW 255 ° 0 min 0 W/m² 5,5 °C 0,3 °C 20,9 km/h (4 Bft)
07.12.2024 02:11 21,8 °C 6,7 °C 54 % 92 % 1012,2 hPa 0,0 l/m² 16,2 km/h (3 Bft) W-SW 244 ° 0 min 0 W/m² 5,5 °C 0,6 °C 20,9 km/h (4 Bft)
07.12.2024 02:12 21,8 °C 6,7 °C 54 % 92 % 1012,2 hPa 0,0 l/m² 12,4 km/h (2 Bft) SW 223 ° 0 min 0 W/m² 5,5 °C 2,5 °C 16,1 km/h (3 Bft)
07.12.2024 02:13 21,7 °C 6,7 °C 54 % 92 % 1012,2 hPa 0,0 l/m² 14,1 km/h (3 Bft) W-SW 238 ° 0 min 0 W/m² 5,5 °C 1,6 °C 20,9 km/h (4 Bft)
07.12.2024 02:14 21,8 °C 6,7 °C 54 % 92 % 1012,2 hPa 0,0 l/m² 13,9 km/h (3 Bft) W-SW 246 ° 0 min 0 W/m² 5,5 °C 1,7 °C 19,3 km/h (3 Bft)
07.12.2024 02:15 21,7 °C 6,7 °C 54 % 92 % 1012,2 hPa 0,0 l/m² 13,3 km/h (3 Bft) SW 233 ° 0 min 0 W/m² 5,5 °C 2,0 °C 17,7 km/h (3 Bft)
07.12.2024 02:16 21,7 °C 6,7 °C 54 % 92 % 1012,2 hPa 0,0 l/m² 13,3 km/h (3 Bft) SW 225 ° 0 min 0 W/m² 5,5 °C 2,0 °C 17,7 km/h (3 Bft)
07.12.2024 02:17 21,7 °C 6,7 °C 54 % 92 % 1012,2 hPa 0,0 l/m² 11,3 km/h (2 Bft) SW 225 ° 0 min 0 W/m² 5,5 °C 3,1 °C 16,1 km/h (3 Bft)
07.12.2024 02:18 21,7 °C 6,7 °C 54 % 92 % 1012,3 hPa 0,0 l/m² 17,5 km/h (3 Bft) W-SW 238 ° 0 min 0 W/m² 5,5 °C 0,0 °C 24,1 km/h (4 Bft)
07.12.2024 02:19 21,7 °C 6,7 °C 54 % 92 % 1012,2 hPa 0,0 l/m² 15,1 km/h (3 Bft) SW 223 ° 0 min 0 W/m² 5,5 °C 1,1 °C 20,9 km/h (4 Bft)
07.12.2024 02:20 21,7 °C 6,6 °C 54 % 92 % 1012,2 hPa 0,0 l/m² 14,3 km/h (3 Bft) S-SW 211 ° 0 min 0 W/m² 5,4 °C 1,4 °C 19,3 km/h (3 Bft)
07.12.2024 02:21 21,7 °C 6,6 °C 54 % 92 % 1012,2 hPa 0,0 l/m² 14,0 km/h (3 Bft) SW 234 ° 0 min 0 W/m² 5,4 °C 1,5 °C 16,1 km/h (3 Bft)
07.12.2024 02:22 21,7 °C 6,6 °C 54 % 92 % 1012,2 hPa 0,0 l/m² 15,3 km/h (3 Bft) W-SW 238 ° 0 min 0 W/m² 5,4 °C 0,9 °C 20,9 km/h (4 Bft)
07.12.2024 02:23 21,7 °C 6,7 °C 54 % 92 % 1012,2 hPa 0,0 l/m² 16,2 km/h (3 Bft) SW 236 ° 0 min 0 W/m² 5,5 °C 0,6 °C 22,5 km/h (4 Bft)
07.12.2024 02:24 21,7 °C 6,6 °C 54 % 92 % 1012,2 hPa 0,0 l/m² 14,5 km/h (3 Bft) W-SW 240 ° 0 min 0 W/m² 5,4 °C 1,3 °C 17,7 km/h (3 Bft)
07.12.2024 02:25 21,7 °C 6,6 °C 54 % 92 % 1012,2 hPa 0,0 l/m² 16,2 km/h (3 Bft) SW 236 ° 0 min 0 W/m² 5,4 °C 0,5 °C 22,5 km/h (4 Bft)
07.12.2024 02:26 21,8 °C 6,6 °C 54 % 92 % 1012,2 hPa 0,0 l/m² 17,9 km/h (3 Bft) W-SW 240 ° 0 min 0 W/m² 5,4 °C -0,3 °C 20,9 km/h (4 Bft)
07.12.2024 02:27 21,7 °C 6,6 °C 54 % 92 % 1012,3 hPa 0,0 l/m² 14,3 km/h (3 Bft) W-SW 248 ° 0 min 0 W/m² 5,4 °C 1,4 °C 20,9 km/h (4 Bft)
07.12.2024 02:28 21,7 °C 6,6 °C 54 % 92 % 1012,3 hPa 0,0 l/m² 18,8 km/h (3 Bft) W-SW 240 ° 0 min 0 W/m² 5,4 °C -0,6 °C 25,7 km/h (4 Bft)
07.12.2024 02:29 21,7 °C 6,6 °C 54 % 92 % 1012,3 hPa 0,0 l/m² 18,5 km/h (3 Bft) SW 236 ° 0 min 0 W/m² 5,4 °C -0,5 °C 24,1 km/h (4 Bft)
07.12.2024 02:30 21,7 °C 6,6 °C 54 % 92 % 1012,3 hPa 0,0 l/m² 16,1 km/h (3 Bft) W-SW 240 ° 0 min 0 W/m² 5,4 °C 0,5 °C 22,5 km/h (4 Bft)
07.12.2024 02:31 21,7 °C 6,6 °C 54 % 92 % 1012,3 hPa 0,0 l/m² 17,3 km/h (3 Bft) SW 229 ° 0 min 0 W/m² 5,4 °C -0,0 °C 25,7 km/h (4 Bft)
07.12.2024 02:32 21,7 °C 6,6 °C 54 % 92 % 1012,3 hPa 0,0 l/m² 19,5 km/h (3 Bft) SW 234 ° 0 min 0 W/m² 5,4 °C -0,9 °C 27,4 km/h (5 Bft)
07.12.2024 02:33 21,7 °C 6,6 °C 54 % 92 % 1012,3 hPa 0,0 l/m² 17,8 km/h (3 Bft) W-SW 240 ° 0 min 0 W/m² 5,4 °C -0,2 °C 22,5 km/h (4 Bft)
07.12.2024 02:34 21,7 °C 6,6 °C 54 % 92 % 1012,3 hPa 0,0 l/m² 19,6 km/h (3 Bft) W-SW 254 ° 0 min 0 W/m² 5,4 °C -1,0 °C 25,7 km/h (4 Bft)
07.12.2024 02:35 21,7 °C 6,6 °C 54 % 92 % 1012,3 hPa 0,0 l/m² 17,4 km/h (3 Bft) W-SW 244 ° 0 min 0 W/m² 5,4 °C -0,1 °C 24,1 km/h (4 Bft)
07.12.2024 02:36 21,7 °C 6,6 °C 54 % 92 % 1012,2 hPa 0,0 l/m² 13,7 km/h (3 Bft) W-SW 247 ° 0 min 0 W/m² 5,4 °C 1,7 °C 17,7 km/h (3 Bft)
07.12.2024 02:37 21,7 °C 6,6 °C 54 % 92 % 1012,2 hPa 0,0 l/m² 17,4 km/h (3 Bft) W-SW 252 ° 0 min 0 W/m² 5,4 °C -0,1 °C 22,5 km/h (4 Bft)
07.12.2024 02:38 21,7 °C 6,6 °C 54 % 92 % 1012,2 hPa 0,0 l/m² 17,4 km/h (3 Bft) W-SW 249 ° 0 min 0 W/m² 5,4 °C -0,1 °C 22,5 km/h (4 Bft)
07.12.2024 02:39 21,7 °C 6,5 °C 54 % 92 % 1012,2 hPa 0,0 l/m² 17,8 km/h (3 Bft) W-SW 256 ° 0 min 0 W/m² 5,3 °C -0,4 °C 24,1 km/h (4 Bft)
07.12.2024 02:40 21,7 °C 6,5 °C 54 % 91 % 1012,2 hPa 0,0 l/m² 17,8 km/h (3 Bft) SW 234 ° 0 min 0 W/m² 5,1 °C -0,4 °C 24,1 km/h (4 Bft)
07.12.2024 02:41 21,8 °C 6,5 °C 54 % 91 % 1012,3 hPa 0,0 l/m² 17,6 km/h (3 Bft) SW 229 ° 0 min 0 W/m² 5,1 °C -0,3 °C 25,7 km/h (4 Bft)
07.12.2024 02:42 21,8 °C 6,5 °C 54 % 91 % 1012,3 hPa 0,0 l/m² 17,6 km/h (3 Bft) W-SW 248 ° 0 min 0 W/m² 5,1 °C -0,3 °C 24,1 km/h (4 Bft)
07.12.2024 02:43 21,7 °C 6,4 °C 54 % 91 % 1012,3 hPa 0,0 l/m² 19,3 km/h (3 Bft) W-SW 243 ° 0 min 0 W/m² 5,0 °C -1,1 °C 25,7 km/h (4 Bft)
07.12.2024 02:44 21,8 °C 6,4 °C 54 % 91 % 1012,2 hPa 0,0 l/m² 19,5 km/h (3 Bft) W 259 ° 0 min 0 W/m² 5,0 °C -1,2 °C 22,5 km/h (4 Bft)
07.12.2024 02:45 21,7 °C 6,4 °C 54 % 91 % 1012,2 hPa 0,0 l/m² 18,7 km/h (3 Bft) W-SW 249 ° 0 min 0 W/m² 5,0 °C -0,9 °C 22,5 km/h (4 Bft)
07.12.2024 02:46 21,8 °C 6,4 °C 54 % 91 % 1012,2 hPa 0,0 l/m² 20,0 km/h (4 Bft) W-SW 243 ° 0 min 0 W/m² 5,0 °C -1,4 °C 25,7 km/h (4 Bft)
07.12.2024 02:47 21,8 °C 6,4 °C 54 % 91 % 1012,2 hPa 0,0 l/m² 22,1 km/h (4 Bft) W-SW 237 ° 0 min 0 W/m² 5,0 °C -2,1 °C 25,7 km/h (4 Bft)
07.12.2024 02:48 21,7 °C 6,4 °C 54 % 91 % 1012,3 hPa 0,0 l/m² 18,0 km/h (3 Bft) W-SW 254 ° 0 min 0 W/m² 5,0 °C -0,6 °C 25,7 km/h (4 Bft)
07.12.2024 02:49 21,8 °C 6,4 °C 54 % 91 % 1012,2 hPa 0,0 l/m² 20,4 km/h (4 Bft) W 259 ° 0 min 0 W/m² 5,0 °C -1,5 °C 27,4 km/h (5 Bft)
07.12.2024 02:50 21,8 °C 6,4 °C 54 % 91 % 1012,2 hPa 0,0 l/m² 19,6 km/h (3 Bft) W-SW 242 ° 0 min 0 W/m² 5,0 °C -1,2 °C 29,0 km/h (5 Bft)
07.12.2024 02:51 21,8 °C 6,4 °C 54 % 90 % 1012,2 hPa 0,0 l/m² 18,5 km/h (3 Bft) W-SW 244 ° 0 min 0 W/m² 4,9 °C -0,8 °C 25,7 km/h (4 Bft)
07.12.2024 02:52 21,8 °C 6,4 °C 54 % 90 % 1012,2 hPa 0,0 l/m² 16,0 km/h (3 Bft) W-SW 244 ° 0 min 0 W/m² 4,9 °C 0,3 °C 22,5 km/h (4 Bft)
07.12.2024 02:53 21,7 °C 6,4 °C 54 % 90 % 1012,1 hPa 0,0 l/m² 14,9 km/h (3 Bft) SW 216 ° 0 min 0 W/m² 4,9 °C 0,8 °C 20,9 km/h (4 Bft)
07.12.2024 02:54 21,8 °C 6,4 °C 54 % 90 % 1012,2 hPa 0,0 l/m² 17,6 km/h (3 Bft) W-SW 238 ° 0 min 0 W/m² 4,9 °C -0,4 °C 27,4 km/h (5 Bft)
07.12.2024 02:55 21,8 °C 6,4 °C 54 % 90 % 1012,1 hPa 0,0 l/m² 20,5 km/h (4 Bft) SW 220 ° 0 min 0 W/m² 4,9 °C -1,5 °C 25,7 km/h (4 Bft)
07.12.2024 02:56 21,8 °C 6,4 °C 54 % 90 % 1012,2 hPa 0,0 l/m² 16,8 km/h (3 Bft) SW 227 ° 0 min 0 W/m² 4,9 °C -0,1 °C 24,1 km/h (4 Bft)
07.12.2024 02:57 21,8 °C 6,4 °C 54 % 90 % 1012,2 hPa 0,0 l/m² 13,7 km/h (3 Bft) W-SW 252 ° 0 min 0 W/m² 4,9 °C 1,4 °C 17,7 km/h (3 Bft)
07.12.2024 02:58 21,8 °C 6,4 °C 54 % 90 % 1012,1 hPa 0,0 l/m² 13,7 km/h (3 Bft) W-SW 246 ° 0 min 0 W/m² 4,9 °C 1,4 °C 19,3 km/h (3 Bft)
07.12.2024 02:59 21,7 °C 6,4 °C 54 % 90 % 1012,1 hPa 0,0 l/m² 14,7 km/h (3 Bft) SW 233 ° 0 min 0 W/m² 4,9 °C 0,9 °C 20,9 km/h (4 Bft)
07.12.2024 03:00 21,7 °C 6,4 °C 54 % 90 % 1012,1 hPa 0,0 l/m² 16,4 km/h (3 Bft) SW 221 ° 0 min 0 W/m² 4,9 °C 0,1 °C 22,5 km/h (4 Bft)
07.12.2024 03:03 21,8 °C 6,4 °C 54 % 90 % 1012,1 hPa 0,0 l/m² 15,8 km/h (3 Bft) W-SW 244 ° 0 min 0 W/m² 4,9 °C 0,4 °C 24,1 km/h (4 Bft)
07.12.2024 03:04 21,8 °C 6,4 °C 54 % 90 % 1012,2 hPa 0,0 l/m² 14,5 km/h (3 Bft) W-SW 238 ° 0 min 0 W/m² 4,9 °C 1,0 °C 20,9 km/h (4 Bft)
07.12.2024 03:05 21,8 °C 6,4 °C 54 % 90 % 1012,2 hPa 0,0 l/m² 16,2 km/h (3 Bft) SW 234 ° 0 min 0 W/m² 4,9 °C 0,2 °C 20,9 km/h (4 Bft)
07.12.2024 03:07 21,8 °C 6,3 °C 54 % 90 % 1012,1 hPa 0,0 l/m² 15,7 km/h (3 Bft) SW 236 ° 0 min 0 W/m² 4,8 °C 0,3 °C 20,9 km/h (4 Bft)
07.12.2024 03:08 21,8 °C 6,3 °C 54 % 90 % 1012,2 hPa 0,0 l/m² 13,7 km/h (3 Bft) W-SW 250 ° 0 min 0 W/m² 4,8 °C 1,3 °C 19,3 km/h (3 Bft)
07.12.2024 03:09 21,8 °C 6,3 °C 54 % 89 % 1012,1 hPa 0,0 l/m² 17,8 km/h (3 Bft) SW 235 ° 0 min 0 W/m² 4,6 °C -0,6 °C 24,1 km/h (4 Bft)
07.12.2024 03:10 21,8 °C 6,3 °C 54 % 89 % 1012,1 hPa 0,0 l/m² 13,9 km/h (3 Bft) W-SW 243 ° 0 min 0 W/m² 4,6 °C 1,2 °C 17,7 km/h (3 Bft)
07.12.2024 03:12 21,8 °C 6,3 °C 54 % 89 % 1012,1 hPa 0,0 l/m² 18,5 km/h (3 Bft) SW 234 ° 0 min 0 W/m² 4,6 °C -0,9 °C 27,4 km/h (5 Bft)
07.12.2024 03:14 21,7 °C 6,3 °C 54 % 89 % 1012,1 hPa 0,0 l/m² 15,2 km/h (3 Bft) W-SW 240 ° 0 min 0 W/m² 4,6 °C 0,6 °C 22,5 km/h (4 Bft)
07.12.2024 03:16 21,8 °C 6,2 °C 54 % 89 % 1012,0 hPa 0,0 l/m² 13,4 km/h (3 Bft) W-SW 240 ° 0 min 0 W/m² 4,5 °C 1,4 °C 19,3 km/h (3 Bft)
07.12.2024 03:18 21,8 °C 6,2 °C 54 % 89 % 1012,0 hPa 0,0 l/m² 10,3 km/h (2 Bft) SW 235 ° 0 min 0 W/m² 4,5 °C 3,2 °C 16,1 km/h (3 Bft)
07.12.2024 03:20 21,8 °C 6,2 °C 54 % 89 % 1012,0 hPa 0,0 l/m² 13,8 km/h (3 Bft) SW 234 ° 0 min 0 W/m² 4,5 °C 1,1 °C 22,5 km/h (4 Bft)
07.12.2024 03:21 21,8 °C 6,2 °C 54 % 89 % 1012,0 hPa 0,0 l/m² 14,5 km/h (3 Bft) SW 216 ° 0 min 0 W/m² 4,5 °C 0,8 °C 20,9 km/h (4 Bft)
07.12.2024 03:22 21,8 °C 6,2 °C 54 % 89 % 1012,0 hPa 0,0 l/m² 13,5 km/h (3 Bft) SW 232 ° 0 min 0 W/m² 4,5 °C 1,3 °C 17,7 km/h (3 Bft)
07.12.2024 03:23 21,8 °C 6,1 °C 54 % 89 % 1012,0 hPa 0,0 l/m² 18,0 km/h (3 Bft) SW 219 ° 0 min 0 W/m² 4,4 °C -1,0 °C 22,5 km/h (4 Bft)
07.12.2024 03:24 21,7 °C 6,1 °C 54 % 88 % 1012,1 hPa 0,0 l/m² 14,3 km/h (3 Bft) SW 226 ° 0 min 0 W/m² 4,3 °C 0,8 °C 22,5 km/h (4 Bft)
07.12.2024 03:26 21,8 °C 6,1 °C 54 % 88 % 1012,0 hPa 0,0 l/m² 12,4 km/h (2 Bft) SW 219 ° 0 min 0 W/m² 4,3 °C 1,8 °C 19,3 km/h (3 Bft)
07.12.2024 03:28 21,8 °C 6,0 °C 54 % 88 % 1012,0 hPa 0,0 l/m² 11,8 km/h (2 Bft) W-SW 245 ° 0 min 0 W/m² 4,2 °C 2,0 °C 16,1 km/h (3 Bft)
07.12.2024 03:30 21,8 °C 5,9 °C 54 % 88 % 1012,1 hPa 0,0 l/m² 17,5 km/h (3 Bft) SW 227 ° 0 min 0 W/m² 4,1 °C -1,0 °C 25,7 km/h (4 Bft)
07.12.2024 03:31 21,8 °C 5,9 °C 54 % 88 % 1012,0 hPa 0,0 l/m² 19,9 km/h (4 Bft) SW 227 ° 0 min 0 W/m² 4,1 °C -2,0 °C 25,7 km/h (4 Bft)
07.12.2024 03:32 21,8 °C 5,9 °C 54 % 88 % 1012,0 hPa 0,0 l/m² 17,1 km/h (3 Bft) SW 223 ° 0 min 0 W/m² 4,1 °C -0,8 °C 22,5 km/h (4 Bft)
07.12.2024 03:34 21,7 °C 5,9 °C 54 % 88 % 1011,9 hPa 0,0 l/m² 17,2 km/h (3 Bft) SW 234 ° 0 min 0 W/m² 4,1 °C -0,9 °C 22,5 km/h (4 Bft)
07.12.2024 03:36 21,8 °C 5,9 °C 54 % 88 % 1011,9 hPa 0,0 l/m² 19,9 km/h (4 Bft) W-SW 242 ° 0 min 0 W/m² 4,1 °C -2,0 °C 29,0 km/h (5 Bft)
07.12.2024 03:38 21,7 °C 5,9 °C 54 % 88 % 1011,9 hPa 0,0 l/m² 19,0 km/h (3 Bft) W-SW 248 ° 0 min 0 W/m² 4,1 °C -1,6 °C 24,1 km/h (4 Bft)
07.12.2024 03:40 21,7 °C 5,9 °C 54 % 88 % 1011,9 hPa 0,0 l/m² 18,7 km/h (3 Bft) SW 235 ° 0 min 0 W/m² 4,1 °C -1,5 °C 25,7 km/h (4 Bft)
07.12.2024 03:41 21,7 °C 5,9 °C 54 % 88 % 1012,0 hPa 0,0 l/m² 13,2 km/h (3 Bft) SW 234 ° 0 min 0 W/m² 4,1 °C 1,1 °C 17,7 km/h (3 Bft)
07.12.2024 03:42 21,7 °C 5,9 °C 54 % 88 % 1012,0 hPa 0,0 l/m² 15,5 km/h (3 Bft) SW 236 ° 0 min 0 W/m² 4,1 °C -0,1 °C 20,9 km/h (4 Bft)
07.12.2024 03:44 21,8 °C 5,9 °C 54 % 88 % 1012,0 hPa 0,0 l/m² 11,0 km/h (2 Bft) SW 215 ° 0 min 0 W/m² 4,1 °C 2,4 °C 14,5 km/h (3 Bft)
07.12.2024 03:45 21,7 °C 5,9 °C 54 % 88 % 1012,0 hPa 0,0 l/m² 12,9 km/h (3 Bft) SW 231 ° 0 min 0 W/m² 4,1 °C 1,3 °C 16,1 km/h (3 Bft)
07.12.2024 03:46 21,7 °C 5,9 °C 54 % 87 % 1011,9 hPa 0,0 l/m² 11,5 km/h (2 Bft) SW 221 ° 0 min 0 W/m² 3,9 °C 2,1 °C 16,1 km/h (3 Bft)
07.12.2024 03:47 21,7 °C 5,9 °C 54 % 87 % 1012,0 hPa 0,0 l/m² 9,5 km/h (2 Bft) SW 227 ° 0 min 0 W/m² 3,9 °C 3,4 °C 11,3 km/h (2 Bft)
07.12.2024 03:49 21,7 °C 5,8 °C 54 % 87 % 1011,8 hPa 0,0 l/m² 12,1 km/h (2 Bft) SW 231 ° 0 min 0 W/m² 3,8 °C 1,6 °C 19,3 km/h (3 Bft)
07.12.2024 03:50 21,7 °C 5,8 °C 54 % 87 % 1011,8 hPa 0,0 l/m² 12,0 km/h (2 Bft) SW 223 ° 0 min 0 W/m² 3,8 °C 1,7 °C 16,1 km/h (3 Bft)
07.12.2024 03:51 21,7 °C 5,8 °C 54 % 87 % 1011,7 hPa 0,0 l/m² 8,9 km/h (2 Bft) SW 223 ° 0 min 0 W/m² 3,8 °C 3,7 °C 12,9 km/h (3 Bft)
07.12.2024 03:52 21,7 °C 5,8 °C 54 % 87 % 1011,7 hPa 0,0 l/m² 9,0 km/h (2 Bft) SW 223 ° 0 min 0 W/m² 3,8 °C 3,7 °C 11,3 km/h (2 Bft)
07.12.2024 03:54 21,7 °C 5,7 °C 54 % 87 % 1011,7 hPa 0,0 l/m² 9,1 km/h (2 Bft) SW 225 ° 0 min 0 W/m² 3,7 °C 3,5 °C 11,3 km/h (2 Bft)
07.12.2024 03:56 21,7 °C 5,7 °C 54 % 87 % 1011,6 hPa 0,0 l/m² 8,6 km/h (2 Bft) SW 231 ° 0 min 0 W/m² 3,7 °C 3,9 °C 12,9 km/h (3 Bft)
07.12.2024 03:58 21,7 °C 5,7 °C 54 % 87 % 1011,6 hPa 0,0 l/m² 7,9 km/h (2 Bft) SW 223 ° 0 min 0 W/m² 3,7 °C 4,4 °C 11,3 km/h (2 Bft)
07.12.2024 04:00 21,7 °C 5,6 °C 54 % 87 % 1011,6 hPa 0,0 l/m² 8,2 km/h (2 Bft) SW 218 ° 0 min 0 W/m² 3,6 °C 4,1 °C 11,3 km/h (2 Bft)
07.12.2024 04:01 21,7 °C 5,6 °C 54 % 87 % 1011,6 hPa 0,0 l/m² 7,0 km/h (2 Bft) SW 215 ° 0 min 0 W/m² 3,6 °C 5,1 °C 8,0 km/h (2 Bft)
07.12.2024 04:02 21,7 °C 5,6 °C 54 % 87 % 1011,6 hPa 0,0 l/m² 5,4 km/h (2 Bft) SW 214 ° 0 min 0 W/m² 3,6 °C 5,6 °C 8,0 km/h (2 Bft)
07.12.2024 04:03 21,7 °C 5,6 °C 54 % 87 % 1011,6 hPa 0,0 l/m² 6,4 km/h (2 Bft) S-SW 200 ° 0 min 0 W/m² 3,6 °C 5,6 °C 8,0 km/h (2 Bft)
07.12.2024 04:04 21,7 °C 5,5 °C 54 % 87 % 1011,6 hPa 0,0 l/m² 6,0 km/h (2 Bft) S-SW 200 ° 0 min 0 W/m² 3,5 °C 5,5 °C 8,0 km/h (2 Bft)
07.12.2024 04:05 21,7 °C 5,5 °C 54 % 87 % 1011,7 hPa 0,0 l/m² 7,2 km/h (2 Bft) S-SW 201 ° 0 min 0 W/m² 3,5 °C 4,8 °C 9,7 km/h (2 Bft)
07.12.2024 04:07 21,7 °C 5,4 °C 54 % 87 % 1011,6 hPa 0,0 l/m² 5,0 km/h (1 Bft) S-SW 202 ° 0 min 0 W/m² 3,4 °C 5,4 °C 8,0 km/h (2 Bft)
07.12.2024 04:09 21,7 °C 5,3 °C 54 % 87 % 1011,6 hPa 0,0 l/m² 4,9 km/h (1 Bft) S-SW 207 ° 0 min 0 W/m² 3,3 °C 5,3 °C 6,4 km/h (2 Bft)
07.12.2024 04:10 21,7 °C 5,3 °C 54 % 87 % 1011,6 hPa 0,0 l/m² 4,2 km/h (1 Bft) S-SW 207 ° 0 min 0 W/m² 3,3 °C 5,3 °C 6,4 km/h (2 Bft)
07.12.2024 04:11 21,7 °C 5,3 °C 54 % 87 % 1011,5 hPa 0,0 l/m² 3,2 km/h (1 Bft) W-SW 238 ° 0 min 0 W/m² 3,3 °C 5,3 °C 8,0 km/h (2 Bft)
07.12.2024 04:12 21,7 °C 5,3 °C 54 % 87 % 1011,4 hPa 0,0 l/m² 4,7 km/h (1 Bft) SW 236 ° 0 min 0 W/m² 3,3 °C 5,3 °C 6,4 km/h (2 Bft)
07.12.2024 04:14 21,7 °C 5,2 °C 54 % 87 % 1011,3 hPa 0,0 l/m² 3,7 km/h (1 Bft) SW 236 ° 0 min 0 W/m² 3,2 °C 5,2 °C 6,4 km/h (2 Bft)
07.12.2024 04:16 21,7 °C 5,2 °C 54 % 87 % 1011,4 hPa 0,0 l/m² 4,5 km/h (1 Bft) SW 227 ° 0 min 0 W/m² 3,2 °C 5,2 °C 9,7 km/h (2 Bft)
07.12.2024 04:18 21,7 °C 5,1 °C 54 % 87 % 1011,3 hPa 0,0 l/m² 7,8 km/h (2 Bft) SW 216 ° 0 min 0 W/m² 3,1 °C 3,9 °C 9,7 km/h (2 Bft)
07.12.2024 04:20 21,7 °C 5,0 °C 54 % 87 % 1011,3 hPa 0,0 l/m² 5,7 km/h (2 Bft) S-SW 210 ° 0 min 0 W/m² 3,0 °C 5,0 °C 8,0 km/h (2 Bft)
07.12.2024 04:21 21,7 °C 4,9 °C 54 % 87 % 1011,3 hPa 0,0 l/m² 4,6 km/h (1 Bft) S-SW 210 ° 0 min 0 W/m² 2,9 °C 4,9 °C 6,4 km/h (2 Bft)
07.12.2024 04:22 21,7 °C 4,9 °C 54 % 87 % 1011,2 hPa 0,0 l/m² 4,2 km/h (1 Bft) S-SW 210 ° 0 min 0 W/m² 2,9 °C 4,9 °C 6,4 km/h (2 Bft)
07.12.2024 04:24 21,7 °C 4,9 °C 54 % 87 % 1011,2 hPa 0,0 l/m² 4,0 km/h (1 Bft) S-SW 202 ° 0 min 0 W/m² 2,9 °C 4,9 °C 6,4 km/h (2 Bft)
07.12.2024 04:26 21,7 °C 4,8 °C 54 % 87 % 1011,1 hPa 0,0 l/m² 4,6 km/h (1 Bft) S 172 ° 0 min 0 W/m² 2,8 °C 4,8 °C 8,0 km/h (2 Bft)
07.12.2024 04:28 21,7 °C 4,8 °C 54 % 87 % 1011,2 hPa 0,0 l/m² 5,6 km/h (2 Bft) S 171 ° 0 min 0 W/m² 2,8 °C 4,8 °C 9,7 km/h (2 Bft)
07.12.2024 04:30 21,7 °C 4,7 °C 54 % 87 % 1011,1 hPa 0,0 l/m² 5,8 km/h (2 Bft) S 171 ° 0 min 0 W/m² 2,7 °C 4,7 °C 11,3 km/h (2 Bft)
07.12.2024 04:31 21,7 °C 4,7 °C 54 % 87 % 1011,1 hPa 0,0 l/m² 3,4 km/h (1 Bft) S 171 ° 0 min 0 W/m² 2,7 °C 4,7 °C 8,0 km/h (2 Bft)
07.12.2024 04:32 21,7 °C 4,7 °C 53 % 87 % 1011,1 hPa 0,0 l/m² 4,4 km/h (1 Bft) S 169 ° 0 min 0 W/m² 2,7 °C 4,7 °C 8,0 km/h (2 Bft)
07.12.2024 04:33 21,7 °C 4,7 °C 53 % 87 % 1011,0 hPa 0,0 l/m² 2,8 km/h (1 Bft) S 169 ° 0 min 0 W/m² 2,7 °C 4,7 °C 8,0 km/h (2 Bft)
07.12.2024 04:34 21,7 °C 4,6 °C 53 % 87 % 1011,0 hPa 0,0 l/m² 2,8 km/h (1 Bft) S 169 ° 0 min 0 W/m² 2,6 °C 4,6 °C 6,4 km/h (2 Bft)
07.12.2024 04:35 21,7 °C 4,6 °C 54 % 87 % 1011,1 hPa 0,0 l/m² 2,5 km/h (1 Bft) S 169 ° 0 min 0 W/m² 2,6 °C 4,6 °C 3,2 km/h (1 Bft)
07.12.2024 04:37 21,7 °C 4,6 °C 53 % 87 % 1011,1 hPa 0,2 l/m² 2,9 km/h (1 Bft) S-SO 168 ° 0 min 0 W/m² 2,6 °C 4,6 °C 6,4 km/h (2 Bft)
07.12.2024 04:39 21,7 °C 4,6 °C 53 % 87 % 1011,0 hPa 0,0 l/m² 1,3 km/h (1 Bft) S-SO 168 ° 0 min 0 W/m² 2,6 °C 4,6 °C 6,4 km/h (2 Bft)
07.12.2024 04:40 21,7 °C 4,4 °C 53 % 87 % 1011,0 hPa 0,0 l/m² 0,7 km/h (0 Bft) S-SO 168 ° 0 min 0 W/m² 2,4 °C 4,4 °C 3,2 km/h (1 Bft)
07.12.2024 04:41 21,7 °C 4,4 °C 53 % 87 % 1011,0 hPa 0,0 l/m² 3,0 km/h (1 Bft) S 171 ° 0 min 0 W/m² 2,4 °C 4,4 °C 8,0 km/h (2 Bft)
07.12.2024 04:42 21,7 °C 4,4 °C 53 % 87 % 1011,0 hPa 0,0 l/m² 0,1 km/h (0 Bft) S 171 ° 0 min 0 W/m² 2,4 °C 4,4 °C 1,6 km/h (1 Bft)
07.12.2024 04:44 21,7 °C 4,4 °C 54 % 88 % 1010,9 hPa 0,0 l/m² 0,5 km/h (0 Bft) S 173 ° 0 min 0 W/m² 2,6 °C 4,4 °C 3,2 km/h (1 Bft)
07.12.2024 04:46 21,7 °C 4,4 °C 53 % 88 % 1010,8 hPa 0,0 l/m² 1,6 km/h (1 Bft) S 173 ° 0 min 0 W/m² 2,6 °C 4,4 °C 4,8 km/h (1 Bft)
07.12.2024 04:48 21,7 °C 4,3 °C 53 % 88 % 1010,8 hPa 0,0 l/m² 2,6 km/h (1 Bft) S 175 ° 0 min 0 W/m² 2,5 °C 4,3 °C 4,8 km/h (1 Bft)
07.12.2024 04:50 21,7 °C 4,3 °C 53 % 88 % 1010,6 hPa 0,0 l/m² 4,3 km/h (1 Bft) S-SW 207 ° 0 min 0 W/m² 2,5 °C 4,3 °C 6,4 km/h (2 Bft)
07.12.2024 04:51 21,7 °C 4,3 °C 53 % 88 % 1010,7 hPa 0,0 l/m² 2,5 km/h (1 Bft) S-SW 207 ° 0 min 0 W/m² 2,5 °C 4,3 °C 4,8 km/h (1 Bft)
07.12.2024 04:52 21,7 °C 4,3 °C 53 % 88 % 1010,6 hPa 0,0 l/m² 1,5 km/h (1 Bft) S-SW 207 ° 0 min 0 W/m² 2,5 °C 4,3 °C 3,2 km/h (1 Bft)
07.12.2024 04:55 21,7 °C 4,2 °C 53 % 88 % 1010,8 hPa 0,0 l/m² 1,3 km/h (1 Bft) S-SW 207 ° 0 min 0 W/m² 2,4 °C 4,2 °C 3,2 km/h (1 Bft)
07.12.2024 04:57 21,7 °C 4,2 °C 53 % 88 % 1010,7 hPa 0,0 l/m² 2,8 km/h (1 Bft) S-SW 207 ° 0 min 0 W/m² 2,4 °C 4,2 °C 6,4 km/h (2 Bft)
07.12.2024 04:59 21,7 °C 4,2 °C 53 % 88 % 1010,7 hPa 0,0 l/m² 3,6 km/h (1 Bft) S-SW 212 ° 0 min 0 W/m² 2,4 °C 4,2 °C 8,0 km/h (2 Bft)
07.12.2024 05:00 21,7 °C 4,2 °C 53 % 88 % 1010,8 hPa 0,0 l/m² 3,9 km/h (1 Bft) S-SW 212 ° 0 min 0 W/m² 2,4 °C 4,2 °C 4,8 km/h (1 Bft)
07.12.2024 05:01 21,7 °C 4,2 °C 53 % 88 % 1010,8 hPa 0,0 l/m² 4,3 km/h (1 Bft) S-SW 212 ° 0 min 0 W/m² 2,4 °C 4,2 °C 6,4 km/h (2 Bft)
07.12.2024 05:02 21,7 °C 4,2 °C 53 % 88 % 1010,8 hPa 0,0 l/m² 3,3 km/h (1 Bft) S-SW 212 ° 0 min 0 W/m² 2,4 °C 4,2 °C 6,4 km/h (2 Bft)
07.12.2024 05:04 21,7 °C 4,1 °C 53 % 88 % 1010,9 hPa 0,0 l/m² 6,8 km/h (2 Bft) S-SW 202 ° 0 min 0 W/m² 2,3 °C 3,7 °C 9,7 km/h (2 Bft)
07.12.2024 05:06 21,7 °C 4,1 °C 53 % 88 % 1010,8 hPa 0,0 l/m² 6,8 km/h (2 Bft) S-SW 204 ° 0 min 0 W/m² 2,3 °C 3,7 °C 9,7 km/h (2 Bft)
07.12.2024 05:08 21,7 °C 4,1 °C 53 % 88 % 1010,9 hPa 0,0 l/m² 6,2 km/h (2 Bft) S-SW 200 ° 0 min 0 W/m² 2,3 °C 4,1 °C 9,7 km/h (2 Bft)
07.12.2024 05:10 21,7 °C 3,9 °C 53 % 88 % 1010,8 hPa 0,0 l/m² 5,9 km/h (2 Bft) S-SW 199 ° 0 min 0 W/m² 2,1 °C 3,9 °C 8,0 km/h (2 Bft)
07.12.2024 05:11 21,6 °C 3,9 °C 53 % 88 % 1010,8 hPa 0,0 l/m² 5,8 km/h (2 Bft) S-SW 199 ° 0 min 0 W/m² 2,1 °C 3,9 °C 8,0 km/h (2 Bft)
07.12.2024 05:12 21,6 °C 3,9 °C 53 % 88 % 1010,8 hPa 0,0 l/m² 6,7 km/h (2 Bft) S-SW 199 ° 0 min 0 W/m² 2,1 °C 3,6 °C 8,0 km/h (2 Bft)
07.12.2024 05:13 21,7 °C 3,9 °C 53 % 88 % 1010,8 hPa 0,0 l/m² 8,7 km/h (2 Bft) S-SW 200 ° 0 min 0 W/m² 2,1 °C 1,9 °C 11,3 km/h (2 Bft)
07.12.2024 05:15 21,7 °C 3,8 °C 53 % 88 % 1010,9 hPa 0,0 l/m² 9,1 km/h (2 Bft) S-SW 209 ° 0 min 0 W/m² 2,0 °C 1,4 °C 11,3 km/h (2 Bft)
07.12.2024 05:17 21,7 °C 3,9 °C 53 % 89 % 1010,9 hPa 0,0 l/m² 8,2 km/h (2 Bft) S-SW 213 ° 0 min 0 W/m² 2,3 °C 2,3 °C 12,9 km/h (3 Bft)
07.12.2024 05:19 21,6 °C 3,9 °C 53 % 89 % 1010,8 hPa 0,0 l/m² 10,5 km/h (2 Bft) SW 217 ° 0 min 0 W/m² 2,3 °C 0,5 °C 14,5 km/h (3 Bft)
07.12.2024 05:20 21,6 °C 3,9 °C 53 % 89 % 1010,7 hPa 0,0 l/m² 8,6 km/h (2 Bft) SW 217 ° 0 min 0 W/m² 2,3 °C 1,9 °C 12,9 km/h (3 Bft)
07.12.2024 05:22 21,7 °C 3,9 °C 53 % 89 % 1010,7 hPa 0,0 l/m² 8,4 km/h (2 Bft) SW 230 ° 0 min 0 W/m² 2,3 °C 2,1 °C 12,9 km/h (3 Bft)
07.12.2024 05:24 21,7 °C 3,9 °C 53 % 89 % 1010,7 hPa 0,0 l/m² 9,4 km/h (2 Bft) SW 214 ° 0 min 0 W/m² 2,3 °C 1,3 °C 12,9 km/h (3 Bft)
07.12.2024 05:26 21,6 °C 3,9 °C 53 % 89 % 1010,7 hPa 0,0 l/m² 10,7 km/h (2 Bft) S-SW 213 ° 0 min 0 W/m² 2,3 °C 0,4 °C 14,5 km/h (3 Bft)
07.12.2024 05:28 21,6 °C 3,9 °C 53 % 89 % 1010,7 hPa 0,0 l/m² 10,8 km/h (2 Bft) SW 217 ° 0 min 0 W/m² 2,3 °C 0,3 °C 14,5 km/h (3 Bft)
07.12.2024 05:30 21,6 °C 3,9 °C 53 % 89 % 1010,7 hPa 0,0 l/m² 9,3 km/h (2 Bft) S-SW 212 ° 0 min 0 W/m² 2,3 °C 1,4 °C 12,9 km/h (3 Bft)
07.12.2024 05:31 21,6 °C 3,9 °C 53 % 89 % 1010,6 hPa 0,0 l/m² 8,7 km/h (2 Bft) S-SW 210 ° 0 min 0 W/m² 2,3 °C 1,9 °C 11,3 km/h (2 Bft)
07.12.2024 05:32 21,6 °C 3,9 °C 53 % 89 % 1010,6 hPa 0,0 l/m² 8,4 km/h (2 Bft) S-SW 210 ° 0 min 0 W/m² 2,3 °C 2,1 °C 11,3 km/h (2 Bft)
07.12.2024 05:33 21,6 °C 3,9 °C 53 % 89 % 1010,6 hPa 0,0 l/m² 7,6 km/h (2 Bft) S-SW 209 ° 0 min 0 W/m² 2,3 °C 2,8 °C 9,7 km/h (2 Bft)
07.12.2024 05:35 21,6 °C 3,9 °C 53 % 89 % 1010,6 hPa 0,0 l/m² 8,3 km/h (2 Bft) S-SW 212 ° 0 min 0 W/m² 2,3 °C 2,2 °C 11,3 km/h (2 Bft)
07.12.2024 05:36 21,6 °C 3,9 °C 53 % 89 % 1010,6 hPa 0,0 l/m² 6,2 km/h (2 Bft) S-SW 212 ° 0 min 0 W/m² 2,3 °C 3,9 °C 8,0 km/h (2 Bft)
07.12.2024 05:37 21,6 °C 3,9 °C 53 % 89 % 1010,6 hPa 0,0 l/m² 7,2 km/h (2 Bft) S-SW 212 ° 0 min 0 W/m² 2,3 °C 3,2 °C 8,0 km/h (2 Bft)
07.12.2024 05:39 21,6 °C 3,9 °C 53 % 89 % 1010,5 hPa 0,0 l/m² 6,8 km/h (2 Bft) S-SW 202 ° 0 min 0 W/m² 2,3 °C 3,5 °C 8,0 km/h (2 Bft)
07.12.2024 05:40 21,6 °C 3,9 °C 53 % 89 % 1010,5 hPa 0,0 l/m² 8,2 km/h (2 Bft) S-SW 200 ° 0 min 0 W/m² 2,3 °C 2,3 °C 9,7 km/h (2 Bft)
07.12.2024 05:41 21,6 °C 3,9 °C 53 % 89 % 1010,5 hPa 0,0 l/m² 9,0 km/h (2 Bft) S-SW 192 ° 0 min 0 W/m² 2,3 °C 1,6 °C 11,3 km/h (2 Bft)
07.12.2024 05:42 21,6 °C 3,8 °C 53 % 89 % 1010,5 hPa 0,0 l/m² 9,2 km/h (2 Bft) S 179 ° 0 min 0 W/m² 2,2 °C 1,4 °C 12,9 km/h (3 Bft)
07.12.2024 05:44 21,6 °C 3,8 °C 53 % 89 % 1010,4 hPa 0,0 l/m² 7,9 km/h (2 Bft) S 181 ° 0 min 0 W/m² 2,2 °C 2,4 °C 12,9 km/h (3 Bft)
07.12.2024 05:46 21,6 °C 3,8 °C 53 % 89 % 1010,4 hPa 0,0 l/m² 6,1 km/h (2 Bft) S 179 ° 0 min 0 W/m² 2,2 °C 3,8 °C 8,0 km/h (2 Bft)
07.12.2024 05:48 21,6 °C 3,8 °C 53 % 89 % 1010,3 hPa 0,0 l/m² 5,6 km/h (2 Bft) S 191 ° 0 min 0 W/m² 2,2 °C 3,8 °C 11,3 km/h (2 Bft)
07.12.2024 05:50 21,6 °C 3,8 °C 53 % 89 % 1010,3 hPa 0,0 l/m² 4,2 km/h (1 Bft) S 191 ° 0 min 0 W/m² 2,2 °C 3,8 °C 6,4 km/h (2 Bft)
07.12.2024 05:51 21,6 °C 3,8 °C 53 % 89 % 1010,3 hPa 0,0 l/m² 3,6 km/h (1 Bft) S 191 ° 0 min 0 W/m² 2,2 °C 3,8 °C 6,4 km/h (2 Bft)
07.12.2024 05:52 21,6 °C 3,8 °C 53 % 89 % 1010,3 hPa 0,0 l/m² 2,9 km/h (1 Bft) S 191 ° 0 min 0 W/m² 2,2 °C 3,8 °C 4,8 km/h (1 Bft)
07.12.2024 05:53 21,6 °C 3,8 °C 53 % 89 % 1010,3 hPa 0,0 l/m² 3,0 km/h (1 Bft) S 191 ° 0 min 0 W/m² 2,2 °C 3,8 °C 4,8 km/h (1 Bft)
07.12.2024 05:55 21,6 °C 3,8 °C 53 % 89 % 1010,3 hPa 0,0 l/m² 1,9 km/h (1 Bft) S 191 ° 0 min 0 W/m² 2,2 °C 3,8 °C 4,8 km/h (1 Bft)
07.12.2024 05:57 21,6 °C 3,8 °C 53 % 89 % 1010,3 hPa 0,0 l/m² 4,4 km/h (1 Bft) S 191 ° 0 min 0 W/m² 2,2 °C 3,8 °C 8,0 km/h (2 Bft)
07.12.2024 05:59 21,6 °C 3,8 °C 53 % 89 % 1010,3 hPa 0,0 l/m² 2,7 km/h (1 Bft) S 191 ° 0 min 0 W/m² 2,2 °C 3,8 °C 4,8 km/h (1 Bft)
07.12.2024 06:00 21,6 °C 3,8 °C 53 % 89 % 1010,3 hPa 0,0 l/m² 2,0 km/h (1 Bft) S 191 ° 0 min 0 W/m² 2,2 °C 3,8 °C 3,2 km/h (1 Bft)
07.12.2024 06:01 21,6 °C 3,8 °C 53 % 89 % 1010,2 hPa 0,0 l/m² 0,4 km/h (0 Bft) S 191 ° 0 min 0 W/m² 2,2 °C 3,8 °C 1,6 km/h (1 Bft)
07.12.2024 06:02 21,6 °C 3,8 °C 53 % 89 % 1010,2 hPa 0,0 l/m² 1,0 km/h (0 Bft) S 191 ° 0 min 0 W/m² 2,2 °C 3,8 °C 3,2 km/h (1 Bft)
07.12.2024 06:04 21,6 °C 3,7 °C 53 % 89 % 1010,3 hPa 0,0 l/m² 2,2 km/h (1 Bft) S 191 ° 0 min 0 W/m² 2,1 °C 3,7 °C 4,8 km/h (1 Bft)
07.12.2024 06:06 21,6 °C 3,7 °C 53 % 89 % 1010,2 hPa 0,0 l/m² 1,4 km/h (1 Bft) S 191 ° 0 min 0 W/m² 2,1 °C 3,7 °C 4,8 km/h (1 Bft)
07.12.2024 06:08 21,6 °C 3,7 °C 53 % 89 % 1010,2 hPa 0,0 l/m² 0,9 km/h (0 Bft) S 191 ° 0 min 0 W/m² 2,1 °C 3,7 °C 4,8 km/h (1 Bft)
07.12.2024 06:10 21,6 °C 3,7 °C 53 % 89 % 1010,1 hPa 0,0 l/m² 3,8 km/h (1 Bft) S 191 ° 0 min 0 W/m² 2,1 °C 3,7 °C 6,4 km/h (2 Bft)
07.12.2024 06:11 21,6 °C 3,7 °C 53 % 88 % 1010,2 hPa 0,0 l/m² 4,8 km/h (1 Bft) S-SW 192 ° 0 min 0 W/m² 1,9 °C 3,7 °C 6,4 km/h (2 Bft)
07.12.2024 06:12 21,6 °C 3,6 °C 53 % 88 % 1010,3 hPa 0,0 l/m² 5,5 km/h (2 Bft) SW 226 ° 0 min 0 W/m² 1,8 °C 3,6 °C 8,0 km/h (2 Bft)
07.12.2024 06:13 21,6 °C 3,6 °C 53 % 89 % 1010,3 hPa 0,0 l/m² 8,6 km/h (2 Bft) S-SW 213 ° 0 min 0 W/m² 2,0 °C 1,6 °C 11,3 km/h (2 Bft)
07.12.2024 06:15 21,6 °C 3,6 °C 53 % 88 % 1010,3 hPa 0,0 l/m² 8,9 km/h (2 Bft) S-SW 200 ° 0 min 0 W/m² 1,8 °C 1,4 °C 14,5 km/h (3 Bft)
07.12.2024 06:17 21,6 °C 3,6 °C 53 % 88 % 1010,2 hPa 0,0 l/m² 10,8 km/h (2 Bft) S-SW 204 ° 0 min 0 W/m² 1,8 °C -0,1 °C 16,1 km/h (3 Bft)
07.12.2024 06:19 21,6 °C 3,6 °C 53 % 88 % 1010,2 hPa 0,0 l/m² 10,4 km/h (2 Bft) S 184 ° 0 min 0 W/m² 1,8 °C 0,2 °C 14,5 km/h (3 Bft)
07.12.2024 06:20 21,6 °C 3,6 °C 53 % 89 % 1010,2 hPa 0,0 l/m² 8,5 km/h (2 Bft) S-SW 194 ° 0 min 0 W/m² 2,0 °C 1,7 °C 12,9 km/h (3 Bft)
07.12.2024 06:21 21,6 °C 3,6 °C 53 % 89 % 1010,2 hPa 0,0 l/m² 8,3 km/h (2 Bft) S 191 ° 0 min 0 W/m² 2,0 °C 1,9 °C 11,3 km/h (2 Bft)
07.12.2024 06:22 21,6 °C 3,6 °C 53 % 89 % 1010,1 hPa 0,0 l/m² 8,2 km/h (2 Bft) S-SW 193 ° 0 min 0 W/m² 2,0 °C 2,0 °C 12,9 km/h (3 Bft)
07.12.2024 06:24 21,6 °C 3,6 °C 53 % 88 % 1010,2 hPa 0,0 l/m² 6,5 km/h (2 Bft) S-SW 195 ° 0 min 0 W/m² 1,8 °C 3,5 °C 9,7 km/h (2 Bft)
07.12.2024 06:26 21,7 °C 3,6 °C 53 % 88 % 1010,1 hPa 0,0 l/m² 5,9 km/h (2 Bft) S 188 ° 0 min 0 W/m² 1,8 °C 3,6 °C 8,0 km/h (2 Bft)
07.12.2024 06:28 21,6 °C 3,6 °C 53 % 88 % 1010,1 hPa 0,0 l/m² 7,0 km/h (2 Bft) S-SO 165 ° 0 min 0 W/m² 1,8 °C 3,0 °C 9,7 km/h (2 Bft)
07.12.2024 06:30 21,6 °C 3,6 °C 53 % 88 % 1010,2 hPa 0,0 l/m² 8,0 km/h (2 Bft) S-SO 159 ° 0 min 0 W/m² 1,8 °C 2,1 °C 12,9 km/h (3 Bft)
07.12.2024 06:31 21,6 °C 3,6 °C 53 % 88 % 1010,1 hPa 0,0 l/m² 6,3 km/h (2 Bft) S-SO 157 ° 0 min 0 W/m² 1,8 °C 3,6 °C 9,7 km/h (2 Bft)
07.12.2024 06:32 21,6 °C 3,6 °C 53 % 88 % 1010,1 hPa 0,0 l/m² 4,7 km/h (1 Bft) S-SO 158 ° 0 min 0 W/m² 1,8 °C 3,6 °C 9,7 km/h (2 Bft)
07.12.2024 06:33 21,6 °C 3,6 °C 53 % 88 % 1010,1 hPa 0,0 l/m² 6,0 km/h (2 Bft) S-SO 158 ° 0 min 0 W/m² 1,8 °C 3,6 °C 8,0 km/h (2 Bft)
07.12.2024 06:35 21,7 °C 3,6 °C 53 % 88 % 1010,0 hPa 0,0 l/m² 3,5 km/h (1 Bft) S-SO 159 ° 0 min 0 W/m² 1,8 °C 3,6 °C 8,0 km/h (2 Bft)
07.12.2024 06:37 21,6 °C 3,6 °C 53 % 88 % 1010,0 hPa 0,0 l/m² 2,5 km/h (1 Bft) S-SO 157 ° 0 min 0 W/m² 1,8 °C 3,6 °C 6,4 km/h (2 Bft)
07.12.2024 06:39 21,6 °C 3,6 °C 53 % 88 % 1009,9 hPa 0,0 l/m² 2,8 km/h (1 Bft) S-SO 155 ° 0 min 0 W/m² 1,8 °C 3,6 °C 4,8 km/h (1 Bft)
07.12.2024 06:41 21,6 °C 3,6 °C 53 % 88 % 1010,0 hPa 0,0 l/m² 4,1 km/h (1 Bft) SO 143 ° 0 min 0 W/m² 1,8 °C 3,6 °C 6,4 km/h (2 Bft)
07.12.2024 06:42 21,6 °C 3,6 °C 53 % 88 % 1010,0 hPa 0,0 l/m² 4,1 km/h (1 Bft) SO 142 ° 0 min 0 W/m² 1,8 °C 3,6 °C 6,4 km/h (2 Bft)
07.12.2024 06:43 21,6 °C 3,5 °C 53 % 88 % 1010,0 hPa 0,0 l/m² 4,7 km/h (1 Bft) SO 139 ° 0 min 0 W/m² 1,7 °C 3,5 °C 11,3 km/h (2 Bft)
07.12.2024 06:44 21,7 °C 3,5 °C 53 % 88 % 1010,0 hPa 0,0 l/m² 4,6 km/h (1 Bft) SO 140 ° 0 min 0 W/m² 1,7 °C 3,5 °C 6,4 km/h (2 Bft)
07.12.2024 06:46 21,6 °C 3,5 °C 53 % 87 % 1009,9 hPa 0,0 l/m² 4,3 km/h (1 Bft) SO 139 ° 0 min 0 W/m² 1,5 °C 3,5 °C 6,4 km/h (2 Bft)
07.12.2024 06:47 21,7 °C 3,5 °C 53 % 87 % 1009,9 hPa 0,0 l/m² 3,5 km/h (1 Bft) SO 139 ° 0 min 0 W/m² 1,5 °C 3,5 °C 4,8 km/h (1 Bft)
07.12.2024 06:48 21,7 °C 3,4 °C 53 % 87 % 1009,9 hPa 0,0 l/m² 4,0 km/h (1 Bft) SO 138 ° 0 min 0 W/m² 1,4 °C 3,4 °C 6,4 km/h (2 Bft)
07.12.2024 06:50 21,6 °C 3,4 °C 53 % 87 % 1009,9 hPa 0,0 l/m² 3,6 km/h (1 Bft) SO 138 ° 0 min 0 W/m² 1,4 °C 3,4 °C 6,4 km/h (2 Bft)
07.12.2024 06:51 21,7 °C 3,4 °C 53 % 87 % 1009,9 hPa 0,0 l/m² 2,1 km/h (1 Bft) SO 138 ° 0 min 0 W/m² 1,4 °C 3,4 °C 4,8 km/h (1 Bft)
07.12.2024 06:52 21,7 °C 3,4 °C 53 % 87 % 1009,9 hPa 0,0 l/m² 1,4 km/h (1 Bft) SO 138 ° 0 min 0 W/m² 1,4 °C 3,4 °C 4,8 km/h (1 Bft)
07.12.2024 06:53 21,6 °C 3,4 °C 53 % 87 % 1009,9 hPa 0,0 l/m² 3,4 km/h (1 Bft) SO 138 ° 0 min 0 W/m² 1,4 °C 3,4 °C 4,8 km/h (1 Bft)
07.12.2024 06:55 21,7 °C 3,4 °C 53 % 87 % 1009,8 hPa 0,0 l/m² 4,6 km/h (1 Bft) SO 128 ° 0 min 0 W/m² 1,4 °C 3,4 °C 11,3 km/h (2 Bft)
07.12.2024 06:57 21,6 °C 3,4 °C 53 % 87 % 1009,9 hPa 0,0 l/m² 4,8 km/h (1 Bft) SO 129 ° 0 min 0 W/m² 1,4 °C 3,4 °C 8,0 km/h (2 Bft)
07.12.2024 06:59 21,6 °C 3,3 °C 53 % 87 % 1009,8 hPa 0,0 l/m² 3,9 km/h (1 Bft) SO 139 ° 0 min 0 W/m² 1,3 °C 3,3 °C 6,4 km/h (2 Bft)
07.12.2024 07:01 21,6 °C 3,3 °C 53 % 87 % 1009,8 hPa 0,0 l/m² 3,4 km/h (1 Bft) SO 138 ° 0 min 0 W/m² 1,3 °C 3,3 °C 4,8 km/h (1 Bft)
07.12.2024 07:02 21,7 °C 3,3 °C 53 % 87 % 1009,8 hPa 0,0 l/m² 1,9 km/h (1 Bft) SO 138 ° 0 min 0 W/m² 1,3 °C 3,3 °C 4,8 km/h (1 Bft)
07.12.2024 07:03 21,7 °C 3,3 °C 53 % 87 % 1009,8 hPa 0,0 l/m² 2,7 km/h (1 Bft) SO 138 ° 0 min 0 W/m² 1,3 °C 3,3 °C 4,8 km/h (1 Bft)
07.12.2024 07:04 21,7 °C 3,3 °C 53 % 87 % 1009,7 hPa 0,0 l/m² 3,6 km/h (1 Bft) SO 138 ° 0 min 0 W/m² 1,3 °C 3,3 °C 4,8 km/h (1 Bft)
07.12.2024 07:06 21,6 °C 3,3 °C 53 % 87 % 1009,7 hPa 0,0 l/m² 3,4 km/h (1 Bft) S-SO 150 ° 0 min 0 W/m² 1,3 °C 3,3 °C 6,4 km/h (2 Bft)
07.12.2024 07:08 21,7 °C 3,3 °C 53 % 87 % 1009,7 hPa 0,0 l/m² 4,7 km/h (1 Bft) SO 142 ° 0 min 0 W/m² 1,3 °C 3,3 °C 6,4 km/h (2 Bft)
07.12.2024 07:10 21,7 °C 3,3 °C 53 % 87 % 1009,7 hPa 0,0 l/m² 5,8 km/h (2 Bft) SO 138 ° 0 min 0 W/m² 1,3 °C 3,3 °C 11,3 km/h (2 Bft)
07.12.2024 07:11 21,7 °C 3,3 °C 53 % 87 % 1009,7 hPa 0,0 l/m² 7,4 km/h (2 Bft) S-SO 148 ° 0 min 0 W/m² 1,3 °C 2,4 °C 12,9 km/h (3 Bft)
07.12.2024 07:12 21,7 °C 3,3 °C 53 % 87 % 1009,7 hPa 0,0 l/m² 6,6 km/h (2 Bft) SO 146 ° 0 min 0 W/m² 1,3 °C 3,1 °C 8,0 km/h (2 Bft)
07.12.2024 07:13 21,7 °C 3,3 °C 53 % 87 % 1009,7 hPa 0,0 l/m² 5,9 km/h (2 Bft) SO 143 ° 0 min 0 W/m² 1,3 °C 3,3 °C 8,0 km/h (2 Bft)
07.12.2024 07:14 21,7 °C 3,3 °C 53 % 87 % 1009,7 hPa 0,0 l/m² 6,2 km/h (2 Bft) SO 139 ° 0 min 0 W/m² 1,3 °C 3,3 °C 8,0 km/h (2 Bft)
07.12.2024 07:16 21,7 °C 3,2 °C 53 % 87 % 1009,7 hPa 0,0 l/m² 6,9 km/h (2 Bft) SO 142 ° 0 min 0 W/m² 1,2 °C 2,7 °C 11,3 km/h (2 Bft)
07.12.2024 07:18 21,7 °C 3,2 °C 53 % 87 % 1009,7 hPa 0,0 l/m² 6,3 km/h (2 Bft) SO 141 ° 0 min 0 W/m² 1,2 °C 3,2 °C 8,0 km/h (2 Bft)
07.12.2024 07:20 21,7 °C 3,2 °C 53 % 87 % 1009,7 hPa 0,0 l/m² 6,4 km/h (2 Bft) SO 142 ° 0 min 0 W/m² 1,2 °C 3,2 °C 11,3 km/h (2 Bft)
07.12.2024 07:21 21,6 °C 3,2 °C 53 % 87 % 1009,6 hPa 0,0 l/m² 5,3 km/h (1 Bft) SO 140 ° 0 min 0 W/m² 1,2 °C 3,2 °C 6,4 km/h (2 Bft)
07.12.2024 07:22 21,7 °C 3,2 °C 53 % 87 % 1009,6 hPa 0,0 l/m² 5,6 km/h (2 Bft) SO 145 ° 0 min 0 W/m² 1,2 °C 3,2 °C 8,0 km/h (2 Bft)
07.12.2024 07:23 21,7 °C 3,2 °C 53 % 87 % 1009,7 hPa 0,0 l/m² 5,1 km/h (1 Bft) SO 146 ° 0 min 0 W/m² 1,2 °C 3,2 °C 6,4 km/h (2 Bft)
07.12.2024 07:25 21,6 °C 3,2 °C 53 % 87 % 1009,7 hPa 0,0 l/m² 4,2 km/h (1 Bft) SO 146 ° 0 min 0 W/m² 1,2 °C 3,2 °C 8,0 km/h (2 Bft)
07.12.2024 07:27 21,7 °C 3,2 °C 53 % 87 % 1009,7 hPa 0,0 l/m² 2,8 km/h (1 Bft) SO 145 ° 0 min 0 W/m² 1,2 °C 3,2 °C 4,8 km/h (1 Bft)
07.12.2024 07:29 21,7 °C 3,1 °C 53 % 87 % 1009,7 hPa 0,0 l/m² 2,1 km/h (1 Bft) SO 144 ° 0 min 0 W/m² 1,2 °C 3,1 °C 4,8 km/h (1 Bft)
07.12.2024 07:31 21,6 °C 3,1 °C 53 % 87 % 1009,5 hPa 0,0 l/m² 3,7 km/h (1 Bft) SO 124 ° 0 min 0 W/m² 1,2 °C 3,1 °C 8,0 km/h (2 Bft)
07.12.2024 07:32 21,6 °C 3,1 °C 53 % 87 % 1009,4 hPa 0,0 l/m² 4,3 km/h (1 Bft) O-SO 117 ° 0 min 0 W/m² 1,2 °C 3,1 °C 8,0 km/h (2 Bft)
07.12.2024 07:33 21,6 °C 3,1 °C 53 % 87 % 1009,5 hPa 0,0 l/m² 3,8 km/h (1 Bft) O-SO 117 ° 0 min 0 W/m² 1,2 °C 3,1 °C 6,4 km/h (2 Bft)
07.12.2024 07:34 21,6 °C 3,1 °C 53 % 87 % 1009,5 hPa 0,0 l/m² 4,4 km/h (1 Bft) SO 134 ° 0 min 0 W/m² 1,2 °C 3,1 °C 8,0 km/h (2 Bft)
07.12.2024 07:36 21,7 °C 3,1 °C 53 % 87 % 1009,4 hPa 0,0 l/m² 6,1 km/h (2 Bft) SO 126 ° 0 min 0 W/m² 1,2 °C 3,1 °C 11,3 km/h (2 Bft)
07.12.2024 07:38 21,6 °C 3,1 °C 53 % 87 % 1009,4 hPa 0,0 l/m² 8,1 km/h (2 Bft) SO 137 ° 0 min 0 W/m² 1,2 °C 1,5 °C 12,9 km/h (3 Bft)
07.12.2024 07:40 21,6 °C 3,0 °C 53 % 87 % 1009,4 hPa 0,0 l/m² 7,3 km/h (2 Bft) SO 144 ° 0 min 0 W/m² 1,1 °C 2,1 °C 12,9 km/h (3 Bft)
07.12.2024 07:41 21,7 °C 3,1 °C 53 % 87 % 1009,4 hPa 0,0 l/m² 7,1 km/h (2 Bft) SO 125 ° 0 min 0 W/m² 1,2 °C 2,4 °C 11,3 km/h (2 Bft)
07.12.2024 07:42 21,7 °C 3,0 °C 53 % 87 % 1009,3 hPa 0,0 l/m² 10,2 km/h (2 Bft) SO 140 ° 0 min 0 W/m² 1,1 °C -0,3 °C 16,1 km/h (3 Bft)
07.12.2024 07:43 21,7 °C 2,9 °C 53 % 87 % 1009,3 hPa 0,0 l/m² 6,7 km/h (2 Bft) SO 133 ° 0 min 0 W/m² 1,0 °C 2,6 °C 11,3 km/h (2 Bft)
07.12.2024 07:45 21,7 °C 3,0 °C 53 % 87 % 1009,2 hPa 0,0 l/m² 9,6 km/h (2 Bft) SO 142 ° 0 min 0 W/m² 1,1 °C 0,2 °C 14,5 km/h (3 Bft)
07.12.2024 07:47 21,7 °C 3,0 °C 53 % 87 % 1009,2 hPa 0,0 l/m² 10,6 km/h (2 Bft) SO 137 ° 0 min 0 W/m² 1,1 °C -0,6 °C 14,5 km/h (3 Bft)
07.12.2024 07:49 21,7 °C 3,0 °C 53 % 87 % 1009,2 hPa 0,0 l/m² 9,4 km/h (2 Bft) SO 146 ° 0 min 0 W/m² 1,1 °C 0,3 °C 12,9 km/h (3 Bft)
07.12.2024 07:51 21,6 °C 2,9 °C 53 % 87 % 1009,2 hPa 0,0 l/m² 7,3 km/h (2 Bft) SO 133 ° 0 min 5 W/m² 1,0 °C 2,0 °C 11,3 km/h (2 Bft)
07.12.2024 07:52 21,6 °C 2,9 °C 53 % 88 % 1009,1 hPa 0,0 l/m² 7,5 km/h (2 Bft) SO 138 ° 0 min 7 W/m² 1,1 °C 1,9 °C 11,3 km/h (2 Bft)
07.12.2024 07:53 21,6 °C 3,0 °C 53 % 88 % 1009,1 hPa 0,0 l/m² 9,7 km/h (2 Bft) SO 140 ° 0 min 9 W/m² 1,2 °C 0,1 °C 14,5 km/h (3 Bft)
07.12.2024 07:54 21,6 °C 3,0 °C 53 % 88 % 1009,0 hPa 0,0 l/m² 7,2 km/h (2 Bft) SO 133 ° 0 min 9 W/m² 1,2 °C 2,2 °C 12,9 km/h (3 Bft)
07.12.2024 07:56 21,6 °C 3,0 °C 53 % 88 % 1008,9 hPa 0,0 l/m² 6,5 km/h (2 Bft) SO 132 ° 0 min 11 W/m² 1,2 °C 2,9 °C 12,9 km/h (3 Bft)
07.12.2024 07:58 21,6 °C 3,1 °C 53 % 87 % 1008,8 hPa 0,0 l/m² 5,1 km/h (1 Bft) SO 129 ° 0 min 11 W/m² 1,2 °C 3,1 °C 8,0 km/h (2 Bft)
07.12.2024 08:00 21,6 °C 3,1 °C 53 % 87 % 1008,7 hPa 0,0 l/m² 5,1 km/h (1 Bft) SO 128 ° 0 min 12 W/m² 1,2 °C 3,1 °C 8,0 km/h (2 Bft)
07.12.2024 08:01 21,6 °C 3,1 °C 53 % 87 % 1008,5 hPa 0,0 l/m² 5,2 km/h (1 Bft) SO 125 ° 0 min 12 W/m² 1,2 °C 3,1 °C 8,0 km/h (2 Bft)
07.12.2024 08:02 21,6 °C 3,0 °C 53 % 87 % 1008,5 hPa 0,0 l/m² 7,3 km/h (2 Bft) SO 136 ° 0 min 12 W/m² 1,1 °C 2,1 °C 12,9 km/h (3 Bft)
07.12.2024 08:03 21,6 °C 3,0 °C 53 % 88 % 1008,5 hPa 0,0 l/m² 6,8 km/h (2 Bft) SO 131 ° 0 min 11 W/m² 1,2 °C 2,6 °C 11,3 km/h (2 Bft)
07.12.2024 08:05 21,6 °C 3,0 °C 53 % 88 % 1008,5 hPa 0,0 l/m² 5,7 km/h (2 Bft) SO 125 ° 0 min 9 W/m² 1,2 °C 3,0 °C 11,3 km/h (2 Bft)
07.12.2024 08:07 21,6 °C 3,1 °C 53 % 87 % 1008,4 hPa 0,0 l/m² 5,8 km/h (2 Bft) SO 124 ° 0 min 7 W/m² 1,2 °C 3,1 °C 11,3 km/h (2 Bft)
07.12.2024 08:09 21,6 °C 3,1 °C 53 % 88 % 1008,4 hPa 0,0 l/m² 8,5 km/h (2 Bft) SO 128 ° 0 min 7 W/m² 1,3 °C 1,2 °C 14,5 km/h (3 Bft)
07.12.2024 08:11 21,6 °C 3,1 °C 53 % 87 % 1008,4 hPa 0,0 l/m² 6,4 km/h (2 Bft) O-SO 114 ° 0 min 7 W/m² 1,2 °C 3,1 °C 11,3 km/h (2 Bft)
07.12.2024 08:12 21,6 °C 3,1 °C 53 % 87 % 1008,3 hPa 0,0 l/m² 9,2 km/h (2 Bft) O-SO 109 ° 0 min 9 W/m² 1,2 °C 0,6 °C 14,5 km/h (3 Bft)
07.12.2024 08:13 21,6 °C 3,1 °C 53 % 87 % 1008,3 hPa 0,0 l/m² 8,9 km/h (2 Bft) O-SO 107 ° 0 min 9 W/m² 1,2 °C 0,8 °C 9,7 km/h (2 Bft)
07.12.2024 08:14 21,6 °C 3,1 °C 53 % 87 % 1008,3 hPa 0,0 l/m² 7,9 km/h (2 Bft) O-SO 107 ° 0 min 9 W/m² 1,2 °C 1,7 °C 11,3 km/h (2 Bft)
07.12.2024 08:16 21,6 °C 3,1 °C 53 % 87 % 1008,2 hPa 0,0 l/m² 9,2 km/h (2 Bft) O 101 ° 0 min 11 W/m² 1,2 °C 0,6 °C 12,9 km/h (3 Bft)
07.12.2024 08:18 21,6 °C 3,1 °C 53 % 87 % 1008,1 hPa 0,0 l/m² 9,4 km/h (2 Bft) O-SO 120 ° 0 min 11 W/m² 1,2 °C 0,4 °C 12,9 km/h (3 Bft)
07.12.2024 08:20 21,6 °C 3,0 °C 53 % 88 % 1008,1 hPa 0,0 l/m² 7,0 km/h (2 Bft) O-SO 114 ° 0 min 11 W/m² 1,2 °C 2,4 °C 9,7 km/h (2 Bft)
07.12.2024 08:21 21,6 °C 3,0 °C 53 % 88 % 1008,0 hPa 0,0 l/m² 8,4 km/h (2 Bft) O-SO 114 ° 0 min 11 W/m² 1,2 °C 1,2 °C 12,9 km/h (3 Bft)
07.12.2024 08:22 21,6 °C 3,1 °C 53 % 88 % 1008,0 hPa 0,0 l/m² 8,9 km/h (2 Bft) O-SO 112 ° 0 min 11 W/m² 1,3 °C 0,8 °C 12,9 km/h (3 Bft)
07.12.2024 08:23 21,6 °C 3,0 °C 53 % 88 % 1008,0 hPa 0,0 l/m² 7,5 km/h (2 Bft) SO 125 ° 0 min 11 W/m² 1,2 °C 2,0 °C 12,9 km/h (3 Bft)
07.12.2024 08:25 21,6 °C 3,0 °C 53 % 88 % 1008,1 hPa 0,0 l/m² 11,0 km/h (2 Bft) SO 126 ° 0 min 12 W/m² 1,2 °C -0,9 °C 16,1 km/h (3 Bft)
07.12.2024 08:27 21,6 °C 3,0 °C 53 % 88 % 1007,9 hPa 0,0 l/m² 10,7 km/h (2 Bft) SO 126 ° 0 min 14 W/m² 1,2 °C -0,7 °C 17,7 km/h (3 Bft)
07.12.2024 08:29 21,6 °C 3,0 °C 53 % 88 % 1008,0 hPa 0,0 l/m² 11,7 km/h (2 Bft) SO 128 ° 0 min 16 W/m² 1,2 °C -1,3 °C 16,1 km/h (3 Bft)
07.12.2024 08:30 21,6 °C 3,1 °C 53 % 88 % 1007,9 hPa 0,0 l/m² 12,1 km/h (2 Bft) SO 135 ° 0 min 16 W/m² 1,3 °C -1,5 °C 16,1 km/h (3 Bft)
07.12.2024 08:31 21,6 °C 3,1 °C 53 % 88 % 1007,9 hPa 0,0 l/m² 12,8 km/h (3 Bft) O-SO 121 ° 0 min 18 W/m² 1,3 °C -1,9 °C 17,7 km/h (3 Bft)
07.12.2024 08:32 21,6 °C 3,1 °C 53 % 88 % 1007,9 hPa 0,0 l/m² 11,5 km/h (2 Bft) O-SO 116 ° 0 min 18 W/m² 1,3 °C -1,1 °C 14,5 km/h (3 Bft)
07.12.2024 08:34 21,6 °C 3,1 °C 53 % 88 % 1008,0 hPa 0,0 l/m² 11,8 km/h (2 Bft) S-SO 148 ° 0 min 18 W/m² 1,3 °C -1,3 °C 17,7 km/h (3 Bft)
07.12.2024 08:36 21,7 °C 3,2 °C 53 % 88 % 1007,8 hPa 0,0 l/m² 11,8 km/h (2 Bft) O-SO 118 ° 0 min 18 W/m² 1,4 °C -1,2 °C 16,1 km/h (3 Bft)
07.12.2024 08:38 21,6 °C 3,2 °C 53 % 88 % 1007,8 hPa 0,0 l/m² 13,4 km/h (3 Bft) SO 124 ° 0 min 19 W/m² 1,4 °C -2,2 °C 19,3 km/h (3 Bft)
07.12.2024 08:40 21,7 °C 3,3 °C 54 % 88 % 1007,7 hPa 0,0 l/m² 13,4 km/h (3 Bft) O-SO 119 ° 0 min 19 W/m² 1,5 °C -2,1 °C 16,1 km/h (3 Bft)
07.12.2024 08:41 21,7 °C 3,3 °C 54 % 88 % 1007,7 hPa 0,0 l/m² 11,9 km/h (2 Bft) O-SO 114 ° 0 min 19 W/m² 1,5 °C -1,1 °C 16,1 km/h (3 Bft)
07.12.2024 08:42 21,7 °C 3,3 °C 54 % 88 % 1007,6 hPa 0,0 l/m² 12,7 km/h (3 Bft) O-SO 118 ° 0 min 19 W/m² 1,5 °C -1,6 °C 19,3 km/h (3 Bft)
07.12.2024 08:43 21,7 °C 3,3 °C 54 % 88 % 1007,6 hPa 0,0 l/m² 16,2 km/h (3 Bft) SO 128 ° 0 min 19 W/m² 1,5 °C -3,6 °C 20,9 km/h (4 Bft)
07.12.2024 08:44 21,7 °C 3,3 °C 54 % 88 % 1007,6 hPa 0,0 l/m² 14,5 km/h (3 Bft) SO 135 ° 0 min 19 W/m² 1,5 °C -2,7 °C 17,7 km/h (3 Bft)
07.12.2024 08:46 21,7 °C 3,3 °C 54 % 88 % 1007,6 hPa 0,0 l/m² 14,3 km/h (3 Bft) SO 130 ° 0 min 19 W/m² 1,5 °C -2,6 °C 17,7 km/h (3 Bft)
07.12.2024 08:48 21,7 °C 3,4 °C 54 % 88 % 1007,5 hPa 0,0 l/m² 13,3 km/h (3 Bft) O-SO 119 ° 0 min 19 W/m² 1,6 °C -1,9 °C 20,9 km/h (4 Bft)
07.12.2024 08:50 21,7 °C 3,4 °C 54 % 88 % 1007,4 hPa 0,0 l/m² 15,0 km/h (3 Bft) SO 126 ° 0 min 19 W/m² 1,6 °C -2,9 °C 17,7 km/h (3 Bft)
07.12.2024 08:51 21,7 °C 3,4 °C 54 % 88 % 1007,3 hPa 0,0 l/m² 14,1 km/h (3 Bft) SO 138 ° 0 min 19 W/m² 1,6 °C -2,4 °C 17,7 km/h (3 Bft)
07.12.2024 08:52 21,7 °C 3,4 °C 54 % 88 % 1007,3 hPa 0,0 l/m² 13,2 km/h (3 Bft) O-SO 123 ° 0 min 19 W/m² 1,6 °C -1,8 °C 16,1 km/h (3 Bft)
07.12.2024 08:53 21,7 °C 3,5 °C 54 % 88 % 1007,3 hPa 0,0 l/m² 17,2 km/h (3 Bft) O-SO 123 ° 0 min 19 W/m² 1,7 °C -3,9 °C 24,1 km/h (4 Bft)
07.12.2024 08:55 21,7 °C 3,5 °C 54 % 88 % 1007,2 hPa 0,0 l/m² 13,6 km/h (3 Bft) SO 125 ° 0 min 19 W/m² 1,7 °C -2,0 °C 17,7 km/h (3 Bft)
07.12.2024 08:57 21,7 °C 3,6 °C 54 % 88 % 1007,1 hPa 0,0 l/m² 14,9 km/h (3 Bft) SO 130 ° 0 min 21 W/m² 1,8 °C -2,6 °C 19,3 km/h (3 Bft)
07.12.2024 08:59 21,7 °C 3,6 °C 54 % 88 % 1007,1 hPa 0,0 l/m² 14,6 km/h (3 Bft) O-SO 121 ° 0 min 23 W/m² 1,8 °C -2,4 °C 19,3 km/h (3 Bft)
07.12.2024 09:00 21,7 °C 3,6 °C 54 % 87 % 1007,1 hPa 0,0 l/m² 17,8 km/h (3 Bft) O-SO 117 ° 0 min 23 W/m² 1,6 °C -4,0 °C 19,3 km/h (3 Bft)
07.12.2024 09:02 21,7 °C 3,7 °C 54 % 88 % 1007,0 hPa 0,0 l/m² 15,5 km/h (3 Bft) SO 126 ° 0 min 26 W/m² 1,9 °C -2,8 °C 22,5 km/h (4 Bft)
07.12.2024 09:04 21,7 °C 3,7 °C 54 % 87 % 1006,9 hPa 0,0 l/m² 14,7 km/h (3 Bft) O-SO 113 ° 0 min 26 W/m² 1,7 °C -2,3 °C 17,7 km/h (3 Bft)
07.12.2024 09:06 21,8 °C 3,7 °C 54 % 87 % 1006,9 hPa 0,0 l/m² 14,8 km/h (3 Bft) O-SO 112 ° 0 min 28 W/m² 1,7 °C -2,4 °C 19,3 km/h (3 Bft)
07.12.2024 09:08 21,7 °C 3,7 °C 54 % 87 % 1006,8 hPa 0,0 l/m² 15,4 km/h (3 Bft) SO 143 ° 0 min 28 W/m² 1,7 °C -2,7 °C 20,9 km/h (4 Bft)
07.12.2024 09:10 21,8 °C 3,7 °C 54 % 87 % 1006,7 hPa 0,0 l/m² 13,5 km/h (3 Bft) O-SO 117 ° 0 min 28 W/m² 1,7 °C -1,7 °C 17,7 km/h (3 Bft)
07.12.2024 09:11 21,8 °C 3,8 °C 54 % 87 % 1006,8 hPa 0,0 l/m² 13,7 km/h (3 Bft) SO 136 ° 0 min 30 W/m² 1,8 °C -1,7 °C 17,7 km/h (3 Bft)
07.12.2024 09:13 21,8 °C 3,8 °C 54 % 87 % 1006,9 hPa 0,0 l/m² 13,7 km/h (3 Bft) O-SO 121 ° 0 min 30 W/m² 1,8 °C -1,7 °C 17,7 km/h (3 Bft)
07.12.2024 09:15 21,8 °C 3,8 °C 54 % 87 % 1006,8 hPa 0,0 l/m² 14,6 km/h (3 Bft) SO 132 ° 0 min 32 W/m² 1,8 °C -2,2 °C 20,9 km/h (4 Bft)
07.12.2024 09:17 21,8 °C 3,8 °C 54 % 87 % 1006,8 hPa 0,0 l/m² 16,2 km/h (3 Bft) S-SO 150 ° 0 min 32 W/m² 1,8 °C -3,0 °C 22,5 km/h (4 Bft)
07.12.2024 09:19 21,8 °C 3,8 °C 54 % 87 % 1006,7 hPa 0,0 l/m² 14,6 km/h (3 Bft) SO 136 ° 0 min 33 W/m² 1,8 °C -2,2 °C 19,3 km/h (3 Bft)
07.12.2024 09:20 21,8 °C 3,8 °C 54 % 87 % 1006,7 hPa 0,0 l/m² 15,7 km/h (3 Bft) O-SO 123 ° 0 min 35 W/m² 1,8 °C -2,7 °C 24,1 km/h (4 Bft)
07.12.2024 09:22 21,8 °C 3,8 °C 54 % 87 % 1006,7 hPa 0,0 l/m² 16,5 km/h (3 Bft) O-SO 121 ° 0 min 35 W/m² 1,8 °C -3,1 °C 22,5 km/h (4 Bft)
07.12.2024 09:24 21,8 °C 3,9 °C 54 % 87 % 1006,7 hPa 0,0 l/m² 15,4 km/h (3 Bft) SO 128 ° 0 min 37 W/m² 1,9 °C -2,5 °C 20,9 km/h (4 Bft)
07.12.2024 09:26 21,8 °C 3,9 °C 54 % 87 % 1006,7 hPa 0,0 l/m² 14,7 km/h (3 Bft) O-SO 122 ° 0 min 40 W/m² 1,9 °C -2,1 °C 19,3 km/h (3 Bft)
07.12.2024 09:28 21,8 °C 4,0 °C 54 % 86 % 1006,6 hPa 0,0 l/m² 15,6 km/h (3 Bft) SO 134 ° 0 min 42 W/m² 1,9 °C -2,4 °C 22,5 km/h (4 Bft)
07.12.2024 09:30 21,8 °C 4,1 °C 54 % 87 % 1006,5 hPa 0,0 l/m² 17,0 km/h (3 Bft) O-SO 121 ° 0 min 44 W/m² 2,1 °C -3,0 °C 19,3 km/h (3 Bft)
07.12.2024 09:31 21,8 °C 4,1 °C 54 % 87 % 1006,4 hPa 0,0 l/m² 15,7 km/h (3 Bft) SO 124 ° 0 min 46 W/m² 2,1 °C -2,4 °C 19,3 km/h (3 Bft)
07.12.2024 09:33 21,8 °C 4,1 °C 54 % 86 % 1006,4 hPa 0,0 l/m² 15,3 km/h (3 Bft) SO 130 ° 0 min 47 W/m² 2,0 °C -2,2 °C 19,3 km/h (3 Bft)
07.12.2024 09:35 21,8 °C 4,1 °C 54 % 86 % 1006,5 hPa 0,0 l/m² 14,9 km/h (3 Bft) O-SO 122 ° 0 min 49 W/m² 2,0 °C -2,0 °C 20,9 km/h (4 Bft)
07.12.2024 09:37 21,8 °C 4,1 °C 54 % 86 % 1006,4 hPa 0,0 l/m² 14,1 km/h (3 Bft) O-SO 120 ° 0 min 51 W/m² 2,0 °C -1,5 °C 20,9 km/h (4 Bft)
07.12.2024 09:39 21,8 °C 4,1 °C 54 % 86 % 1006,3 hPa 0,0 l/m² 16,3 km/h (3 Bft) SO 130 ° 2 min 53 W/m² 2,0 °C -2,7 °C 19,3 km/h (3 Bft)
07.12.2024 09:40 21,8 °C 4,1 °C 54 % 86 % 1006,3 hPa 0,0 l/m² 12,1 km/h (2 Bft) S-SO 154 ° 1 min 53 W/m² 2,0 °C -0,3 °C 14,5 km/h (3 Bft)
07.12.2024 09:41 21,8 °C 4,1 °C 54 % 86 % 1006,3 hPa 0,0 l/m² 17,2 km/h (3 Bft) SO 134 ° 1 min 53 W/m² 2,0 °C -3,1 °C 20,9 km/h (4 Bft)
07.12.2024 09:42 21,8 °C 4,1 °C 54 % 86 % 1006,3 hPa 0,0 l/m² 17,9 km/h (3 Bft) O-SO 120 ° 1 min 53 W/m² 2,0 °C -3,4 °C 22,5 km/h (4 Bft)
07.12.2024 09:44 21,8 °C 4,1 °C 54 % 86 % 1006,3 hPa 0,0 l/m² 16,3 km/h (3 Bft) SO 127 ° 0 min 51 W/m² 2,0 °C -2,7 °C 22,5 km/h (4 Bft)
07.12.2024 09:45 21,8 °C 4,1 °C 54 % 86 % 1006,1 hPa 0,0 l/m² 17,7 km/h (3 Bft) O-SO 119 ° 0 min 51 W/m² 2,0 °C -3,3 °C 22,5 km/h (4 Bft)
07.12.2024 09:46 21,8 °C 4,1 °C 54 % 86 % 1006,2 hPa 0,0 l/m² 17,9 km/h (3 Bft) O-SO 122 ° 0 min 51 W/m² 2,0 °C -3,4 °C 22,5 km/h (4 Bft)
07.12.2024 09:47 21,8 °C 4,1 °C 54 % 86 % 1006,2 hPa 0,0 l/m² 14,6 km/h (3 Bft) SO 131 ° 0 min 49 W/m² 2,0 °C -1,8 °C 17,7 km/h (3 Bft)
07.12.2024 09:49 21,8 °C 4,1 °C 54 % 86 % 1006,1 hPa 0,0 l/m² 15,6 km/h (3 Bft) SO 126 ° 0 min 49 W/m² 2,0 °C -2,3 °C 20,9 km/h (4 Bft)
07.12.2024 09:51 21,8 °C 4,1 °C 54 % 86 % 1006,0 hPa 0,0 l/m² 12,9 km/h (3 Bft) SO 128 ° 0 min 51 W/m² 2,0 °C -0,8 °C 17,7 km/h (3 Bft)
07.12.2024 09:53 21,8 °C 4,1 °C 54 % 87 % 1006,0 hPa 0,0 l/m² 15,7 km/h (3 Bft) O-SO 122 ° 0 min 51 W/m² 2,1 °C -2,4 °C 22,5 km/h (4 Bft)
07.12.2024 09:55 21,9 °C 4,1 °C 54 % 87 % 1006,1 hPa 0,0 l/m² 15,5 km/h (3 Bft) SO 130 ° 0 min 46 W/m² 2,1 °C -2,3 °C 20,9 km/h (4 Bft)
07.12.2024 09:57 21,8 °C 4,1 °C 53 % 87 % 1006,0 hPa 0,0 l/m² 14,4 km/h (3 Bft) O-SO 123 ° 0 min 42 W/m² 2,1 °C -1,7 °C 19,3 km/h (3 Bft)
07.12.2024 09:59 21,8 °C 4,2 °C 53 % 87 % 1006,0 hPa 0,0 l/m² 13,2 km/h (3 Bft) O-SO 110 ° 0 min 40 W/m² 2,2 °C -0,9 °C 17,7 km/h (3 Bft)
07.12.2024 10:00 21,8 °C 4,1 °C 53 % 87 % 1005,9 hPa 0,0 l/m² 12,3 km/h (2 Bft) O-SO 123 ° 0 min 39 W/m² 2,1 °C -0,5 °C 16,1 km/h (3 Bft)
07.12.2024 10:01 21,8 °C 4,2 °C 53 % 87 % 1005,9 hPa 0,0 l/m² 14,7 km/h (3 Bft) O-SO 118 ° 0 min 39 W/m² 2,2 °C -1,7 °C 20,9 km/h (4 Bft)
07.12.2024 10:02 21,8 °C 4,2 °C 53 % 87 % 1005,9 hPa 0,0 l/m² 15,0 km/h (3 Bft) SO 127 ° 0 min 39 W/m² 2,2 °C -1,9 °C 19,3 km/h (3 Bft)
07.12.2024 10:03 21,8 °C 4,2 °C 53 % 87 % 1006,0 hPa 0,0 l/m² 16,6 km/h (3 Bft) SO 129 ° 0 min 39 W/m² 2,2 °C -2,7 °C 19,3 km/h (3 Bft)
07.12.2024 10:04 21,8 °C 4,2 °C 53 % 87 % 1005,9 hPa 0,0 l/m² 12,3 km/h (2 Bft) SO 127 ° 0 min 39 W/m² 2,2 °C -0,4 °C 17,7 km/h (3 Bft)
07.12.2024 10:05 21,8 °C 4,2 °C 52 % 87 % 1006,0 hPa 0,0 l/m² 13,8 km/h (3 Bft) O-SO 121 ° 0 min 39 W/m² 2,2 °C -1,2 °C 17,7 km/h (3 Bft)
07.12.2024 10:06 21,8 °C 4,2 °C 52 % 87 % 1005,9 hPa 0,0 l/m² 14,8 km/h (3 Bft) SO 128 ° 0 min 37 W/m² 2,2 °C -1,8 °C 20,9 km/h (4 Bft)
07.12.2024 10:07 21,8 °C 4,2 °C 52 % 87 % 1005,9 hPa 0,0 l/m² 18,1 km/h (3 Bft) SO 142 ° 0 min 35 W/m² 2,2 °C -3,4 °C 20,9 km/h (4 Bft)
07.12.2024 10:08 21,8 °C 4,2 °C 52 % 87 % 1005,9 hPa 0,0 l/m² 15,3 km/h (3 Bft) SO 140 ° 0 min 33 W/m² 2,2 °C -2,0 °C 19,3 km/h (3 Bft)
07.12.2024 10:09 21,8 °C 4,2 °C 51 % 87 % 1005,9 hPa 0,0 l/m² 13,2 km/h (3 Bft) SO 137 ° 0 min 33 W/m² 2,2 °C -0,9 °C 17,7 km/h (3 Bft)
07.12.2024 10:11 21,8 °C 4,2 °C 51 % 87 % 1005,9 hPa 0,0 l/m² 16,5 km/h (3 Bft) SO 138 ° 0 min 32 W/m² 2,2 °C -2,7 °C 25,7 km/h (4 Bft)
07.12.2024 10:13 21,8 °C 4,2 °C 51 % 87 % 1005,9 hPa 0,0 l/m² 15,2 km/h (3 Bft) O-SO 118 ° 0 min 30 W/m² 2,2 °C -2,0 °C 20,9 km/h (4 Bft)
07.12.2024 10:14 21,8 °C 4,2 °C 51 % 86 % 1005,8 hPa 0,0 l/m² 13,7 km/h (3 Bft) SO 131 ° 0 min 30 W/m² 2,1 °C -1,2 °C 19,3 km/h (3 Bft)
07.12.2024 10:15 21,8 °C 4,3 °C 51 % 87 % 1005,7 hPa 0,0 l/m² 19,4 km/h (3 Bft) SO 128 ° 0 min 30 W/m² 2,3 °C -3,8 °C 24,1 km/h (4 Bft)
07.12.2024 10:16 21,8 °C 4,2 °C 51 % 86 % 1005,7 hPa 0,0 l/m² 15,5 km/h (3 Bft) SO 136 ° 0 min 30 W/m² 2,1 °C -2,2 °C 17,7 km/h (3 Bft)
07.12.2024 10:17 21,8 °C 4,3 °C 51 % 86 % 1005,7 hPa 0,0 l/m² 17,6 km/h (3 Bft) SO 124 ° 0 min 30 W/m² 2,2 °C -3,0 °C 25,7 km/h (4 Bft)
07.12.2024 10:18 21,8 °C 4,3 °C 51 % 86 % 1005,7 hPa 0,0 l/m² 16,8 km/h (3 Bft) S-SO 147 ° 0 min 30 W/m² 2,2 °C -2,7 °C 22,5 km/h (4 Bft)
07.12.2024 10:19 21,8 °C 4,3 °C 51 % 86 % 1005,7 hPa 0,0 l/m² 14,6 km/h (3 Bft) S-SO 160 ° 0 min 30 W/m² 2,2 °C -1,6 °C 17,7 km/h (3 Bft)
07.12.2024 10:21 21,8 °C 4,3 °C 51 % 86 % 1005,7 hPa 0,0 l/m² 18,5 km/h (3 Bft) SO 146 ° 0 min 30 W/m² 2,2 °C -3,4 °C 25,7 km/h (4 Bft)
07.12.2024 10:23 21,8 °C 4,4 °C 51 % 86 % 1005,7 hPa 0,0 l/m² 19,2 km/h (3 Bft) SO 133 ° 0 min 32 W/m² 2,3 °C -3,6 °C 27,4 km/h (5 Bft)
07.12.2024 10:24 21,8 °C 4,4 °C 51 % 86 % 1005,6 hPa 0,0 l/m² 15,5 km/h (3 Bft) SO 139 ° 0 min 32 W/m² 2,3 °C -1,9 °C 20,9 km/h (4 Bft)
07.12.2024 10:25 21,8 °C 4,4 °C 51 % 86 % 1005,6 hPa 0,0 l/m² 16,4 km/h (3 Bft) S-SO 148 ° 0 min 33 W/m² 2,3 °C -2,4 °C 20,9 km/h (4 Bft)
07.12.2024 10:26 21,8 °C 4,4 °C 51 % 86 % 1005,6 hPa 0,0 l/m² 12,3 km/h (2 Bft) SO 138 ° 0 min 33 W/m² 2,3 °C -0,1 °C 16,1 km/h (3 Bft)
07.12.2024 10:27 21,8 °C 4,4 °C 51 % 86 % 1005,6 hPa 0,0 l/m² 14,1 km/h (3 Bft) SO 126 ° 0 min 33 W/m² 2,3 °C -1,2 °C 19,3 km/h (3 Bft)
07.12.2024 10:28 21,7 °C 4,4 °C 51 % 86 % 1005,5 hPa 0,0 l/m² 19,1 km/h (3 Bft) SO 128 ° 0 min 35 W/m² 2,3 °C -3,6 °C 25,7 km/h (4 Bft)
07.12.2024 10:29 21,7 °C 4,4 °C 51 % 86 % 1005,5 hPa 0,0 l/m² 16,4 km/h (3 Bft) SO 144 ° 0 min 35 W/m² 2,3 °C -2,4 °C 20,9 km/h (4 Bft)
07.12.2024 10:30 21,8 °C 4,4 °C 51 % 86 % 1005,4 hPa 0,0 l/m² 20,1 km/h (4 Bft) S-SO 147 ° 0 min 35 W/m² 2,3 °C -4,0 °C 24,1 km/h (4 Bft)
07.12.2024 10:32 21,7 °C 4,4 °C 51 % 86 % 1005,4 hPa 0,0 l/m² 17,8 km/h (3 Bft) SO 132 ° 0 min 37 W/m² 2,3 °C -3,0 °C 20,9 km/h (4 Bft)
07.12.2024 10:33 21,8 °C 4,5 °C 51 % 86 % 1005,3 hPa 0,0 l/m² 17,9 km/h (3 Bft) O-SO 121 ° 0 min 37 W/m² 2,4 °C -2,9 °C 22,5 km/h (4 Bft)
07.12.2024 10:34 21,8 °C 4,5 °C 51 % 86 % 1005,3 hPa 0,0 l/m² 18,8 km/h (3 Bft) S-SO 152 ° 0 min 37 W/m² 2,4 °C -3,3 °C 24,1 km/h (4 Bft)
07.12.2024 10:35 21,8 °C 4,5 °C 51 % 86 % 1005,3 hPa 0,0 l/m² 15,9 km/h (3 Bft) O-SO 123 ° 0 min 37 W/m² 2,4 °C -2,0 °C 20,9 km/h (4 Bft)
07.12.2024 10:36 21,8 °C 4,5 °C 51 % 86 % 1005,4 hPa 0,0 l/m² 15,9 km/h (3 Bft) SO 135 ° 0 min 39 W/m² 2,4 °C -2,0 °C 20,9 km/h (4 Bft)
07.12.2024 10:37 21,8 °C 4,5 °C 51 % 86 % 1005,3 hPa 0,0 l/m² 17,0 km/h (3 Bft) S-SO 147 ° 0 min 39 W/m² 2,4 °C -2,5 °C 19,3 km/h (3 Bft)
07.12.2024 10:38 21,7 °C 4,6 °C 51 % 86 % 1005,3 hPa 0,0 l/m² 10,2 km/h (2 Bft) SO 130 ° 0 min 40 W/m² 2,5 °C 1,5 °C 14,5 km/h (3 Bft)
07.12.2024 10:39 21,8 °C 4,6 °C 51 % 86 % 1005,3 hPa 0,0 l/m² 11,2 km/h (2 Bft) SO 141 ° 0 min 42 W/m² 2,5 °C 0,8 °C 14,5 km/h (3 Bft)
07.12.2024 10:40 21,8 °C 4,5 °C 51 % 86 % 1005,3 hPa 0,0 l/m² 14,0 km/h (3 Bft) SO 132 ° 0 min 42 W/m² 2,4 °C -1,0 °C 17,7 km/h (3 Bft)
07.12.2024 10:42 21,7 °C 4,6 °C 50 % 86 % 1005,2 hPa 0,0 l/m² 14,0 km/h (3 Bft) SO 137 ° 0 min 42 W/m² 2,5 °C -0,9 °C 20,9 km/h (4 Bft)
07.12.2024 10:43 21,7 °C 4,6 °C 50 % 86 % 1005,2 hPa 0,0 l/m² 11,7 km/h (2 Bft) S-SO 148 ° 0 min 40 W/m² 2,5 °C 0,5 °C 17,7 km/h (3 Bft)
07.12.2024 10:44 21,7 °C 4,6 °C 50 % 86 % 1005,2 hPa 0,0 l/m² 12,0 km/h (2 Bft) O-SO 118 ° 0 min 39 W/m² 2,5 °C 0,3 °C 14,5 km/h (3 Bft)
07.12.2024 10:45 21,8 °C 4,6 °C 50 % 86 % 1005,1 hPa 0,0 l/m² 10,1 km/h (2 Bft) SO 134 ° 0 min 37 W/m² 2,5 °C 1,6 °C 12,9 km/h (3 Bft)
07.12.2024 10:46 21,7 °C 4,6 °C 50 % 86 % 1005,1 hPa 0,0 l/m² 13,7 km/h (3 Bft) O-SO 121 ° 0 min 37 W/m² 2,5 °C -0,7 °C 20,9 km/h (4 Bft)
07.12.2024 10:47 21,7 °C 4,6 °C 50 % 86 % 1005,1 hPa 0,0 l/m² 14,0 km/h (3 Bft) SO 127 ° 0 min 37 W/m² 2,5 °C -0,9 °C 16,1 km/h (3 Bft)
07.12.2024 10:48 21,7 °C 4,6 °C 50 % 86 % 1005,0 hPa 0,0 l/m² 12,9 km/h (3 Bft) O-SO 123 ° 0 min 35 W/m² 2,5 °C -0,2 °C 16,1 km/h (3 Bft)
07.12.2024 10:49 21,7 °C 4,6 °C 50 % 86 % 1004,9 hPa 0,0 l/m² 12,4 km/h (2 Bft) SO 141 ° 0 min 35 W/m² 2,5 °C 0,1 °C 16,1 km/h (3 Bft)
07.12.2024 10:51 21,7 °C 4,6 °C 50 % 86 % 1004,8 hPa 0,0 l/m² 13,2 km/h (3 Bft) S-SO 163 ° 0 min 37 W/m² 2,5 °C -0,4 °C 17,7 km/h (3 Bft)
07.12.2024 10:53 21,7 °C 4,7 °C 50 % 86 % 1004,7 hPa 0,0 l/m² 12,6 km/h (3 Bft) O-SO 121 ° 0 min 39 W/m² 2,6 °C 0,0 °C 16,1 km/h (3 Bft)
07.12.2024 10:54 21,7 °C 4,7 °C 49 % 86 % 1004,6 hPa 0,0 l/m² 13,9 km/h (3 Bft) SO 136 ° 0 min 39 W/m² 2,6 °C -0,7 °C 16,1 km/h (3 Bft)
07.12.2024 10:55 21,7 °C 4,7 °C 49 % 86 % 1004,6 hPa 0,0 l/m² 15,4 km/h (3 Bft) SO 144 ° 0 min 39 W/m² 2,6 °C -1,5 °C 27,4 km/h (5 Bft)
07.12.2024 10:56 21,7 °C 4,7 °C 49 % 86 % 1004,6 hPa 0,0 l/m² 17,4 km/h (3 Bft) SO 139 ° 0 min 37 W/m² 2,6 °C -2,5 °C 25,7 km/h (4 Bft)
07.12.2024 10:57 21,7 °C 4,7 °C 49 % 86 % 1004,6 hPa 0,0 l/m² 13,9 km/h (3 Bft) SO 137 ° 0 min 37 W/m² 2,6 °C -0,7 °C 19,3 km/h (3 Bft)
07.12.2024 10:58 21,7 °C 4,7 °C 49 % 86 % 1004,6 hPa 0,0 l/m² 13,0 km/h (3 Bft) O-SO 120 ° 0 min 37 W/m² 2,6 °C -0,2 °C 16,1 km/h (3 Bft)
07.12.2024 10:59 21,7 °C 4,7 °C 49 % 86 % 1004,5 hPa 0,0 l/m² 14,1 km/h (3 Bft) O-SO 114 ° 0 min 39 W/m² 2,6 °C -0,8 °C 19,3 km/h (3 Bft)
07.12.2024 11:01 21,7 °C 4,7 °C 49 % 86 % 1004,4 hPa 0,0 l/m² 15,4 km/h (3 Bft) SO 126 ° 0 min 40 W/m² 2,6 °C -1,5 °C 20,9 km/h (4 Bft)
07.12.2024 11:03 21,7 °C 4,7 °C 49 % 86 % 1004,4 hPa 0,0 l/m² 15,6 km/h (3 Bft) O-SO 118 ° 0 min 39 W/m² 2,6 °C -1,6 °C 20,9 km/h (4 Bft)
07.12.2024 11:04 21,6 °C 4,8 °C 49 % 86 % 1004,1 hPa 0,0 l/m² 16,9 km/h (3 Bft) O 90 ° 0 min 40 W/m² 2,7 °C -2,1 °C 20,9 km/h (4 Bft)
07.12.2024 11:05 21,7 °C 4,8 °C 49 % 86 % 1004,3 hPa 0,0 l/m² 17,1 km/h (3 Bft) SO 146 ° 0 min 39 W/m² 2,7 °C -2,2 °C 20,9 km/h (4 Bft)
07.12.2024 11:06 21,6 °C 4,8 °C 49 % 86 % 1004,1 hPa 0,0 l/m² 17,0 km/h (3 Bft) O-SO 106 ° 0 min 39 W/m² 2,7 °C -2,1 °C 20,9 km/h (4 Bft)
07.12.2024 11:07 21,6 °C 4,8 °C 49 % 86 % 1004,0 hPa 0,0 l/m² 14,0 km/h (3 Bft) SO 125 ° 0 min 39 W/m² 2,7 °C -0,6 °C 16,1 km/h (3 Bft)
07.12.2024 11:08 21,6 °C 4,8 °C 49 % 86 % 1004,0 hPa 0,0 l/m² 18,1 km/h (3 Bft) SO 142 ° 0 min 39 W/m² 2,7 °C -2,6 °C 24,1 km/h (4 Bft)
07.12.2024 11:09 21,6 °C 4,8 °C 49 % 86 % 1004,1 hPa 0,0 l/m² 14,5 km/h (3 Bft) SO 132 ° 0 min 40 W/m² 2,7 °C -0,9 °C 20,9 km/h (4 Bft)
07.12.2024 11:11 21,6 °C 4,8 °C 49 % 86 % 1004,0 hPa 0,0 l/m² 10,6 km/h (2 Bft) SO 143 ° 0 min 42 W/m² 2,7 °C 1,4 °C 16,1 km/h (3 Bft)
07.12.2024 11:13 21,6 °C 4,8 °C 49 % 86 % 1004,0 hPa 0,0 l/m² 12,7 km/h (3 Bft) SO 138 ° 0 min 42 W/m² 2,7 °C 0,1 °C 17,7 km/h (3 Bft)
07.12.2024 11:14 21,6 °C 4,8 °C 49 % 86 % 1004,0 hPa 0,0 l/m² 10,5 km/h (2 Bft) O-SO 113 ° 0 min 42 W/m² 2,7 °C 1,5 °C 14,5 km/h (3 Bft)
07.12.2024 11:15 21,6 °C 4,9 °C 49 % 86 % 1003,9 hPa 0,0 l/m² 13,0 km/h (3 Bft) SO 140 ° 0 min 42 W/m² 2,8 °C 0,0 °C 19,3 km/h (3 Bft)
07.12.2024 11:16 21,6 °C 4,9 °C 49 % 86 % 1003,8 hPa 0,0 l/m² 17,2 km/h (3 Bft) O-SO 121 ° 0 min 42 W/m² 2,8 °C -2,1 °C 22,5 km/h (4 Bft)
07.12.2024 11:17 21,6 °C 4,9 °C 49 % 86 % 1003,7 hPa 0,0 l/m² 16,6 km/h (3 Bft) SO 128 ° 0 min 42 W/m² 2,8 °C -1,8 °C 20,9 km/h (4 Bft)
07.12.2024 11:18 21,6 °C 4,9 °C 49 % 86 % 1003,7 hPa 0,0 l/m² 13,3 km/h (3 Bft) SO 142 ° 0 min 42 W/m² 2,8 °C -0,1 °C 16,1 km/h (3 Bft)
07.12.2024 11:19 21,6 °C 4,9 °C 49 % 86 % 1003,7 hPa 0,0 l/m² 10,8 km/h (2 Bft) SO 136 ° 0 min 42 W/m² 2,8 °C 1,4 °C 16,1 km/h (3 Bft)
07.12.2024 11:20 21,6 °C 4,9 °C 49 % 86 % 1003,8 hPa 0,0 l/m² 12,9 km/h (3 Bft) SO 140 ° 0 min 42 W/m² 2,8 °C 0,1 °C 16,1 km/h (3 Bft)
07.12.2024 11:22 21,6 °C 4,9 °C 49 % 86 % 1003,7 hPa 0,0 l/m² 13,3 km/h (3 Bft) SO 136 ° 0 min 40 W/m² 2,8 °C -0,1 °C 17,7 km/h (3 Bft)
07.12.2024 11:24 21,6 °C 5,0 °C 49 % 86 % 1003,5 hPa 0,0 l/m² 14,6 km/h (3 Bft) SO 143 ° 0 min 39 W/m² 2,9 °C -0,7 °C 24,1 km/h (4 Bft)
07.12.2024 11:25 21,6 °C 5,0 °C 49 % 86 % 1003,6 hPa 0,0 l/m² 15,4 km/h (3 Bft) S-SO 157 ° 0 min 40 W/m² 2,9 °C -1,1 °C 17,7 km/h (3 Bft)
07.12.2024 11:26 21,6 °C 5,0 °C 49 % 86 % 1003,5 hPa 0,0 l/m² 17,6 km/h (3 Bft) SO 140 ° 0 min 42 W/m² 2,9 °C -2,2 °C 24,1 km/h (4 Bft)
07.12.2024 11:27 21,6 °C 4,9 °C 49 % 86 % 1003,4 hPa 0,0 l/m² 12,6 km/h (3 Bft) SO 127 ° 0 min 42 W/m² 2,8 °C 0,3 °C 14,5 km/h (3 Bft)
07.12.2024 11:28 21,6 °C 5,0 °C 49 % 86 % 1003,5 hPa 0,0 l/m² 14,1 km/h (3 Bft) SO 142 ° 0 min 42 W/m² 2,9 °C -0,5 °C 17,7 km/h (3 Bft)
07.12.2024 11:29 21,6 °C 5,0 °C 49 % 86 % 1003,5 hPa 0,0 l/m² 10,0 km/h (2 Bft) SO 128 ° 0 min 46 W/m² 2,9 °C 2,1 °C 14,5 km/h (3 Bft)
07.12.2024 11:30 21,6 °C 5,1 °C 49 % 86 % 1003,5 hPa 0,0 l/m² 11,8 km/h (2 Bft) SO 136 ° 0 min 49 W/m² 3,0 °C 1,0 °C 19,3 km/h (3 Bft)
07.12.2024 11:32 21,6 °C 5,1 °C 49 % 86 % 1003,4 hPa 0,0 l/m² 14,6 km/h (3 Bft) O-SO 113 ° 0 min 51 W/m² 3,0 °C -0,6 °C 20,9 km/h (4 Bft)
07.12.2024 11:34 21,6 °C 5,1 °C 49 % 86 % 1003,4 hPa 0,0 l/m² 12,7 km/h (3 Bft) S-SO 159 ° 0 min 49 W/m² 3,0 °C 0,5 °C 16,1 km/h (3 Bft)
07.12.2024 11:35 21,6 °C 5,2 °C 49 % 86 % 1003,4 hPa 0,0 l/m² 11,1 km/h (2 Bft) SO 146 ° 0 min 46 W/m² 3,1 °C 1,6 °C 16,1 km/h (3 Bft)
07.12.2024 11:36 21,6 °C 5,2 °C 49 % 86 % 1003,4 hPa 0,0 l/m² 15,2 km/h (3 Bft) SO 146 ° 0 min 46 W/m² 3,1 °C -0,8 °C 22,5 km/h (4 Bft)
07.12.2024 11:37 21,6 °C 5,2 °C 49 % 86 % 1003,3 hPa 0,0 l/m² 18,0 km/h (3 Bft) SO 135 ° 0 min 44 W/m² 3,1 °C -2,1 °C 24,1 km/h (4 Bft)
07.12.2024 11:38 21,6 °C 5,2 °C 49 % 86 % 1003,3 hPa 0,0 l/m² 14,1 km/h (3 Bft) SO 138 ° 0 min 44 W/m² 3,1 °C -0,2 °C 20,9 km/h (4 Bft)
07.12.2024 11:39 21,6 °C 5,2 °C 49 % 86 % 1003,3 hPa 0,0 l/m² 14,2 km/h (3 Bft) SO 145 ° 0 min 44 W/m² 3,1 °C -0,3 °C 17,7 km/h (3 Bft)
07.12.2024 11:41 21,6 °C 5,2 °C 49 % 86 % 1003,3 hPa 0,0 l/m² 15,6 km/h (3 Bft) SO 142 ° 0 min 40 W/m² 3,1 °C -1,0 °C 22,5 km/h (4 Bft)
07.12.2024 11:43 21,6 °C 5,3 °C 49 % 86 % 1003,2 hPa 0,0 l/m² 18,0 km/h (3 Bft) S-SO 157 ° 0 min 40 W/m² 3,2 °C -2,0 °C 27,4 km/h (5 Bft)
07.12.2024 11:44 21,6 °C 5,3 °C 49 % 86 % 1003,2 hPa 0,0 l/m² 18,7 km/h (3 Bft) SO 128 ° 0 min 39 W/m² 3,2 °C -2,3 °C 22,5 km/h (4 Bft)
07.12.2024 11:45 21,6 °C 5,3 °C 49 % 86 % 1003,2 hPa 0,0 l/m² 13,3 km/h (3 Bft) SO 131 ° 0 min 37 W/m² 3,2 °C 0,3 °C 17,7 km/h (3 Bft)
07.12.2024 11:46 21,6 °C 5,3 °C 49 % 86 % 1003,1 hPa 0,0 l/m² 18,3 km/h (3 Bft) SO 143 ° 0 min 35 W/m² 3,2 °C -2,1 °C 24,1 km/h (4 Bft)
07.12.2024 11:47 21,6 °C 5,3 °C 49 % 86 % 1003,1 hPa 0,0 l/m² 14,2 km/h (3 Bft) SO 145 ° 0 min 33 W/m² 3,2 °C -0,1 °C 20,9 km/h (4 Bft)
07.12.2024 11:48 21,6 °C 5,3 °C 49 % 86 % 1003,1 hPa 0,0 l/m² 13,4 km/h (3 Bft) SO 127 ° 0 min 35 W/m² 3,2 °C 0,3 °C 17,7 km/h (3 Bft)
07.12.2024 11:49 21,6 °C 5,3 °C 49 % 86 % 1003,1 hPa 0,0 l/m² 16,3 km/h (3 Bft) S-SO 166 ° 0 min 35 W/m² 3,2 °C -1,2 °C 19,3 km/h (3 Bft)
07.12.2024 11:50 21,6 °C 5,4 °C 49 % 86 % 1003,0 hPa 0,0 l/m² 15,7 km/h (3 Bft) SO 128 ° 0 min 35 W/m² 3,3 °C -0,8 °C 20,9 km/h (4 Bft)
07.12.2024 11:52 21,6 °C 5,4 °C 49 % 86 % 1003,0 hPa 0,0 l/m² 17,2 km/h (3 Bft) SO 144 ° 0 min 37 W/m² 3,3 °C -1,5 °C 27,4 km/h (5 Bft)
07.12.2024 11:54 21,6 °C 5,4 °C 48 % 86 % 1002,9 hPa 0,0 l/m² 19,8 km/h (3 Bft) S-SO 150 ° 0 min 39 W/m² 3,3 °C -2,6 °C 25,7 km/h (4 Bft)
07.12.2024 11:55 21,5 °C 5,4 °C 47 % 86 % 1002,9 hPa 0,0 l/m² 19,7 km/h (3 Bft) SO 146 ° 0 min 39 W/m² 3,3 °C -2,5 °C 24,1 km/h (4 Bft)
07.12.2024 11:56 21,5 °C 5,5 °C 47 % 85 % 1002,9 hPa 0,0 l/m² 18,9 km/h (3 Bft) SO 132 ° 0 min 40 W/m² 3,2 °C -2,1 °C 25,7 km/h (4 Bft)
07.12.2024 11:57 21,5 °C 5,4 °C 47 % 85 % 1002,9 hPa 0,0 l/m² 18,2 km/h (3 Bft) SO 134 ° 0 min 40 W/m² 3,1 °C -1,9 °C 25,7 km/h (4 Bft)
07.12.2024 11:58 21,5 °C 5,5 °C 47 % 85 % 1002,9 hPa 0,0 l/m² 19,0 km/h (3 Bft) SO 129 ° 0 min 40 W/m² 3,2 °C -2,1 °C 24,1 km/h (4 Bft)
07.12.2024 11:59 21,5 °C 5,5 °C 47 % 85 % 1002,8 hPa 0,0 l/m² 16,9 km/h (3 Bft) SO 136 ° 0 min 40 W/m² 3,2 °C -1,2 °C 20,9 km/h (4 Bft)
07.12.2024 12:00 21,5 °C 5,6 °C 47 % 85 % 1002,8 hPa 0,0 l/m² 14,6 km/h (3 Bft) SO 146 ° 0 min 42 W/m² 3,3 °C 0,0 °C 19,3 km/h (3 Bft)
07.12.2024 12:01 21,4 °C 5,6 °C 48 % 85 % 1002,8 hPa 0,0 l/m² 19,0 km/h (3 Bft) S-SO 151 ° 0 min 42 W/m² 3,3 °C -2,0 °C 24,1 km/h (4 Bft)
07.12.2024 12:02 21,4 °C 5,6 °C 48 % 85 % 1002,8 hPa 0,0 l/m² 20,5 km/h (4 Bft) SO 130 ° 0 min 40 W/m² 3,3 °C -2,6 °C 25,7 km/h (4 Bft)
07.12.2024 12:03 21,4 °C 5,6 °C 48 % 85 % 1002,8 hPa 0,0 l/m² 20,6 km/h (4 Bft) SO 141 ° 0 min 40 W/m² 3,3 °C -2,6 °C 27,4 km/h (5 Bft)
07.12.2024 12:04 21,4 °C 5,6 °C 48 % 85 % 1002,8 hPa 0,0 l/m² 18,8 km/h (3 Bft) SO 133 ° 0 min 40 W/m² 3,3 °C -1,9 °C 24,1 km/h (4 Bft)
07.12.2024 12:05 21,4 °C 5,6 °C 48 % 85 % 1002,7 hPa 0,0 l/m² 17,8 km/h (3 Bft) SO 135 ° 0 min 40 W/m² 3,3 °C -1,5 °C 22,5 km/h (4 Bft)
07.12.2024 12:06 21,4 °C 5,6 °C 48 % 85 % 1002,7 hPa 0,0 l/m² 17,3 km/h (3 Bft) S-SO 154 ° 0 min 40 W/m² 3,3 °C -1,3 °C 24,1 km/h (4 Bft)
07.12.2024 12:07 21,4 °C 5,6 °C 48 % 85 % 1002,7 hPa 0,0 l/m² 16,7 km/h (3 Bft) S-SO 155 ° 0 min 42 W/m² 3,3 °C -1,0 °C 24,1 km/h (4 Bft)
07.12.2024 12:08 21,4 °C 5,6 °C 48 % 85 % 1002,6 hPa 0,0 l/m² 18,5 km/h (3 Bft) SO 138 ° 0 min 42 W/m² 3,3 °C -1,8 °C 25,7 km/h (4 Bft)
07.12.2024 12:09 21,4 °C 5,6 °C 48 % 85 % 1002,7 hPa 0,0 l/m² 17,2 km/h (3 Bft) SO 130 ° 0 min 42 W/m² 3,3 °C -1,2 °C 22,5 km/h (4 Bft)
07.12.2024 12:10 21,4 °C 5,7 °C 48 % 84 % 1002,6 hPa 0,0 l/m² 19,4 km/h (3 Bft) SO 126 ° 0 min 42 W/m² 3,2 °C -2,0 °C 25,7 km/h (4 Bft)
07.12.2024 12:12 21,4 °C 5,7 °C 48 % 84 % 1002,5 hPa 0,0 l/m² 16,8 km/h (3 Bft) SO 131 ° 0 min 42 W/m² 3,2 °C -0,9 °C 20,9 km/h (4 Bft)
07.12.2024 12:14 21,4 °C 5,7 °C 48 % 84 % 1002,5 hPa 0,0 l/m² 18,1 km/h (3 Bft) SO 126 ° 0 min 44 W/m² 3,2 °C -1,5 °C 25,7 km/h (4 Bft)
07.12.2024 12:15 21,4 °C 5,7 °C 48 % 84 % 1002,4 hPa 0,0 l/m² 16,3 km/h (3 Bft) SO 126 ° 0 min 44 W/m² 3,2 °C -0,7 °C 24,1 km/h (4 Bft)
07.12.2024 12:16 21,4 °C 5,7 °C 48 % 84 % 1002,5 hPa 0,0 l/m² 14,9 km/h (3 Bft) S-SO 158 ° 0 min 46 W/m² 3,2 °C -0,0 °C 20,9 km/h (4 Bft)
07.12.2024 12:17 21,4 °C 5,7 °C 48 % 84 % 1002,5 hPa 0,0 l/m² 17,5 km/h (3 Bft) SO 127 ° 0 min 47 W/m² 3,2 °C -1,2 °C 22,5 km/h (4 Bft)
07.12.2024 12:18 21,4 °C 5,7 °C 48 % 84 % 1002,5 hPa 0,0 l/m² 17,4 km/h (3 Bft) SO 130 ° 0 min 47 W/m² 3,2 °C -1,2 °C 20,9 km/h (4 Bft)
07.12.2024 12:19 21,4 °C 5,7 °C 48 % 84 % 1002,4 hPa 0,0 l/m² 20,1 km/h (4 Bft) SO 140 ° 0 min 49 W/m² 3,2 °C -2,3 °C 27,4 km/h (5 Bft)
07.12.2024 12:20 21,4 °C 5,8 °C 48 % 84 % 1002,4 hPa 0,0 l/m² 19,0 km/h (3 Bft) SO 146 ° 0 min 49 W/m² 3,3 °C -1,7 °C 22,5 km/h (4 Bft)
07.12.2024 12:22 21,4 °C 5,7 °C 48 % 84 % 1002,5 hPa 0,0 l/m² 15,8 km/h (3 Bft) SO 139 ° 0 min 46 W/m² 3,2 °C -0,5 °C 25,7 km/h (4 Bft)
07.12.2024 12:24 21,4 °C 5,7 °C 49 % 84 % 1002,4 hPa 0,0 l/m² 18,3 km/h (3 Bft) SO 126 ° 0 min 44 W/m² 3,2 °C -1,6 °C 24,1 km/h (4 Bft)
07.12.2024 12:25 21,4 °C 5,8 °C 49 % 84 % 1002,3 hPa 0,0 l/m² 17,8 km/h (3 Bft) SO 126 ° 0 min 44 W/m² 3,3 °C -1,2 °C 22,5 km/h (4 Bft)
07.12.2024 12:26 21,4 °C 5,8 °C 49 % 84 % 1002,3 hPa 0,0 l/m² 19,0 km/h (3 Bft) S-SO 153 ° 0 min 44 W/m² 3,3 °C -1,7 °C 24,1 km/h (4 Bft)
07.12.2024 12:27 21,4 °C 5,8 °C 49 % 84 % 1002,3 hPa 0,0 l/m² 14,1 km/h (3 Bft) SO 128 ° 0 min 40 W/m² 3,3 °C 0,5 °C 17,7 km/h (3 Bft)
07.12.2024 12:28 21,4 °C 5,8 °C 49 % 84 % 1002,3 hPa 0,0 l/m² 17,4 km/h (3 Bft) SO 128 ° 0 min 39 W/m² 3,3 °C -1,1 °C 22,5 km/h (4 Bft)
07.12.2024 12:29 21,4 °C 5,8 °C 49 % 84 % 1002,3 hPa 0,0 l/m² 14,3 km/h (3 Bft) SO 125 ° 0 min 37 W/m² 3,3 °C 0,4 °C 19,3 km/h (3 Bft)
07.12.2024 12:30 21,4 °C 5,8 °C 49 % 84 % 1002,0 hPa 0,0 l/m² 15,6 km/h (3 Bft) SO 134 ° 0 min 35 W/m² 3,3 °C -0,2 °C 19,3 km/h (3 Bft)
07.12.2024 12:32 21,4 °C 5,8 °C 49 % 84 % 1002,0 hPa 0,0 l/m² 15,5 km/h (3 Bft) O-SO 123 ° 0 min 32 W/m² 3,3 °C -0,2 °C 22,5 km/h (4 Bft)
07.12.2024 12:34 21,4 °C 5,7 °C 49 % 84 % 1002,0 hPa 0,0 l/m² 13,0 km/h (3 Bft) SO 142 ° 0 min 30 W/m² 3,2 °C 1,0 °C 16,1 km/h (3 Bft)
07.12.2024 12:35 21,4 °C 5,7 °C 49 % 84 % 1002,0 hPa 0,0 l/m² 13,3 km/h (3 Bft) SO 126 ° 0 min 30 W/m² 3,2 °C 0,8 °C 17,7 km/h (3 Bft)
07.12.2024 12:36 21,4 °C 5,8 °C 49 % 84 % 1002,0 hPa 0,0 l/m² 15,9 km/h (3 Bft) SO 132 ° 0 min 30 W/m² 3,3 °C -0,4 °C 19,3 km/h (3 Bft)
07.12.2024 12:37 21,4 °C 5,8 °C 49 % 84 % 1002,0 hPa 0,0 l/m² 14,3 km/h (3 Bft) SO 144 ° 0 min 30 W/m² 3,3 °C 0,4 °C 22,5 km/h (4 Bft)
07.12.2024 12:38 21,4 °C 5,8 °C 49 % 84 % 1002,0 hPa 0,0 l/m² 17,2 km/h (3 Bft) S-SO 153 ° 0 min 32 W/m² 3,3 °C -1,0 °C 22,5 km/h (4 Bft)
07.12.2024 12:39 21,4 °C 5,8 °C 50 % 84 % 1002,1 hPa 0,0 l/m² 15,7 km/h (3 Bft) SO 138 ° 0 min 32 W/m² 3,3 °C -0,3 °C 19,3 km/h (3 Bft)
07.12.2024 12:40 21,4 °C 5,8 °C 50 % 84 % 1002,0 hPa 0,0 l/m² 11,9 km/h (2 Bft) SO 136 ° 0 min 33 W/m² 3,3 °C 1,7 °C 16,1 km/h (3 Bft)
07.12.2024 12:42 21,4 °C 5,7 °C 50 % 84 % 1001,9 hPa 0,0 l/m² 13,7 km/h (3 Bft) S-SO 150 ° 0 min 33 W/m² 3,2 °C 0,6 °C 19,3 km/h (3 Bft)
07.12.2024 12:44 21,4 °C 5,7 °C 50 % 84 % 1001,9 hPa 0,0 l/m² 13,9 km/h (3 Bft) S-SO 155 ° 0 min 33 W/m² 3,2 °C 0,5 °C 19,3 km/h (3 Bft)
07.12.2024 12:45 21,4 °C 5,7 °C 50 % 84 % 1001,9 hPa 0,0 l/m² 8,0 km/h (2 Bft) SO 142 ° 0 min 35 W/m² 3,2 °C 4,3 °C 17,7 km/h (3 Bft)
07.12.2024 12:46 21,4 °C 5,7 °C 50 % 84 % 1001,9 hPa 0,0 l/m² 12,0 km/h (2 Bft) SO 140 ° 0 min 35 W/m² 3,2 °C 1,6 °C 17,7 km/h (3 Bft)
07.12.2024 12:47 21,4 °C 5,7 °C 50 % 84 % 1001,9 hPa 0,0 l/m² 12,3 km/h (2 Bft) S-SO 161 ° 0 min 37 W/m² 3,2 °C 1,4 °C 19,3 km/h (3 Bft)
07.12.2024 12:48 21,4 °C 5,7 °C 50 % 84 % 1002,0 hPa 0,0 l/m² 15,7 km/h (3 Bft) SO 126 ° 0 min 37 W/m² 3,2 °C -0,4 °C 19,3 km/h (3 Bft)
07.12.2024 12:49 21,4 °C 5,7 °C 50 % 84 % 1002,0 hPa 0,0 l/m² 14,4 km/h (3 Bft) SO 141 ° 0 min 37 W/m² 3,2 °C 0,2 °C 17,7 km/h (3 Bft)
07.12.2024 12:51 21,4 °C 5,7 °C 50 % 84 % 1001,9 hPa 0,0 l/m² 14,2 km/h (3 Bft) SO 131 ° 0 min 37 W/m² 3,2 °C 0,3 °C 22,5 km/h (4 Bft)
07.12.2024 12:53 21,4 °C 5,7 °C 51 % 84 % 1002,0 hPa 0,0 l/m² 19,4 km/h (3 Bft) SO 137 ° 0 min 37 W/m² 3,2 °C -2,0 °C 27,4 km/h (5 Bft)
07.12.2024 12:54 21,4 °C 5,7 °C 51 % 84 % 1001,9 hPa 0,0 l/m² 13,3 km/h (3 Bft) SO 137 ° 0 min 35 W/m² 3,2 °C 0,8 °C 19,3 km/h (3 Bft)
07.12.2024 12:55 21,4 °C 5,7 °C 51 % 84 % 1001,9 hPa 0,0 l/m² 18,2 km/h (3 Bft) SO 128 ° 0 min 35 W/m² 3,2 °C -1,5 °C 25,7 km/h (4 Bft)
07.12.2024 12:56 21,5 °C 5,7 °C 52 % 84 % 1001,8 hPa 0,0 l/m² 15,0 km/h (3 Bft) SO 130 ° 0 min 35 W/m² 3,2 °C -0,1 °C 19,3 km/h (3 Bft)
07.12.2024 12:57 21,4 °C 5,7 °C 52 % 84 % 1001,8 hPa 0,0 l/m² 14,4 km/h (3 Bft) O-SO 118 ° 0 min 33 W/m² 3,2 °C 0,2 °C 19,3 km/h (3 Bft)
07.12.2024 12:58 21,5 °C 5,7 °C 52 % 84 % 1001,9 hPa 0,0 l/m² 12,3 km/h (2 Bft) SO 135 ° 0 min 33 W/m² 3,2 °C 1,4 °C 16,1 km/h (3 Bft)
07.12.2024 12:59 21,5 °C 5,7 °C 52 % 84 % 1001,8 hPa 0,0 l/m² 12,8 km/h (3 Bft) SO 132 ° 0 min 33 W/m² 3,2 °C 1,1 °C 16,1 km/h (3 Bft)
07.12.2024 13:01 21,5 °C 5,7 °C 52 % 84 % 1001,9 hPa 0,0 l/m² 13,8 km/h (3 Bft) SO 124 ° 0 min 33 W/m² 3,2 °C 0,5 °C 19,3 km/h (3 Bft)
07.12.2024 13:03 21,6 °C 5,7 °C 52 % 84 % 1001,9 hPa 0,0 l/m² 13,8 km/h (3 Bft) SO 129 ° 0 min 32 W/m² 3,2 °C 0,5 °C 16,1 km/h (3 Bft)
07.12.2024 13:04 21,5 °C 5,7 °C 52 % 84 % 1001,8 hPa 0,0 l/m² 11,1 km/h (2 Bft) O-SO 123 ° 0 min 32 W/m² 3,2 °C 2,1 °C 14,5 km/h (3 Bft)
07.12.2024 13:05 21,5 °C 5,7 °C 52 % 84 % 1001,8 hPa 0,0 l/m² 15,6 km/h (3 Bft) SO 128 ° 0 min 32 W/m² 3,2 °C -0,4 °C 19,3 km/h (3 Bft)
07.12.2024 13:06 21,6 °C 5,7 °C 52 % 84 % 1001,8 hPa 0,0 l/m² 15,3 km/h (3 Bft) SO 133 ° 0 min 32 W/m² 3,2 °C -0,2 °C 17,7 km/h (3 Bft)
07.12.2024 13:07 21,6 °C 5,7 °C 53 % 84 % 1001,8 hPa 0,0 l/m² 15,8 km/h (3 Bft) SO 128 ° 0 min 32 W/m² 3,2 °C -0,5 °C 19,3 km/h (3 Bft)
07.12.2024 13:08 21,5 °C 5,7 °C 53 % 84 % 1001,8 hPa 0,0 l/m² 14,6 km/h (3 Bft) SO 130 ° 0 min 32 W/m² 3,2 °C 0,1 °C 19,3 km/h (3 Bft)
07.12.2024 13:09 21,6 °C 5,7 °C 53 % 84 % 1001,8 hPa 0,0 l/m² 13,7 km/h (3 Bft) SO 130 ° 0 min 30 W/m² 3,2 °C 0,6 °C 20,9 km/h (4 Bft)
07.12.2024 13:11 21,6 °C 5,7 °C 52 % 84 % 1001,7 hPa 0,0 l/m² 13,1 km/h (3 Bft) SO 132 ° 0 min 30 W/m² 3,2 °C 0,9 °C 22,5 km/h (4 Bft)
07.12.2024 13:13 21,6 °C 5,7 °C 53 % 85 % 1001,8 hPa 0,2 l/m² 15,1 km/h (3 Bft) SO 130 ° 0 min 30 W/m² 3,4 °C -0,1 °C 19,3 km/h (3 Bft)
07.12.2024 13:14 21,6 °C 5,7 °C 53 % 85 % 1001,7 hPa 0,0 l/m² 15,4 km/h (3 Bft) SO 131 ° 0 min 28 W/m² 3,4 °C -0,3 °C 19,3 km/h (3 Bft)
07.12.2024 13:15 21,6 °C 5,7 °C 52 % 85 % 1001,7 hPa 0,0 l/m² 14,3 km/h (3 Bft) O-SO 121 ° 0 min 28 W/m² 3,4 °C 0,3 °C 17,7 km/h (3 Bft)
07.12.2024 13:16 21,6 °C 5,6 °C 53 % 85 % 1001,7 hPa 0,0 l/m² 17,4 km/h (3 Bft) SO 141 ° 0 min 26 W/m² 3,3 °C -1,3 °C 22,5 km/h (4 Bft)
07.12.2024 13:17 21,6 °C 5,6 °C 53 % 85 % 1001,7 hPa 0,0 l/m² 13,6 km/h (3 Bft) SO 132 ° 0 min 26 W/m² 3,3 °C 0,5 °C 16,1 km/h (3 Bft)
07.12.2024 13:18 21,6 °C 5,6 °C 53 % 85 % 1001,8 hPa 0,0 l/m² 13,3 km/h (3 Bft) O-SO 114 ° 0 min 26 W/m² 3,3 °C 0,7 °C 19,3 km/h (3 Bft)
07.12.2024 13:19 21,6 °C 5,6 °C 53 % 85 % 1001,8 hPa 0,0 l/m² 17,5 km/h (3 Bft) O-SO 119 ° 0 min 26 W/m² 3,3 °C -1,4 °C 20,9 km/h (4 Bft)
07.12.2024 13:21 21,6 °C 5,6 °C 53 % 85 % 1001,7 hPa 0,0 l/m² 15,3 km/h (3 Bft) SO 142 ° 0 min 26 W/m² 3,3 °C -0,3 °C 22,5 km/h (4 Bft)
07.12.2024 13:23 21,6 °C 5,6 °C 53 % 85 % 1001,6 hPa 0,0 l/m² 16,1 km/h (3 Bft) O-SO 123 ° 0 min 26 W/m² 3,3 °C -0,7 °C 20,9 km/h (4 Bft)
07.12.2024 13:24 21,6 °C 5,6 °C 53 % 85 % 1001,6 hPa 0,0 l/m² 14,9 km/h (3 Bft) SO 127 ° 0 min 26 W/m² 3,3 °C -0,1 °C 20,9 km/h (4 Bft)
07.12.2024 13:25 21,6 °C 5,5 °C 53 % 85 % 1001,6 hPa 0,0 l/m² 18,8 km/h (3 Bft) O-SO 119 ° 0 min 26 W/m² 3,2 °C -2,0 °C 22,5 km/h (4 Bft)
07.12.2024 13:26 21,6 °C 5,5 °C 53 % 85 % 1001,6 hPa 0,0 l/m² 16,4 km/h (3 Bft) SO 142 ° 0 min 26 W/m² 3,2 °C -1,0 °C 20,9 km/h (4 Bft)
07.12.2024 13:27 21,6 °C 5,5 °C 53 % 85 % 1001,6 hPa 0,0 l/m² 16,6 km/h (3 Bft) O-SO 115 ° 0 min 26 W/m² 3,2 °C -1,1 °C 20,9 km/h (4 Bft)
07.12.2024 13:28 21,6 °C 5,4 °C 53 % 85 % 1001,6 hPa 0,2 l/m² 15,0 km/h (3 Bft) S-SO 149 ° 0 min 26 W/m² 3,1 °C -0,4 °C 19,3 km/h (3 Bft)
07.12.2024 13:29 21,6 °C 5,4 °C 53 % 85 % 1001,5 hPa 0,0 l/m² 14,8 km/h (3 Bft) SO 134 ° 0 min 26 W/m² 3,1 °C -0,3 °C 17,7 km/h (3 Bft)
07.12.2024 13:31 21,6 °C 5,4 °C 53 % 85 % 1001,5 hPa 0,0 l/m² 15,0 km/h (3 Bft) SO 130 ° 0 min 25 W/m² 3,1 °C -0,4 °C 24,1 km/h (4 Bft)
07.12.2024 13:33 21,6 °C 5,4 °C 52 % 86 % 1001,4 hPa 0,0 l/m² 17,4 km/h (3 Bft) SO 126 ° 0 min 25 W/m² 3,3 °C -1,6 °C 24,1 km/h (4 Bft)
07.12.2024 13:34 21,6 °C 5,4 °C 52 % 86 % 1001,4 hPa 0,0 l/m² 21,5 km/h (4 Bft) O-SO 123 ° 0 min 25 W/m² 3,3 °C -3,2 °C 27,4 km/h (5 Bft)
07.12.2024 13:35 21,6 °C 5,4 °C 52 % 86 % 1001,4 hPa 0,0 l/m² 16,6 km/h (3 Bft) SO 138 ° 0 min 25 W/m² 3,3 °C -1,2 °C 24,1 km/h (4 Bft)
07.12.2024 13:36 21,6 °C 5,3 °C 52 % 86 % 1001,4 hPa 0,0 l/m² 18,9 km/h (3 Bft) SO 129 ° 0 min 25 W/m² 3,2 °C -2,3 °C 24,1 km/h (4 Bft)
07.12.2024 13:37 21,6 °C 5,3 °C 52 % 86 % 1001,3 hPa 0,2 l/m² 17,0 km/h (3 Bft) SO 130 ° 0 min 25 W/m² 3,2 °C -1,5 °C 22,5 km/h (4 Bft)
07.12.2024 13:38 21,6 °C 5,3 °C 52 % 86 % 1001,4 hPa 0,0 l/m² 13,3 km/h (3 Bft) SO 124 ° 0 min 25 W/m² 3,2 °C 0,3 °C 17,7 km/h (3 Bft)
07.12.2024 13:39 21,6 °C 5,3 °C 52 % 86 % 1001,4 hPa 0,0 l/m² 13,3 km/h (3 Bft) SO 141 ° 0 min 23 W/m² 3,2 °C 0,3 °C 17,7 km/h (3 Bft)
07.12.2024 13:41 21,6 °C 5,3 °C 52 % 86 % 1001,3 hPa 0,0 l/m² 17,5 km/h (3 Bft) SO 124 ° 0 min 23 W/m² 3,2 °C -1,7 °C 24,1 km/h (4 Bft)
07.12.2024 13:43 21,6 °C 5,3 °C 52 % 86 % 1001,3 hPa 0,0 l/m² 17,3 km/h (3 Bft) SO 139 ° 0 min 23 W/m² 3,2 °C -1,7 °C 25,7 km/h (4 Bft)
07.12.2024 13:44 21,7 °C 5,3 °C 52 % 86 % 1001,4 hPa 0,0 l/m² 20,7 km/h (4 Bft) SO 140 ° 0 min 23 W/m² 3,2 °C -3,1 °C 29,0 km/h (5 Bft)
07.12.2024 13:45 21,6 °C 5,2 °C 52 % 86 % 1001,3 hPa 0,0 l/m² 14,7 km/h (3 Bft) SO 135 ° 0 min 23 W/m² 3,1 °C -0,5 °C 19,3 km/h (3 Bft)
07.12.2024 13:46 21,7 °C 5,2 °C 52 % 86 % 1001,3 hPa 0,0 l/m² 15,2 km/h (3 Bft) S-SO 148 ° 0 min 23 W/m² 3,1 °C -0,8 °C 22,5 km/h (4 Bft)
07.12.2024 13:47 21,6 °C 5,3 °C 52 % 86 % 1001,2 hPa 0,0 l/m² 15,2 km/h (3 Bft) SO 128 ° 0 min 23 W/m² 3,2 °C -0,7 °C 20,9 km/h (4 Bft)
07.12.2024 13:48 21,7 °C 5,2 °C 52 % 86 % 1001,3 hPa 0,0 l/m² 16,8 km/h (3 Bft) SO 146 ° 0 min 23 W/m² 3,1 °C -1,6 °C 20,9 km/h (4 Bft)
07.12.2024 13:49 21,7 °C 5,2 °C 52 % 86 % 1001,3 hPa 0,0 l/m² 14,2 km/h (3 Bft) O-SO 123 ° 0 min 23 W/m² 3,1 °C -0,3 °C 19,3 km/h (3 Bft)
07.12.2024 13:51 21,6 °C 5,2 °C 52 % 86 % 1001,3 hPa 0,2 l/m² 14,9 km/h (3 Bft) S-SO 151 ° 0 min 23 W/m² 3,1 °C -0,6 °C 19,3 km/h (3 Bft)
07.12.2024 13:53 21,6 °C 5,2 °C 52 % 87 % 1001,3 hPa 0,0 l/m² 13,1 km/h (3 Bft) SO 146 ° 0 min 21 W/m² 3,2 °C 0,3 °C 22,5 km/h (4 Bft)
07.12.2024 13:54 21,6 °C 5,2 °C 52 % 86 % 1001,2 hPa 0,0 l/m² 16,2 km/h (3 Bft) SO 128 ° 0 min 21 W/m² 3,1 °C -1,3 °C 20,9 km/h (4 Bft)
07.12.2024 13:55 21,6 °C 5,2 °C 52 % 86 % 1001,3 hPa 0,2 l/m² 14,8 km/h (3 Bft) SO 136 ° 0 min 21 W/m² 3,1 °C -0,6 °C 17,7 km/h (3 Bft)
07.12.2024 13:56 21,6 °C 5,2 °C 52 % 86 % 1001,2 hPa 0,0 l/m² 13,8 km/h (3 Bft) O-SO 122 ° 0 min 21 W/m² 3,1 °C -0,0 °C 16,1 km/h (3 Bft)
07.12.2024 13:57 21,6 °C 5,2 °C 52 % 87 % 1001,1 hPa 0,0 l/m² 15,0 km/h (3 Bft) SO 132 ° 0 min 23 W/m² 3,2 °C -0,7 °C 19,3 km/h (3 Bft)
07.12.2024 13:58 21,7 °C 5,1 °C 52 % 87 % 1001,2 hPa 0,0 l/m² 13,7 km/h (3 Bft) SO 130 ° 0 min 23 W/m² 3,1 °C -0,1 °C 19,3 km/h (3 Bft)
07.12.2024 13:59 21,6 °C 5,2 °C 52 % 87 % 1001,2 hPa 0,0 l/m² 16,4 km/h (3 Bft) S-SO 159 ° 0 min 23 W/m² 3,2 °C -1,4 °C 22,5 km/h (4 Bft)
07.12.2024 14:01 21,7 °C 5,2 °C 52 % 87 % 1001,1 hPa 0,0 l/m² 12,1 km/h (2 Bft) SO 138 ° 0 min 25 W/m² 3,2 °C 0,9 °C 17,7 km/h (3 Bft)
07.12.2024 14:03 21,6 °C 5,2 °C 52 % 87 % 1001,1 hPa 0,0 l/m² 15,6 km/h (3 Bft) O-SO 115 ° 0 min 25 W/m² 3,2 °C -1,0 °C 24,1 km/h (4 Bft)
07.12.2024 14:04 21,6 °C 5,1 °C 52 % 87 % 1001,1 hPa 0,0 l/m² 12,3 km/h (2 Bft) O-SO 123 ° 0 min 23 W/m² 3,1 °C 0,7 °C 16,1 km/h (3 Bft)
07.12.2024 14:05 21,6 °C 5,1 °C 52 % 87 % 1001,1 hPa 0,0 l/m² 8,9 km/h (2 Bft) SO 134 ° 0 min 23 W/m² 3,1 °C 3,0 °C 14,5 km/h (3 Bft)
07.12.2024 14:06 21,6 °C 5,1 °C 52 % 87 % 1001,1 hPa 0,2 l/m² 10,7 km/h (2 Bft) SO 139 ° 0 min 23 W/m² 3,1 °C 1,7 °C 14,5 km/h (3 Bft)
07.12.2024 14:07 21,6 °C 5,2 °C 52 % 87 % 1001,2 hPa 0,0 l/m² 12,0 km/h (2 Bft) SO 130 ° 0 min 21 W/m² 3,2 °C 1,0 °C 16,1 km/h (3 Bft)
07.12.2024 14:08 21,6 °C 5,1 °C 52 % 87 % 1001,1 hPa 0,0 l/m² 13,8 km/h (3 Bft) O-SO 105 ° 0 min 21 W/m² 3,1 °C -0,2 °C 16,1 km/h (3 Bft)
07.12.2024 14:09 21,6 °C 5,1 °C 52 % 87 % 1001,1 hPa 0,0 l/m² 13,2 km/h (3 Bft) S-SO 156 ° 0 min 21 W/m² 3,1 °C 0,2 °C 20,9 km/h (4 Bft)
07.12.2024 14:11 21,7 °C 5,1 °C 52 % 87 % 1001,0 hPa 0,0 l/m² 12,2 km/h (2 Bft) SO 132 ° 0 min 19 W/m² 3,1 °C 0,8 °C 16,1 km/h (3 Bft)
07.12.2024 14:13 21,6 °C 5,1 °C 52 % 87 % 1001,0 hPa 0,0 l/m² 12,0 km/h (2 Bft) SO 127 ° 0 min 18 W/m² 3,1 °C 0,9 °C 17,7 km/h (3 Bft)
07.12.2024 14:14 21,7 °C 5,1 °C 52 % 87 % 1001,0 hPa 0,0 l/m² 11,9 km/h (2 Bft) SO 134 ° 0 min 18 W/m² 3,1 °C 0,9 °C 14,5 km/h (3 Bft)
07.12.2024 14:15 21,7 °C 5,1 °C 52 % 87 % 1001,0 hPa 0,0 l/m² 15,4 km/h (3 Bft) O-SO 109 ° 0 min 18 W/m² 3,1 °C -1,0 °C 19,3 km/h (3 Bft)
07.12.2024 14:16 21,6 °C 5,1 °C 52 % 87 % 1001,0 hPa 0,0 l/m² 15,8 km/h (3 Bft) SO 132 ° 0 min 16 W/m² 3,1 °C -1,2 °C 19,3 km/h (3 Bft)
07.12.2024 14:17 21,6 °C 5,1 °C 52 % 87 % 1000,9 hPa 0,0 l/m² 10,3 km/h (2 Bft) SO 141 ° 0 min 16 W/m² 3,1 °C 2,0 °C 14,5 km/h (3 Bft)
07.12.2024 14:18 21,7 °C 5,1 °C 52 % 87 % 1001,0 hPa 0,0 l/m² 12,1 km/h (2 Bft) SO 136 ° 0 min 16 W/m² 3,1 °C 0,8 °C 16,1 km/h (3 Bft)
07.12.2024 14:19 21,7 °C 5,1 °C 52 % 87 % 1000,9 hPa 0,0 l/m² 13,3 km/h (3 Bft) O-SO 114 ° 0 min 16 W/m² 3,1 °C 0,1 °C 16,1 km/h (3 Bft)
07.12.2024 14:21 21,6 °C 5,1 °C 52 % 88 % 1001,0 hPa 0,0 l/m² 13,9 km/h (3 Bft) SO 134 ° 0 min 14 W/m² 3,3 °C -0,2 °C 19,3 km/h (3 Bft)
07.12.2024 14:23 21,7 °C 5,1 °C 52 % 88 % 1000,9 hPa 0,0 l/m² 12,4 km/h (2 Bft) SO 126 ° 0 min 14 W/m² 3,3 °C 0,6 °C 17,7 km/h (3 Bft)
07.12.2024 14:24 21,7 °C 5,1 °C 52 % 87 % 1000,9 hPa 0,0 l/m² 13,0 km/h (3 Bft) SO 126 ° 0 min 14 W/m² 3,1 °C 0,3 °C 16,1 km/h (3 Bft)
07.12.2024 14:25 21,6 °C 5,1 °C 52 % 87 % 1000,9 hPa 0,0 l/m² 15,7 km/h (3 Bft) SO 130 ° 0 min 14 W/m² 3,1 °C -1,2 °C 19,3 km/h (3 Bft)
07.12.2024 14:26 21,6 °C 5,1 °C 52 % 87 % 1000,9 hPa 0,0 l/m² 13,0 km/h (3 Bft) SO 136 ° 0 min 12 W/m² 3,1 °C 0,3 °C 16,1 km/h (3 Bft)
07.12.2024 14:27 21,6 °C 5,1 °C 52 % 87 % 1000,9 hPa 0,2 l/m² 13,1 km/h (3 Bft) SO 134 ° 0 min 12 W/m² 3,1 °C 0,2 °C 19,3 km/h (3 Bft)
07.12.2024 14:28 21,7 °C 5,1 °C 52 % 88 % 1000,9 hPa 0,0 l/m² 10,9 km/h (2 Bft) O-SO 121 ° 0 min 12 W/m² 3,3 °C 1,6 °C 14,5 km/h (3 Bft)
07.12.2024 14:29 21,6 °C 5,1 °C 52 % 88 % 1000,9 hPa 0,0 l/m² 9,4 km/h (2 Bft) SO 134 ° 0 min 12 W/m² 3,3 °C 2,6 °C 11,3 km/h (2 Bft)
07.12.2024 14:30 21,7 °C 5,1 °C 52 % 88 % 1000,9 hPa 0,0 l/m² 11,1 km/h (2 Bft) SO 134 ° 0 min 12 W/m² 3,3 °C 1,4 °C 14,5 km/h (3 Bft)
07.12.2024 14:32 21,7 °C 5,1 °C 52 % 88 % 1000,9 hPa 0,0 l/m² 8,8 km/h (2 Bft) SO 134 ° 0 min 11 W/m² 3,3 °C 3,1 °C 12,9 km/h (3 Bft)
07.12.2024 14:33 21,7 °C 5,1 °C 52 % 88 % 1000,8 hPa 0,0 l/m² 7,8 km/h (2 Bft) SO 140 ° 0 min 11 W/m² 3,3 °C 3,9 °C 11,3 km/h (2 Bft)
07.12.2024 14:34 21,7 °C 5,1 °C 52 % 88 % 1000,8 hPa 0,0 l/m² 12,5 km/h (2 Bft) SO 142 ° 0 min 11 W/m² 3,3 °C 0,6 °C 16,1 km/h (3 Bft)
07.12.2024 14:35 21,7 °C 5,1 °C 52 % 88 % 1000,9 hPa 0,0 l/m² 10,5 km/h (2 Bft) SO 132 ° 0 min 12 W/m² 3,3 °C 1,8 °C 17,7 km/h (3 Bft)
07.12.2024 14:36 21,7 °C 5,1 °C 52 % 88 % 1000,9 hPa 0,0 l/m² 11,3 km/h (2 Bft) SO 130 ° 0 min 12 W/m² 3,3 °C 1,3 °C 14,5 km/h (3 Bft)
07.12.2024 14:37 21,7 °C 5,1 °C 52 % 88 % 1000,8 hPa 0,0 l/m² 12,2 km/h (2 Bft) S-SO 149 ° 0 min 11 W/m² 3,3 °C 0,8 °C 14,5 km/h (3 Bft)
07.12.2024 14:38 21,7 °C 5,1 °C 52 % 88 % 1000,9 hPa 0,0 l/m² 12,9 km/h (3 Bft) SO 129 ° 0 min 11 W/m² 3,3 °C 0,3 °C 19,3 km/h (3 Bft)
07.12.2024 14:39 21,7 °C 5,1 °C 52 % 88 % 1000,9 hPa 0,2 l/m² 11,1 km/h (2 Bft) SO 138 ° 0 min 11 W/m² 3,3 °C 1,4 °C 12,9 km/h (3 Bft)
07.12.2024 14:41 21,7 °C 5,1 °C 52 % 88 % 1000,9 hPa 0,0 l/m² 10,9 km/h (2 Bft) SO 124 ° 0 min 9 W/m² 3,3 °C 1,6 °C 12,9 km/h (3 Bft)
07.12.2024 14:43 21,7 °C 5,1 °C 52 % 88 % 1000,9 hPa 0,0 l/m² 13,2 km/h (3 Bft) SO 136 ° 0 min 9 W/m² 3,3 °C 0,2 °C 19,3 km/h (3 Bft)
07.12.2024 14:44 21,7 °C 5,1 °C 52 % 88 % 1000,9 hPa 0,0 l/m² 10,8 km/h (2 Bft) SO 130 ° 0 min 9 W/m² 3,3 °C 1,6 °C 14,5 km/h (3 Bft)
07.12.2024 14:45 21,7 °C 5,1 °C 52 % 88 % 1000,9 hPa 0,0 l/m² 14,1 km/h (3 Bft) SO 130 ° 0 min 9 W/m² 3,3 °C -0,3 °C 19,3 km/h (3 Bft)
07.12.2024 14:46 21,7 °C 5,1 °C 52 % 88 % 1000,8 hPa 0,0 l/m² 13,4 km/h (3 Bft) O-SO 123 ° 0 min 9 W/m² 3,3 °C 0,1 °C 16,1 km/h (3 Bft)
07.12.2024 14:47 21,7 °C 5,1 °C 52 % 88 % 1000,9 hPa 0,0 l/m² 12,8 km/h (3 Bft) S-SO 147 ° 0 min 9 W/m² 3,3 °C 0,4 °C 17,7 km/h (3 Bft)
07.12.2024 14:48 21,7 °C 5,1 °C 52 % 88 % 1000,9 hPa 0,0 l/m² 11,3 km/h (2 Bft) O-SO 122 ° 0 min 9 W/m² 3,3 °C 1,3 °C 14,5 km/h (3 Bft)
07.12.2024 14:49 21,6 °C 5,1 °C 52 % 88 % 1000,8 hPa 0,2 l/m² 13,0 km/h (3 Bft) O-SO 122 ° 0 min 9 W/m² 3,3 °C 0,3 °C 16,1 km/h (3 Bft)
07.12.2024 14:51 21,6 °C 5,1 °C 52 % 88 % 1000,8 hPa 0,0 l/m² 12,6 km/h (3 Bft) SO 126 ° 0 min 7 W/m² 3,3 °C 0,5 °C 16,1 km/h (3 Bft)
07.12.2024 14:53 21,6 °C 5,0 °C 52 % 88 % 1000,8 hPa 0,0 l/m² 10,7 km/h (2 Bft) O-SO 123 ° 0 min 7 W/m² 3,2 °C 1,6 °C 16,1 km/h (3 Bft)
07.12.2024 14:54 21,7 °C 5,1 °C 52 % 88 % 1000,8 hPa 0,0 l/m² 9,4 km/h (2 Bft) SO 125 ° 0 min 7 W/m² 3,3 °C 2,6 °C 14,5 km/h (3 Bft)
07.12.2024 14:55 21,7 °C 5,1 °C 52 % 88 % 1000,8 hPa 0,0 l/m² 13,6 km/h (3 Bft) S-SO 153 ° 0 min 7 W/m² 3,3 °C -0,1 °C 19,3 km/h (3 Bft)
07.12.2024 14:56 21,7 °C 5,1 °C 52 % 88 % 1000,8 hPa 0,0 l/m² 9,4 km/h (2 Bft) SO 140 ° 0 min 7 W/m² 3,3 °C 2,6 °C 12,9 km/h (3 Bft)
07.12.2024 14:57 21,7 °C 5,1 °C 52 % 88 % 1000,9 hPa 0,0 l/m² 9,5 km/h (2 Bft) S-SO 148 ° 0 min 7 W/m² 3,3 °C 2,5 °C 14,5 km/h (3 Bft)
07.12.2024 14:58 21,6 °C 5,1 °C 52 % 88 % 1000,8 hPa 0,2 l/m² 9,7 km/h (2 Bft) S-SO 157 ° 0 min 7 W/m² 3,3 °C 2,4 °C 16,1 km/h (3 Bft)
07.12.2024 14:59 21,6 °C 5,1 °C 52 % 88 % 1000,8 hPa 0,0 l/m² 9,1 km/h (2 Bft) S-SO 147 ° 0 min 7 W/m² 3,3 °C 2,8 °C 14,5 km/h (3 Bft)
07.12.2024 15:01 21,7 °C 5,1 °C 52 % 89 % 1000,9 hPa 0,0 l/m² 9,8 km/h (2 Bft) SO 136 ° 0 min 7 W/m² 3,4 °C 2,3 °C 17,7 km/h (3 Bft)
07.12.2024 15:03 21,7 °C 5,1 °C 52 % 89 % 1000,9 hPa 0,0 l/m² 9,0 km/h (2 Bft) O-SO 118 ° 0 min 7 W/m² 3,4 °C 2,9 °C 12,9 km/h (3 Bft)
07.12.2024 15:04 21,6 °C 5,0 °C 52 % 89 % 1000,9 hPa 0,0 l/m² 9,4 km/h (2 Bft) SO 132 ° 0 min 7 W/m² 3,3 °C 2,5 °C 11,3 km/h (2 Bft)
07.12.2024 15:05 21,7 °C 5,0 °C 53 % 89 % 1000,9 hPa 0,0 l/m² 7,0 km/h (2 Bft) SO 127 ° 0 min 7 W/m² 3,3 °C 4,5 °C 11,3 km/h (2 Bft)
07.12.2024 15:06 21,7 °C 5,0 °C 53 % 89 % 1000,8 hPa 0,0 l/m² 6,8 km/h (2 Bft) SO 130 ° 0 min 7 W/m² 3,3 °C 4,7 °C 9,7 km/h (2 Bft)
07.12.2024 15:07 21,7 °C 5,1 °C 53 % 89 % 1000,8 hPa 0,0 l/m² 7,4 km/h (2 Bft) SO 143 ° 0 min 7 W/m² 3,4 °C 4,2 °C 11,3 km/h (2 Bft)
07.12.2024 15:08 21,7 °C 5,0 °C 53 % 89 % 1000,9 hPa 0,2 l/m² 9,7 km/h (2 Bft) SO 141 ° 0 min 7 W/m² 3,3 °C 2,3 °C 14,5 km/h (3 Bft)
07.12.2024 15:09 21,7 °C 5,0 °C 53 % 89 % 1000,8 hPa 0,0 l/m² 11,5 km/h (2 Bft) SO 145 ° 0 min 7 W/m² 3,3 °C 1,1 °C 19,3 km/h (3 Bft)
07.12.2024 15:10 21,7 °C 5,0 °C 53 % 89 % 1000,8 hPa 0,0 l/m² 12,1 km/h (2 Bft) SO 127 ° 0 min 7 W/m² 3,3 °C 0,7 °C 14,5 km/h (3 Bft)
07.12.2024 15:12 21,7 °C 5,0 °C 53 % 89 % 1000,8 hPa 0,0 l/m² 8,9 km/h (2 Bft) SO 127 ° 0 min 7 W/m² 3,3 °C 2,9 °C 12,9 km/h (3 Bft)
07.12.2024 15:13 21,7 °C 5,1 °C 53 % 89 % 1000,8 hPa 0,0 l/m² 9,5 km/h (2 Bft) O-SO 115 ° 0 min 7 W/m² 3,4 °C 2,5 °C 11,3 km/h (2 Bft)
07.12.2024 15:14 21,7 °C 5,0 °C 53 % 89 % 1000,7 hPa 0,0 l/m² 12,2 km/h (2 Bft) O-SO 111 ° 0 min 7 W/m² 3,3 °C 0,6 °C 17,7 km/h (3 Bft)
07.12.2024 15:15 21,7 °C 5,0 °C 53 % 89 % 1000,8 hPa 0,0 l/m² 11,3 km/h (2 Bft) O-SO 121 ° 0 min 7 W/m² 3,3 °C 1,2 °C 16,1 km/h (3 Bft)
07.12.2024 15:16 21,7 °C 5,0 °C 53 % 89 % 1000,8 hPa 0,0 l/m² 13,1 km/h (3 Bft) SO 144 ° 0 min 7 W/m² 3,3 °C 0,1 °C 16,1 km/h (3 Bft)
07.12.2024 15:17 21,7 °C 5,0 °C 53 % 89 % 1000,8 hPa 0,0 l/m² 8,2 km/h (2 Bft) SO 130 ° 0 min 7 W/m² 3,3 °C 3,4 °C 14,5 km/h (3 Bft)
07.12.2024 15:18 21,7 °C 4,9 °C 53 % 89 % 1000,7 hPa 0,0 l/m² 11,0 km/h (2 Bft) O-SO 114 ° 0 min 7 W/m² 3,2 °C 1,3 °C 14,5 km/h (3 Bft)
07.12.2024 15:19 21,7 °C 5,0 °C 53 % 89 % 1000,8 hPa 0,0 l/m² 12,7 km/h (3 Bft) SO 127 ° 0 min 7 W/m² 3,3 °C 0,3 °C 17,7 km/h (3 Bft)
07.12.2024 15:20 21,7 °C 5,0 °C 53 % 89 % 1000,8 hPa 0,0 l/m² 12,2 km/h (2 Bft) SO 140 ° 0 min 7 W/m² 3,3 °C 0,6 °C 16,1 km/h (3 Bft)
07.12.2024 15:22 21,7 °C 5,0 °C 53 % 89 % 1000,7 hPa 0,0 l/m² 10,3 km/h (2 Bft) O-SO 117 ° 0 min 7 W/m² 3,3 °C 1,9 °C 14,5 km/h (3 Bft)
07.12.2024 15:24 21,8 °C 5,0 °C 53 % 89 % 1000,7 hPa 0,2 l/m² 11,7 km/h (2 Bft) O-SO 119 ° 0 min 7 W/m² 3,3 °C 0,9 °C 16,1 km/h (3 Bft)
07.12.2024 15:25 21,8 °C 4,9 °C 53 % 89 % 1000,7 hPa 0,0 l/m² 12,5 km/h (2 Bft) SO 126 ° 0 min 7 W/m² 3,2 °C 0,3 °C 16,1 km/h (3 Bft)
07.12.2024 15:26 21,8 °C 5,0 °C 53 % 89 % 1000,7 hPa 0,0 l/m² 12,9 km/h (3 Bft) O-SO 112 ° 0 min 7 W/m² 3,3 °C 0,2 °C 14,5 km/h (3 Bft)
07.12.2024 15:27 21,8 °C 5,0 °C 53 % 89 % 1000,7 hPa 0,0 l/m² 13,9 km/h (3 Bft) SO 134 ° 0 min 5 W/m² 3,3 °C -0,3 °C 17,7 km/h (3 Bft)
07.12.2024 15:28 21,8 °C 5,0 °C 53 % 89 % 1000,7 hPa 0,0 l/m² 11,4 km/h (2 Bft) O-SO 121 ° 0 min 5 W/m² 3,3 °C 1,1 °C 14,5 km/h (3 Bft)
07.12.2024 15:29 21,8 °C 5,0 °C 53 % 89 % 1000,6 hPa 0,0 l/m² 13,9 km/h (3 Bft) SO 129 ° 0 min 5 W/m² 3,3 °C -0,3 °C 16,1 km/h (3 Bft)
07.12.2024 15:30 21,8 °C 5,0 °C 53 % 89 % 1000,6 hPa 0,0 l/m² 15,5 km/h (3 Bft) SO 141 ° 0 min 5 W/m² 3,3 °C -1,2 °C 17,7 km/h (3 Bft)
07.12.2024 15:32 21,8 °C 4,9 °C 53 % 89 % 1000,6 hPa 0,2 l/m² 13,2 km/h (3 Bft) SO 130 ° 0 min 5 W/m² 3,2 °C -0,1 °C 19,3 km/h (3 Bft)
07.12.2024 15:34 21,8 °C 5,0 °C 53 % 89 % 1000,6 hPa 0,0 l/m² 13,4 km/h (3 Bft) SO 128 ° 0 min 5 W/m² 3,3 °C -0,1 °C 17,7 km/h (3 Bft)
07.12.2024 15:35 21,8 °C 4,9 °C 53 % 89 % 1000,6 hPa 0,0 l/m² 16,6 km/h (3 Bft) SO 139 ° 0 min 7 W/m² 3,2 °C -1,8 °C 19,3 km/h (3 Bft)
07.12.2024 15:36 21,8 °C 4,9 °C 53 % 89 % 1000,7 hPa 0,0 l/m² 11,5 km/h (2 Bft) O-SO 114 ° 0 min 7 W/m² 3,2 °C 1,0 °C 14,5 km/h (3 Bft)
07.12.2024 15:37 21,8 °C 5,0 °C 53 % 89 % 1000,6 hPa 0,0 l/m² 12,2 km/h (2 Bft) S-SO 151 ° 0 min 7 W/m² 3,3 °C 0,6 °C 16,1 km/h (3 Bft)
07.12.2024 15:38 21,8 °C 4,9 °C 53 % 90 % 1000,6 hPa 0,0 l/m² 12,2 km/h (2 Bft) SO 126 ° 0 min 7 W/m² 3,4 °C 0,5 °C 16,1 km/h (3 Bft)
07.12.2024 15:39 21,8 °C 5,0 °C 53 % 90 % 1000,7 hPa 0,0 l/m² 10,7 km/h (2 Bft) SO 129 ° 0 min 7 W/m² 3,5 °C 1,6 °C 14,5 km/h (3 Bft)
07.12.2024 15:41 21,8 °C 4,9 °C 53 % 90 % 1000,7 hPa 0,0 l/m² 12,6 km/h (3 Bft) SO 126 ° 0 min 7 W/m² 3,4 °C 0,3 °C 17,7 km/h (3 Bft)
07.12.2024 15:43 21,8 °C 4,9 °C 53 % 90 % 1000,7 hPa 0,0 l/m² 13,9 km/h (3 Bft) SO 134 ° 0 min 7 W/m² 3,4 °C -0,5 °C 19,3 km/h (3 Bft)
07.12.2024 15:44 21,8 °C 4,9 °C 53 % 90 % 1000,7 hPa 0,0 l/m² 11,9 km/h (2 Bft) SO 126 ° 0 min 5 W/m² 3,4 °C 0,7 °C 17,7 km/h (3 Bft)
07.12.2024 15:46 21,8 °C 4,9 °C 52 % 90 % 1000,7 hPa 0,2 l/m² 12,8 km/h (3 Bft) O-SO 117 ° 0 min 5 W/m² 3,4 °C 0,2 °C 17,7 km/h (3 Bft)
07.12.2024 15:47 21,8 °C 4,9 °C 52 % 90 % 1000,6 hPa 0,0 l/m² 16,2 km/h (3 Bft) SO 128 ° 0 min 5 W/m² 3,4 °C -1,6 °C 20,9 km/h (4 Bft)
07.12.2024 15:48 21,8 °C 5,0 °C 52 % 90 % 1000,6 hPa 0,0 l/m² 12,6 km/h (3 Bft) O-SO 116 ° 0 min 0 W/m² 3,5 °C 0,4 °C 17,7 km/h (3 Bft)
07.12.2024 15:49 21,8 °C 4,9 °C 52 % 90 % 1000,7 hPa 0,0 l/m² 12,5 km/h (2 Bft) SO 144 ° 0 min 0 W/m² 3,4 °C 0,3 °C 16,1 km/h (3 Bft)
07.12.2024 15:50 21,8 °C 4,9 °C 52 % 90 % 1000,6 hPa 0,0 l/m² 13,6 km/h (3 Bft) SO 130 ° 0 min 0 W/m² 3,4 °C -0,3 °C 16,1 km/h (3 Bft)
07.12.2024 15:52 21,8 °C 4,9 °C 52 % 90 % 1000,7 hPa 0,0 l/m² 9,7 km/h (2 Bft) SO 133 ° 0 min 0 W/m² 3,4 °C 2,2 °C 14,5 km/h (3 Bft)
07.12.2024 15:53 21,8 °C 4,9 °C 52 % 90 % 1000,7 hPa 0,0 l/m² 8,6 km/h (2 Bft) SO 136 ° 0 min 0 W/m² 3,4 °C 3,0 °C 11,3 km/h (2 Bft)
07.12.2024 15:54 21,8 °C 4,9 °C 52 % 90 % 1000,7 hPa 0,0 l/m² 10,1 km/h (2 Bft) SO 146 ° 0 min 0 W/m² 3,4 °C 1,9 °C 16,1 km/h (3 Bft)
07.12.2024 15:55 21,8 °C 4,9 °C 52 % 90 % 1000,6 hPa 0,0 l/m² 13,7 km/h (3 Bft) SO 138 ° 0 min 0 W/m² 3,4 °C -0,4 °C 17,7 km/h (3 Bft)
07.12.2024 15:56 21,7 °C 4,9 °C 52 % 90 % 1000,6 hPa 0,0 l/m² 16,7 km/h (3 Bft) SO 128 ° 0 min 0 W/m² 3,4 °C -1,9 °C 22,5 km/h (4 Bft)
07.12.2024 15:57 21,7 °C 4,9 °C 52 % 90 % 1000,6 hPa 0,0 l/m² 13,3 km/h (3 Bft) O-SO 116 ° 0 min 0 W/m² 3,4 °C -0,1 °C 17,7 km/h (3 Bft)
07.12.2024 15:58 21,7 °C 4,9 °C 52 % 90 % 1000,6 hPa 0,0 l/m² 14,5 km/h (3 Bft) O-SO 121 ° 0 min 0 W/m² 3,4 °C -0,8 °C 17,7 km/h (3 Bft)
07.12.2024 15:59 21,7 °C 4,9 °C 52 % 90 % 1000,7 hPa 0,2 l/m² 14,5 km/h (3 Bft) O-SO 117 ° 0 min 0 W/m² 3,4 °C -0,8 °C 17,7 km/h (3 Bft)
07.12.2024 16:00 21,7 °C 4,9 °C 52 % 90 % 1000,7 hPa 0,0 l/m² 12,5 km/h (2 Bft) SO 136 ° 0 min 0 W/m² 3,4 °C 0,3 °C 17,7 km/h (3 Bft)
07.12.2024 16:02 21,7 °C 4,9 °C 52 % 90 % 1000,6 hPa 0,0 l/m² 15,1 km/h (3 Bft) SO 129 ° 0 min 0 W/m² 3,4 °C -1,1 °C 19,3 km/h (3 Bft)
07.12.2024 16:04 21,7 °C 4,9 °C 52 % 90 % 1000,6 hPa 0,0 l/m² 16,5 km/h (3 Bft) SO 135 ° 0 min 0 W/m² 3,4 °C -1,8 °C 22,5 km/h (4 Bft)
07.12.2024 16:05 21,7 °C 4,9 °C 52 % 90 % 1000,6 hPa 0,0 l/m² 12,5 km/h (2 Bft) SO 134 ° 0 min 0 W/m² 3,4 °C 0,3 °C 17,7 km/h (3 Bft)
07.12.2024 16:06 21,7 °C 4,9 °C 52 % 90 % 1000,6 hPa 0,0 l/m² 14,6 km/h (3 Bft) SO 130 ° 0 min 0 W/m² 3,4 °C -0,8 °C 17,7 km/h (3 Bft)
07.12.2024 16:07 21,7 °C 4,9 °C 52 % 90 % 1000,6 hPa 0,0 l/m² 9,1 km/h (2 Bft) SO 131 ° 0 min 0 W/m² 3,4 °C 2,6 °C 12,9 km/h (3 Bft)
07.12.2024 16:08 21,7 °C 4,9 °C 52 % 90 % 1000,7 hPa 0,0 l/m² 13,3 km/h (3 Bft) SO 128 ° 0 min 0 W/m² 3,4 °C -0,1 °C 16,1 km/h (3 Bft)
07.12.2024 16:09 21,7 °C 4,9 °C 52 % 90 % 1000,6 hPa 0,0 l/m² 11,9 km/h (2 Bft) SO 130 ° 0 min 0 W/m² 3,4 °C 0,7 °C 16,1 km/h (3 Bft)
07.12.2024 16:10 21,7 °C 4,9 °C 52 % 90 % 1000,6 hPa 0,0 l/m² 14,0 km/h (3 Bft) SO 134 ° 0 min 0 W/m² 3,4 °C -0,5 °C 17,7 km/h (3 Bft)
07.12.2024 16:12 21,7 °C 4,9 °C 52 % 90 % 1000,6 hPa 0,0 l/m² 12,2 km/h (2 Bft) SO 135 ° 0 min 0 W/m² 3,4 °C 0,5 °C 17,7 km/h (3 Bft)
07.12.2024 16:14 21,7 °C 4,9 °C 53 % 90 % 1000,6 hPa 0,0 l/m² 13,1 km/h (3 Bft) O-SO 123 ° 0 min 0 W/m² 3,4 °C -0,0 °C 17,7 km/h (3 Bft)
07.12.2024 16:15 21,7 °C 4,9 °C 52 % 90 % 1000,6 hPa 0,0 l/m² 13,7 km/h (3 Bft) SO 133 ° 0 min 0 W/m² 3,4 °C -0,4 °C 19,3 km/h (3 Bft)
07.12.2024 16:16 21,7 °C 4,9 °C 53 % 90 % 1000,6 hPa 0,0 l/m² 12,5 km/h (2 Bft) S-SO 153 ° 0 min 0 W/m² 3,4 °C 0,3 °C 16,1 km/h (3 Bft)
07.12.2024 16:17 21,7 °C 4,9 °C 53 % 90 % 1000,6 hPa 0,0 l/m² 14,3 km/h (3 Bft) S-SO 155 ° 0 min 0 W/m² 3,4 °C -0,7 °C 17,7 km/h (3 Bft)
07.12.2024 16:18 21,7 °C 4,9 °C 53 % 90 % 1000,6 hPa 0,0 l/m² 15,0 km/h (3 Bft) S-SO 150 ° 0 min 0 W/m² 3,4 °C -1,0 °C 20,9 km/h (4 Bft)
07.12.2024 16:19 21,7 °C 4,9 °C 53 % 90 % 1000,6 hPa 0,0 l/m² 9,7 km/h (2 Bft) SO 146 ° 0 min 0 W/m² 3,4 °C 2,2 °C 12,9 km/h (3 Bft)
07.12.2024 16:20 21,7 °C 4,9 °C 53 % 90 % 1000,6 hPa 0,0 l/m² 10,1 km/h (2 Bft) S-SO 157 ° 0 min 0 W/m² 3,4 °C 1,9 °C 14,5 km/h (3 Bft)
07.12.2024 16:21 21,7 °C 4,9 °C 53 % 90 % 1000,6 hPa 0,0 l/m² 11,1 km/h (2 Bft) SO 127 ° 0 min 0 W/m² 3,4 °C 1,2 °C 16,1 km/h (3 Bft)
07.12.2024 16:22 21,7 °C 4,9 °C 53 % 90 % 1000,6 hPa 0,0 l/m² 13,8 km/h (3 Bft) O-SO 123 ° 0 min 0 W/m² 3,4 °C -0,4 °C 16,1 km/h (3 Bft)
07.12.2024 16:23 21,7 °C 4,9 °C 53 % 90 % 1000,6 hPa 0,0 l/m² 8,5 km/h (2 Bft) SO 144 ° 0 min 0 W/m² 3,4 °C 3,1 °C 12,9 km/h (3 Bft)
07.12.2024 16:24 21,7 °C 4,9 °C 53 % 90 % 1000,6 hPa 0,0 l/m² 10,7 km/h (2 Bft) O-SO 122 ° 0 min 0 W/m² 3,4 °C 1,5 °C 17,7 km/h (3 Bft)
07.12.2024 16:25 21,7 °C 4,9 °C 53 % 90 % 1000,6 hPa 0,0 l/m² 14,2 km/h (3 Bft) SO 136 ° 0 min 0 W/m² 3,4 °C -0,6 °C 17,7 km/h (3 Bft)
07.12.2024 16:26 21,7 °C 4,9 °C 53 % 90 % 1000,5 hPa 0,2 l/m² 11,6 km/h (2 Bft) SO 126 ° 0 min 0 W/m² 3,4 °C 0,9 °C 16,1 km/h (3 Bft)
07.12.2024 16:27 21,7 °C 4,9 °C 53 % 90 % 1000,6 hPa 0,0 l/m² 11,7 km/h (2 Bft) SO 133 ° 0 min 0 W/m² 3,4 °C 0,8 °C 14,5 km/h (3 Bft)
07.12.2024 16:28 21,7 °C 4,9 °C 53 % 90 % 1000,6 hPa 0,0 l/m² 12,8 km/h (3 Bft) S-SO 155 ° 0 min 0 W/m² 3,4 °C 0,2 °C 16,1 km/h (3 Bft)
07.12.2024 16:29 21,7 °C 4,9 °C 53 % 90 % 1000,6 hPa 0,0 l/m² 11,5 km/h (2 Bft) SO 126 ° 0 min 0 W/m² 3,4 °C 1,0 °C 14,5 km/h (3 Bft)
07.12.2024 16:30 21,6 °C 4,9 °C 53 % 90 % 1000,6 hPa 0,0 l/m² 12,1 km/h (2 Bft) SO 131 ° 0 min 0 W/m² 3,4 °C 0,6 °C 14,5 km/h (3 Bft)
07.12.2024 16:32 21,6 °C 4,9 °C 53 % 90 % 1000,6 hPa 0,0 l/m² 13,2 km/h (3 Bft) S-SO 161 ° 0 min 0 W/m² 3,4 °C -0,1 °C 19,3 km/h (3 Bft)
07.12.2024 16:34 21,7 °C 4,9 °C 53 % 90 % 1000,6 hPa 0,0 l/m² 10,4 km/h (2 Bft) SO 146 ° 0 min 0 W/m² 3,4 °C 1,7 °C 17,7 km/h (3 Bft)
07.12.2024 16:35 21,6 °C 4,9 °C 53 % 90 % 1000,7 hPa 0,0 l/m² 8,5 km/h (2 Bft) SO 142 ° 0 min 0 W/m² 3,4 °C 3,1 °C 12,9 km/h (3 Bft)
07.12.2024 16:36 21,6 °C 4,9 °C 53 % 90 % 1000,6 hPa 0,0 l/m² 9,9 km/h (2 Bft) SO 139 ° 0 min 0 W/m² 3,4 °C 2,0 °C 16,1 km/h (3 Bft)
07.12.2024 16:37 21,6 °C 4,9 °C 53 % 90 % 1000,7 hPa 0,0 l/m² 8,7 km/h (2 Bft) SO 128 ° 0 min 0 W/m² 3,4 °C 2,9 °C 14,5 km/h (3 Bft)
07.12.2024 16:38 21,6 °C 4,9 °C 53 % 90 % 1000,6 hPa 0,0 l/m² 12,7 km/h (3 Bft) SO 130 ° 0 min 0 W/m² 3,4 °C 0,2 °C 17,7 km/h (3 Bft)
07.12.2024 16:39 21,6 °C 4,9 °C 53 % 90 % 1000,7 hPa 0,2 l/m² 12,7 km/h (3 Bft) SO 138 ° 0 min 0 W/m² 3,4 °C 0,2 °C 17,7 km/h (3 Bft)
07.12.2024 16:40 21,6 °C 4,9 °C 53 % 90 % 1000,7 hPa 0,0 l/m² 8,8 km/h (2 Bft) SO 145 ° 0 min 0 W/m² 3,4 °C 2,9 °C 11,3 km/h (2 Bft)
07.12.2024 16:42 21,6 °C 4,9 °C 53 % 90 % 1000,7 hPa 0,0 l/m² 11,5 km/h (2 Bft) SO 136 ° 0 min 0 W/m² 3,4 °C 1,0 °C 16,1 km/h (3 Bft)
07.12.2024 16:44 21,6 °C 4,9 °C 53 % 90 % 1000,8 hPa 0,0 l/m² 12,9 km/h (3 Bft) O-SO 122 ° 0 min 0 W/m² 3,4 °C 0,1 °C 17,7 km/h (3 Bft)
07.12.2024 16:45 21,6 °C 4,9 °C 53 % 90 % 1000,7 hPa 0,0 l/m² 12,5 km/h (2 Bft) SO 141 ° 0 min 0 W/m² 3,4 °C 0,3 °C 16,1 km/h (3 Bft)
07.12.2024 16:46 21,6 °C 4,9 °C 52 % 90 % 1000,7 hPa 0,2 l/m² 13,4 km/h (3 Bft) S-SO 149 ° 0 min 0 W/m² 3,4 °C -0,2 °C 16,1 km/h (3 Bft)
07.12.2024 16:47 21,6 °C 4,9 °C 52 % 90 % 1000,7 hPa 0,0 l/m² 14,3 km/h (3 Bft) S-SO 150 ° 0 min 0 W/m² 3,4 °C -0,7 °C 19,3 km/h (3 Bft)
07.12.2024 16:48 21,6 °C 4,9 °C 52 % 90 % 1000,8 hPa 0,0 l/m² 10,3 km/h (2 Bft) SO 132 ° 0 min 0 W/m² 3,4 °C 1,8 °C 16,1 km/h (3 Bft)
07.12.2024 16:49 21,6 °C 4,9 °C 51 % 90 % 1000,7 hPa 0,0 l/m² 12,4 km/h (2 Bft) SO 129 ° 0 min 0 W/m² 3,4 °C 0,4 °C 17,7 km/h (3 Bft)
07.12.2024 16:50 21,6 °C 4,9 °C 52 % 90 % 1000,7 hPa 0,0 l/m² 10,6 km/h (2 Bft) SO 132 ° 0 min 0 W/m² 3,4 °C 1,5 °C 14,5 km/h (3 Bft)
07.12.2024 16:52 21,6 °C 4,9 °C 52 % 90 % 1000,7 hPa 0,0 l/m² 10,2 km/h (2 Bft) SO 138 ° 0 min 0 W/m² 3,4 °C 1,8 °C 14,5 km/h (3 Bft)
07.12.2024 16:54 21,6 °C 4,9 °C 52 % 90 % 1000,7 hPa 0,2 l/m² 8,9 km/h (2 Bft) SO 141 ° 0 min 0 W/m² 3,4 °C 2,8 °C 12,9 km/h (3 Bft)
07.12.2024 16:55 21,6 °C 4,9 °C 52 % 90 % 1000,8 hPa 0,0 l/m² 8,0 km/h (2 Bft) SO 128 ° 0 min 0 W/m² 3,4 °C 3,5 °C 12,9 km/h (3 Bft)
07.12.2024 16:56 21,6 °C 4,9 °C 52 % 90 % 1000,7 hPa 0,0 l/m² 9,5 km/h (2 Bft) SO 138 ° 0 min 0 W/m² 3,4 °C 2,3 °C 14,5 km/h (3 Bft)
07.12.2024 16:57 21,6 °C 4,9 °C 52 % 90 % 1000,7 hPa 0,0 l/m² 6,9 km/h (2 Bft) SO 126 ° 0 min 0 W/m² 3,4 °C 4,5 °C 8,0 km/h (2 Bft)
07.12.2024 16:58 21,6 °C 4,9 °C 52 % 90 % 1000,7 hPa 0,0 l/m² 7,6 km/h (2 Bft) SO 141 ° 0 min 0 W/m² 3,4 °C 3,8 °C 11,3 km/h (2 Bft)
07.12.2024 16:59 21,6 °C 4,9 °C 52 % 90 % 1000,7 hPa 0,0 l/m² 10,3 km/h (2 Bft) SO 134 ° 0 min 0 W/m² 3,4 °C 1,8 °C 12,9 km/h (3 Bft)
07.12.2024 17:00 21,6 °C 4,9 °C 52 % 90 % 1000,8 hPa 0,0 l/m² 11,1 km/h (2 Bft) SO 144 ° 0 min 0 W/m² 3,4 °C 1,2 °C 14,5 km/h (3 Bft)
07.12.2024 17:02 21,6 °C 4,9 °C 52 % 90 % 1000,6 hPa 0,2 l/m² 11,2 km/h (2 Bft) SO 136 ° 0 min 0 W/m² 3,4 °C 1,1 °C 20,9 km/h (4 Bft)
07.12.2024 17:04 21,6 °C 4,9 °C 52 % 90 % 1000,8 hPa 0,0 l/m² 7,8 km/h (2 Bft) SO 126 ° 0 min 0 W/m² 3,4 °C 3,7 °C 12,9 km/h (3 Bft)
07.12.2024 17:05 21,6 °C 4,9 °C 52 % 90 % 1000,8 hPa 0,0 l/m² 5,9 km/h (2 Bft) SO 141 ° 0 min 0 W/m² 3,4 °C 4,9 °C 8,0 km/h (2 Bft)
07.12.2024 17:06 21,6 °C 4,9 °C 52 % 90 % 1000,9 hPa 0,0 l/m² 8,6 km/h (2 Bft) SO 129 ° 0 min 0 W/m² 3,4 °C 3,0 °C 14,5 km/h (3 Bft)
07.12.2024 17:07 21,6 °C 4,9 °C 52 % 91 % 1000,8 hPa 0,2 l/m² 8,0 km/h (2 Bft) O-SO 123 ° 0 min 0 W/m² 3,6 °C 3,5 °C 14,5 km/h (3 Bft)
07.12.2024 17:08 21,6 °C 4,9 °C 52 % 91 % 1000,8 hPa 0,0 l/m² 10,5 km/h (2 Bft) SO 128 ° 0 min 0 W/m² 3,6 °C 1,6 °C 14,5 km/h (3 Bft)
07.12.2024 17:09 21,6 °C 4,9 °C 52 % 91 % 1000,8 hPa 0,0 l/m² 12,0 km/h (2 Bft) SO 132 ° 0 min 0 W/m² 3,6 °C 0,6 °C 16,1 km/h (3 Bft)
07.12.2024 17:10 21,6 °C 4,9 °C 52 % 91 % 1000,9 hPa 0,0 l/m² 7,5 km/h (2 Bft) SO 146 ° 0 min 0 W/m² 3,6 °C 3,9 °C 12,9 km/h (3 Bft)
07.12.2024 17:11 21,6 °C 4,9 °C 52 % 91 % 1000,9 hPa 0,0 l/m² 7,8 km/h (2 Bft) S-SO 163 ° 0 min 0 W/m² 3,6 °C 3,7 °C 11,3 km/h (2 Bft)
07.12.2024 17:12 21,6 °C 4,9 °C 52 % 91 % 1000,9 hPa 0,0 l/m² 5,7 km/h (2 Bft) SO 144 ° 0 min 0 W/m² 3,6 °C 4,9 °C 9,7 km/h (2 Bft)
07.12.2024 17:13 21,6 °C 4,9 °C 52 % 91 % 1000,9 hPa 0,2 l/m² 7,8 km/h (2 Bft) SO 134 ° 0 min 0 W/m² 3,6 °C 3,7 °C 11,3 km/h (2 Bft)
07.12.2024 17:14 21,6 °C 4,9 °C 52 % 91 % 1000,8 hPa 0,0 l/m² 5,3 km/h (1 Bft) SO 134 ° 0 min 0 W/m² 3,6 °C 4,9 °C 8,0 km/h (2 Bft)
07.12.2024 17:15 21,6 °C 4,9 °C 52 % 91 % 1000,9 hPa 0,0 l/m² 10,5 km/h (2 Bft) SO 129 ° 0 min 0 W/m² 3,6 °C 1,6 °C 12,9 km/h (3 Bft)
07.12.2024 17:16 21,6 °C 4,9 °C 52 % 91 % 1000,8 hPa 0,0 l/m² 7,3 km/h (2 Bft) SO 129 ° 0 min 0 W/m² 3,6 °C 4,1 °C 11,3 km/h (2 Bft)
07.12.2024 17:17 21,6 °C 4,9 °C 52 % 91 % 1000,8 hPa 0,0 l/m² 7,8 km/h (2 Bft) SO 132 ° 0 min 0 W/m² 3,6 °C 3,7 °C 12,9 km/h (3 Bft)
07.12.2024 17:18 21,6 °C 4,9 °C 52 % 91 % 1000,9 hPa 0,0 l/m² 8,1 km/h (2 Bft) SO 136 ° 0 min 0 W/m² 3,6 °C 3,4 °C 14,5 km/h (3 Bft)
07.12.2024 17:19 21,6 °C 4,9 °C 52 % 91 % 1000,8 hPa 0,2 l/m² 7,4 km/h (2 Bft) SO 135 ° 0 min 0 W/m² 3,6 °C 4,0 °C 9,7 km/h (2 Bft)
07.12.2024 17:20 21,6 °C 4,9 °C 52 % 91 % 1000,9 hPa 0,0 l/m² 7,0 km/h (2 Bft) SO 124 ° 0 min 0 W/m² 3,6 °C 4,4 °C 8,0 km/h (2 Bft)
07.12.2024 17:21 21,5 °C 4,9 °C 52 % 91 % 1000,8 hPa 0,0 l/m² 9,5 km/h (2 Bft) SO 139 ° 0 min 0 W/m² 3,6 °C 2,3 °C 14,5 km/h (3 Bft)
07.12.2024 17:22 21,6 °C 4,9 °C 52 % 91 % 1000,8 hPa 0,0 l/m² 8,5 km/h (2 Bft) SO 136 ° 0 min 0 W/m² 3,6 °C 3,1 °C 14,5 km/h (3 Bft)
07.12.2024 17:23 21,6 °C 4,9 °C 52 % 91 % 1000,8 hPa 0,0 l/m² 6,2 km/h (2 Bft) SO 143 ° 0 min 0 W/m² 3,6 °C 4,9 °C 8,0 km/h (2 Bft)
07.12.2024 17:24 21,6 °C 4,9 °C 52 % 91 % 1000,8 hPa 0,0 l/m² 6,2 km/h (2 Bft) SO 146 ° 0 min 0 W/m² 3,6 °C 4,9 °C 9,7 km/h (2 Bft)
07.12.2024 17:25 21,6 °C 4,9 °C 52 % 91 % 1000,8 hPa 0,0 l/m² 8,0 km/h (2 Bft) SO 136 ° 0 min 0 W/m² 3,6 °C 3,5 °C 12,9 km/h (3 Bft)
07.12.2024 17:26 21,6 °C 4,9 °C 52 % 91 % 1000,8 hPa 0,0 l/m² 7,1 km/h (2 Bft) SO 138 ° 0 min 0 W/m² 3,6 °C 4,3 °C 14,5 km/h (3 Bft)
07.12.2024 17:27 21,6 °C 4,9 °C 52 % 91 % 1000,8 hPa 0,2 l/m² 9,3 km/h (2 Bft) SO 136 ° 0 min 0 W/m² 3,6 °C 2,5 °C 14,5 km/h (3 Bft)
07.12.2024 17:28 21,6 °C 4,9 °C 52 % 91 % 1000,8 hPa 0,0 l/m² 7,3 km/h (2 Bft) SO 140 ° 0 min 0 W/m² 3,6 °C 4,1 °C 12,9 km/h (3 Bft)
07.12.2024 17:29 21,6 °C 4,9 °C 52 % 91 % 1000,8 hPa 0,0 l/m² 7,8 km/h (2 Bft) SO 139 ° 0 min 0 W/m² 3,6 °C 3,7 °C 11,3 km/h (2 Bft)
07.12.2024 17:30 21,6 °C 4,9 °C 52 % 91 % 1000,8 hPa 0,0 l/m² 6,6 km/h (2 Bft) SO 143 ° 0 min 0 W/m² 3,6 °C 4,7 °C 11,3 km/h (2 Bft)
07.12.2024 17:31 21,5 °C 4,9 °C 52 % 91 % 1000,8 hPa 0,0 l/m² 6,4 km/h (2 Bft) SO 142 ° 0 min 0 W/m² 3,6 °C 4,9 °C 8,0 km/h (2 Bft)
07.12.2024 17:32 21,6 °C 4,9 °C 52 % 91 % 1000,8 hPa 0,0 l/m² 4,8 km/h (1 Bft) SO 143 ° 0 min 0 W/m² 3,6 °C 4,9 °C 6,4 km/h (2 Bft)
07.12.2024 17:33 21,6 °C 4,9 °C 52 % 91 % 1000,8 hPa 0,2 l/m² 5,8 km/h (2 Bft) SO 132 ° 0 min 0 W/m² 3,6 °C 4,9 °C 9,7 km/h (2 Bft)
07.12.2024 17:34 21,6 °C 4,9 °C 52 % 91 % 1000,7 hPa 0,0 l/m² 5,3 km/h (1 Bft) S-SO 150 ° 0 min 0 W/m² 3,6 °C 4,9 °C 8,0 km/h (2 Bft)
07.12.2024 17:35 21,6 °C 4,9 °C 52 % 91 % 1000,7 hPa 0,0 l/m² 6,9 km/h (2 Bft) SO 140 ° 0 min 0 W/m² 3,6 °C 4,5 °C 11,3 km/h (2 Bft)
07.12.2024 17:36 21,6 °C 4,9 °C 52 % 91 % 1000,7 hPa 0,0 l/m² 6,1 km/h (2 Bft) O-SO 123 ° 0 min 0 W/m² 3,6 °C 4,9 °C 8,0 km/h (2 Bft)
07.12.2024 17:37 21,6 °C 4,9 °C 52 % 91 % 1000,8 hPa 0,0 l/m² 7,1 km/h (2 Bft) SO 125 ° 0 min 0 W/m² 3,6 °C 4,3 °C 9,7 km/h (2 Bft)
07.12.2024 17:38 21,6 °C 4,9 °C 52 % 91 % 1000,7 hPa 0,0 l/m² 6,8 km/h (2 Bft) SO 136 ° 0 min 0 W/m² 3,6 °C 4,6 °C 11,3 km/h (2 Bft)
07.12.2024 17:39 21,6 °C 4,9 °C 52 % 91 % 1000,7 hPa 0,0 l/m² 6,0 km/h (2 Bft) SO 132 ° 0 min 0 W/m² 3,6 °C 4,9 °C 11,3 km/h (2 Bft)
07.12.2024 17:40 21,6 °C 4,9 °C 52 % 91 % 1000,7 hPa 0,0 l/m² 5,8 km/h (2 Bft) S-SO 148 ° 0 min 0 W/m² 3,6 °C 4,9 °C 9,7 km/h (2 Bft)
07.12.2024 17:41 21,6 °C 4,9 °C 52 % 91 % 1000,7 hPa 0,0 l/m² 5,8 km/h (2 Bft) S-SO 154 ° 0 min 0 W/m² 3,6 °C 4,9 °C 9,7 km/h (2 Bft)
07.12.2024 17:42 21,6 °C 4,9 °C 52 % 91 % 1000,6 hPa 0,0 l/m² 5,7 km/h (2 Bft) SO 133 ° 0 min 0 W/m² 3,6 °C 4,9 °C 8,0 km/h (2 Bft)
07.12.2024 17:43 21,6 °C 4,9 °C 52 % 91 % 1000,7 hPa 0,2 l/m² 5,6 km/h (2 Bft) SO 130 ° 0 min 0 W/m² 3,6 °C 4,9 °C 8,0 km/h (2 Bft)
07.12.2024 17:44 21,6 °C 4,9 °C 52 % 91 % 1000,7 hPa 0,0 l/m² 5,9 km/h (2 Bft) SO 134 ° 0 min 0 W/m² 3,6 °C 4,9 °C 8,0 km/h (2 Bft)
07.12.2024 17:45 21,6 °C 4,9 °C 52 % 91 % 1000,6 hPa 0,0 l/m² 3,7 km/h (1 Bft) SO 134 ° 0 min 0 W/m² 3,6 °C 4,9 °C 4,8 km/h (1 Bft)
07.12.2024 17:46 21,6 °C 4,9 °C 52 % 91 % 1000,7 hPa 0,0 l/m² 7,0 km/h (2 Bft) SO 127 ° 0 min 0 W/m² 3,6 °C 4,4 °C 11,3 km/h (2 Bft)
07.12.2024 17:47 21,6 °C 4,9 °C 52 % 91 % 1000,7 hPa 0,0 l/m² 7,8 km/h (2 Bft) SO 134 ° 0 min 0 W/m² 3,6 °C 3,7 °C 11,3 km/h (2 Bft)
07.12.2024 17:48 21,6 °C 4,9 °C 52 % 91 % 1000,7 hPa 0,0 l/m² 5,6 km/h (2 Bft) SO 134 ° 0 min 0 W/m² 3,6 °C 4,9 °C 8,0 km/h (2 Bft)
07.12.2024 17:49 21,6 °C 4,9 °C 52 % 91 % 1000,6 hPa 0,0 l/m² 4,6 km/h (1 Bft) SO 128 ° 0 min 0 W/m² 3,6 °C 4,9 °C 6,4 km/h (2 Bft)
07.12.2024 17:50 21,6 °C 4,9 °C 52 % 91 % 1000,7 hPa 0,2 l/m² 5,2 km/h (1 Bft) SO 130 ° 0 min 0 W/m² 3,6 °C 4,9 °C 8,0 km/h (2 Bft)
07.12.2024 17:51 21,6 °C 4,9 °C 52 % 91 % 1000,7 hPa 0,0 l/m² 6,6 km/h (2 Bft) S-SO 148 ° 0 min 0 W/m² 3,6 °C 4,7 °C 8,0 km/h (2 Bft)
07.12.2024 17:52 21,6 °C 4,9 °C 52 % 91 % 1000,7 hPa 0,0 l/m² 6,8 km/h (2 Bft) SO 124 ° 0 min 0 W/m² 3,6 °C 4,6 °C 11,3 km/h (2 Bft)
07.12.2024 17:53 21,6 °C 4,9 °C 52 % 91 % 1000,6 hPa 0,0 l/m² 7,0 km/h (2 Bft) O-SO 123 ° 0 min 0 W/m² 3,6 °C 4,4 °C 11,3 km/h (2 Bft)
07.12.2024 17:54 21,6 °C 4,9 °C 52 % 91 % 1000,6 hPa 0,0 l/m² 6,8 km/h (2 Bft) SO 130 ° 0 min 0 W/m² 3,6 °C 4,6 °C 11,3 km/h (2 Bft)
07.12.2024 17:55 21,6 °C 4,9 °C 52 % 91 % 1000,6 hPa 0,0 l/m² 6,9 km/h (2 Bft) SO 126 ° 0 min 0 W/m² 3,6 °C 4,5 °C 11,3 km/h (2 Bft)
07.12.2024 17:56 21,6 °C 4,9 °C 52 % 91 % 1000,6 hPa 0,0 l/m² 6,1 km/h (2 Bft) SO 126 ° 0 min 0 W/m² 3,6 °C 4,9 °C 11,3 km/h (2 Bft)
07.12.2024 17:57 21,6 °C 4,9 °C 52 % 91 % 1000,6 hPa 0,0 l/m² 6,2 km/h (2 Bft) O-SO 117 ° 0 min 0 W/m² 3,6 °C 4,9 °C 11,3 km/h (2 Bft)
07.12.2024 17:58 21,6 °C 4,9 °C 52 % 91 % 1000,6 hPa 0,0 l/m² 8,4 km/h (2 Bft) SO 137 ° 0 min 0 W/m² 3,6 °C 3,2 °C 11,3 km/h (2 Bft)
07.12.2024 17:59 21,6 °C 4,9 °C 52 % 91 % 1000,6 hPa 0,0 l/m² 7,1 km/h (2 Bft) SO 136 ° 0 min 0 W/m² 3,6 °C 4,3 °C 11,3 km/h (2 Bft)
07.12.2024 18:00 21,6 °C 4,9 °C 52 % 91 % 1000,6 hPa 0,0 l/m² 5,6 km/h (2 Bft) SO 127 ° 0 min 0 W/m² 3,6 °C 4,9 °C 8,0 km/h (2 Bft)
07.12.2024 18:01 21,6 °C 4,9 °C 52 % 91 % 1000,6 hPa 0,0 l/m² 6,4 km/h (2 Bft) SO 132 ° 0 min 0 W/m² 3,6 °C 4,9 °C 11,3 km/h (2 Bft)
07.12.2024 18:02 21,6 °C 4,9 °C 52 % 91 % 1000,5 hPa 0,0 l/m² 3,8 km/h (1 Bft) SO 130 ° 0 min 0 W/m² 3,6 °C 4,9 °C 6,4 km/h (2 Bft)
07.12.2024 18:03 21,6 °C 4,9 °C 52 % 91 % 1000,6 hPa 0,0 l/m² 4,4 km/h (1 Bft) SO 132 ° 0 min 0 W/m² 3,6 °C 4,9 °C 6,4 km/h (2 Bft)
07.12.2024 18:04 21,6 °C 4,9 °C 52 % 91 % 1000,6 hPa 0,0 l/m² 6,3 km/h (2 Bft) SO 132 ° 0 min 0 W/m² 3,6 °C 4,9 °C 11,3 km/h (2 Bft)
07.12.2024 18:05 21,6 °C 4,9 °C 52 % 91 % 1000,6 hPa 0,0 l/m² 5,4 km/h (2 Bft) SO 128 ° 0 min 0 W/m² 3,6 °C 4,9 °C 6,4 km/h (2 Bft)
07.12.2024 18:06 21,6 °C 4,9 °C 52 % 91 % 1000,6 hPa 0,0 l/m² 4,3 km/h (1 Bft) S-SO 147 ° 0 min 0 W/m² 3,6 °C 4,9 °C 6,4 km/h (2 Bft)
07.12.2024 18:07 21,6 °C 4,9 °C 52 % 91 % 1000,6 hPa 0,0 l/m² 4,7 km/h (1 Bft) SO 131 ° 0 min 0 W/m² 3,6 °C 4,9 °C 6,4 km/h (2 Bft)
07.12.2024 18:08 21,6 °C 4,9 °C 52 % 91 % 1000,6 hPa 0,0 l/m² 9,0 km/h (2 Bft) SO 130 ° 0 min 0 W/m² 3,6 °C 2,7 °C 11,3 km/h (2 Bft)
07.12.2024 18:09 21,6 °C 4,9 °C 52 % 91 % 1000,5 hPa 0,2 l/m² 4,3 km/h (1 Bft) SO 127 ° 0 min 0 W/m² 3,6 °C 4,9 °C 6,4 km/h (2 Bft)
07.12.2024 18:10 21,6 °C 4,9 °C 52 % 91 % 1000,5 hPa 0,0 l/m² 6,0 km/h (2 Bft) SO 134 ° 0 min 0 W/m² 3,6 °C 4,9 °C 8,0 km/h (2 Bft)
07.12.2024 18:11 21,6 °C 4,9 °C 52 % 91 % 1000,5 hPa 0,0 l/m² 5,5 km/h (2 Bft) SO 136 ° 0 min 0 W/m² 3,6 °C 4,9 °C 8,0 km/h (2 Bft)
07.12.2024 18:12 21,6 °C 4,9 °C 52 % 91 % 1000,6 hPa 0,0 l/m² 5,5 km/h (2 Bft) SO 129 ° 0 min 0 W/m² 3,6 °C 4,9 °C 6,4 km/h (2 Bft)
07.12.2024 18:13 21,6 °C 4,9 °C 52 % 91 % 1000,6 hPa 0,0 l/m² 7,4 km/h (2 Bft) SO 137 ° 0 min 0 W/m² 3,6 °C 4,0 °C 12,9 km/h (3 Bft)
07.12.2024 18:14 21,6 °C 4,8 °C 52 % 91 % 1000,6 hPa 0,0 l/m² 5,1 km/h (1 Bft) SO 133 ° 0 min 0 W/m² 3,5 °C 4,8 °C 6,4 km/h (2 Bft)
07.12.2024 18:15 21,6 °C 4,8 °C 51 % 91 % 1000,6 hPa 0,0 l/m² 6,9 km/h (2 Bft) SO 128 ° 0 min 0 W/m² 3,5 °C 4,4 °C 11,3 km/h (2 Bft)
07.12.2024 18:16 21,6 °C 4,8 °C 51 % 91 % 1000,6 hPa 0,0 l/m² 5,1 km/h (1 Bft) S-SO 148 ° 0 min 0 W/m² 3,5 °C 4,8 °C 6,4 km/h (2 Bft)
07.12.2024 18:17 21,6 °C 4,8 °C 51 % 91 % 1000,6 hPa 0,2 l/m² 9,2 km/h (2 Bft) SO 138 ° 0 min 0 W/m² 3,5 °C 2,4 °C 11,3 km/h (2 Bft)
07.12.2024 18:18 21,6 °C 4,8 °C 51 % 91 % 1000,6 hPa 0,0 l/m² 7,3 km/h (2 Bft) SO 144 ° 0 min 0 W/m² 3,5 °C 4,0 °C 11,3 km/h (2 Bft)
07.12.2024 18:19 21,5 °C 4,8 °C 51 % 91 % 1000,6 hPa 0,0 l/m² 5,0 km/h (1 Bft) SO 130 ° 0 min 0 W/m² 3,5 °C 4,8 °C 8,0 km/h (2 Bft)
07.12.2024 18:20 21,5 °C 4,8 °C 51 % 91 % 1000,5 hPa 0,0 l/m² 4,8 km/h (1 Bft) SO 145 ° 0 min 0 W/m² 3,5 °C 4,8 °C 6,4 km/h (2 Bft)
07.12.2024 18:21 21,5 °C 4,9 °C 51 % 91 % 1000,6 hPa 0,0 l/m² 6,3 km/h (2 Bft) SO 144 ° 0 min 0 W/m² 3,6 °C 4,9 °C 8,0 km/h (2 Bft)
07.12.2024 18:22 21,5 °C 4,9 °C 52 % 91 % 1000,6 hPa 0,0 l/m² 7,4 km/h (2 Bft) SO 135 ° 0 min 0 W/m² 3,6 °C 4,0 °C 8,0 km/h (2 Bft)
07.12.2024 18:23 21,5 °C 4,8 °C 52 % 91 % 1000,5 hPa 0,0 l/m² 5,9 km/h (2 Bft) S-SO 152 ° 0 min 0 W/m² 3,5 °C 4,8 °C 8,0 km/h (2 Bft)
07.12.2024 18:24 21,5 °C 4,8 °C 52 % 91 % 1000,5 hPa 0,0 l/m² 7,2 km/h (2 Bft) SO 137 ° 0 min 0 W/m² 3,5 °C 4,1 °C 12,9 km/h (3 Bft)
07.12.2024 18:25 21,6 °C 4,8 °C 52 % 91 % 1000,5 hPa 0,0 l/m² 7,4 km/h (2 Bft) SO 129 ° 0 min 0 W/m² 3,5 °C 3,9 °C 11,3 km/h (2 Bft)
07.12.2024 18:26 21,5 °C 4,8 °C 52 % 91 % 1000,5 hPa 0,0 l/m² 6,6 km/h (2 Bft) SO 128 ° 0 min 0 W/m² 3,5 °C 4,6 °C 8,0 km/h (2 Bft)
07.12.2024 18:27 21,6 °C 4,9 °C 52 % 91 % 1000,5 hPa 0,2 l/m² 7,3 km/h (2 Bft) SO 129 ° 0 min 0 W/m² 3,6 °C 4,1 °C 11,3 km/h (2 Bft)
07.12.2024 18:28 21,5 °C 4,8 °C 52 % 91 % 1000,4 hPa 0,0 l/m² 7,5 km/h (2 Bft) SO 133 ° 0 min 0 W/m² 3,5 °C 3,8 °C 11,3 km/h (2 Bft)
07.12.2024 18:29 21,5 °C 4,8 °C 52 % 91 % 1000,4 hPa 0,0 l/m² 7,8 km/h (2 Bft) O-SO 117 ° 0 min 0 W/m² 3,5 °C 3,6 °C 12,9 km/h (3 Bft)
07.12.2024 18:30 21,5 °C 4,8 °C 52 % 92 % 1000,3 hPa 0,0 l/m² 6,1 km/h (2 Bft) SO 135 ° 0 min 0 W/m² 3,6 °C 4,8 °C 9,7 km/h (2 Bft)
07.12.2024 18:31 21,5 °C 4,8 °C 52 % 91 % 1000,4 hPa 0,0 l/m² 5,6 km/h (2 Bft) SO 130 ° 0 min 0 W/m² 3,5 °C 4,8 °C 11,3 km/h (2 Bft)
07.12.2024 18:32 21,5 °C 4,8 °C 52 % 92 % 1000,4 hPa 0,0 l/m² 5,4 km/h (2 Bft) SO 145 ° 0 min 0 W/m² 3,6 °C 4,8 °C 6,4 km/h (2 Bft)
07.12.2024 18:33 21,5 °C 4,8 °C 52 % 92 % 1000,3 hPa 0,0 l/m² 6,8 km/h (2 Bft) SO 127 ° 0 min 0 W/m² 3,6 °C 4,5 °C 11,3 km/h (2 Bft)
07.12.2024 18:34 21,5 °C 4,8 °C 52 % 92 % 1000,2 hPa 0,0 l/m² 7,6 km/h (2 Bft) SO 138 ° 0 min 0 W/m² 3,6 °C 3,7 °C 11,3 km/h (2 Bft)
07.12.2024 18:35 21,5 °C 4,8 °C 52 % 92 % 1000,3 hPa 0,0 l/m² 8,2 km/h (2 Bft) SO 137 ° 0 min 0 W/m² 3,6 °C 3,2 °C 11,3 km/h (2 Bft)
07.12.2024 18:36 21,5 °C 4,8 °C 52 % 92 % 1000,3 hPa 0,2 l/m² 5,0 km/h (1 Bft) SO 128 ° 0 min 0 W/m² 3,6 °C 4,8 °C 8,0 km/h (2 Bft)
07.12.2024 18:37 21,5 °C 4,8 °C 52 % 92 % 1000,3 hPa 0,0 l/m² 6,4 km/h (2 Bft) SO 126 ° 0 min 0 W/m² 3,6 °C 4,8 °C 11,3 km/h (2 Bft)
07.12.2024 18:38 21,5 °C 4,8 °C 52 % 92 % 1000,3 hPa 0,0 l/m² 5,9 km/h (2 Bft) SO 133 ° 0 min 0 W/m² 3,6 °C 4,8 °C 9,7 km/h (2 Bft)
07.12.2024 18:39 21,5 °C 4,8 °C 52 % 92 % 1000,3 hPa 0,0 l/m² 4,8 km/h (1 Bft) SO 130 ° 0 min 0 W/m² 3,6 °C 4,8 °C 6,4 km/h (2 Bft)
07.12.2024 18:40 21,5 °C 4,9 °C 52 % 92 % 1000,4 hPa 0,0 l/m² 10,3 km/h (2 Bft) SO 133 ° 0 min 0 W/m² 3,7 °C 1,8 °C 14,5 km/h (3 Bft)
07.12.2024 18:41 21,5 °C 4,8 °C 52 % 92 % 1000,3 hPa 0,0 l/m² 7,6 km/h (2 Bft) O-SO 104 ° 0 min 0 W/m² 3,6 °C 3,7 °C 11,3 km/h (2 Bft)
07.12.2024 18:42 21,5 °C 4,8 °C 52 % 92 % 1000,3 hPa 0,0 l/m² 6,5 km/h (2 Bft) SO 132 ° 0 min 0 W/m² 3,6 °C 4,7 °C 9,7 km/h (2 Bft)
07.12.2024 18:43 21,5 °C 4,8 °C 52 % 92 % 1000,3 hPa 0,0 l/m² 5,4 km/h (2 Bft) SO 130 ° 0 min 0 W/m² 3,6 °C 4,8 °C 8,0 km/h (2 Bft)
07.12.2024 18:45 21,5 °C 4,9 °C 53 % 92 % 1000,3 hPa 0,0 l/m² 5,9 km/h (2 Bft) O-SO 123 ° 0 min 0 W/m² 3,7 °C 4,9 °C 9,7 km/h (2 Bft)
07.12.2024 18:46 21,5 °C 4,8 °C 53 % 92 % 1000,3 hPa 0,2 l/m² 5,6 km/h (2 Bft) SO 126 ° 0 min 0 W/m² 3,6 °C 4,8 °C 8,0 km/h (2 Bft)
07.12.2024 18:47 21,4 °C 4,8 °C 53 % 92 % 1000,3 hPa 0,0 l/m² 5,4 km/h (2 Bft) O-SO 119 ° 0 min 0 W/m² 3,6 °C 4,8 °C 8,0 km/h (2 Bft)
07.12.2024 18:48 21,5 °C 4,8 °C 53 % 92 % 1000,3 hPa 0,0 l/m² 5,0 km/h (1 Bft) SO 124 ° 0 min 0 W/m² 3,6 °C 4,8 °C 6,4 km/h (2 Bft)
07.12.2024 18:49 21,5 °C 4,8 °C 53 % 92 % 1000,3 hPa 0,0 l/m² 4,5 km/h (1 Bft) SO 127 ° 0 min 0 W/m² 3,6 °C 4,8 °C 6,4 km/h (2 Bft)
07.12.2024 18:50 21,5 °C 4,8 °C 53 % 92 % 1000,3 hPa 0,0 l/m² 5,2 km/h (1 Bft) SO 126 ° 0 min 0 W/m² 3,6 °C 4,8 °C 8,0 km/h (2 Bft)
07.12.2024 18:51 21,5 °C 4,8 °C 53 % 92 % 1000,3 hPa 0,0 l/m² 4,3 km/h (1 Bft) SO 126 ° 0 min 0 W/m² 3,6 °C 4,8 °C 4,8 km/h (1 Bft)
07.12.2024 18:52 21,5 °C 4,8 °C 53 % 92 % 1000,3 hPa 0,2 l/m² 4,2 km/h (1 Bft) SO 126 ° 0 min 0 W/m² 3,6 °C 4,8 °C 6,4 km/h (2 Bft)
07.12.2024 18:53 21,5 °C 4,8 °C 53 % 92 % 1000,3 hPa 0,0 l/m² 3,2 km/h (1 Bft) O-SO 116 ° 0 min 0 W/m² 3,6 °C 4,8 °C 4,8 km/h (1 Bft)
07.12.2024 18:54 21,5 °C 4,8 °C 53 % 92 % 1000,2 hPa 0,0 l/m² 5,2 km/h (1 Bft) O-SO 113 ° 0 min 0 W/m² 3,6 °C 4,8 °C 6,4 km/h (2 Bft)
07.12.2024 18:55 21,5 °C 4,8 °C 53 % 92 % 1000,2 hPa 0,0 l/m² 4,9 km/h (1 Bft) O-SO 121 ° 0 min 0 W/m² 3,6 °C 4,8 °C 6,4 km/h (2 Bft)
07.12.2024 18:56 21,5 °C 4,8 °C 53 % 92 % 1000,2 hPa 0,0 l/m² 5,3 km/h (1 Bft) O-SO 117 ° 0 min 0 W/m² 3,6 °C 4,8 °C 6,4 km/h (2 Bft)
07.12.2024 18:57 21,6 °C 4,8 °C 53 % 92 % 1000,2 hPa 0,0 l/m² 4,7 km/h (1 Bft) O-SO 111 ° 0 min 0 W/m² 3,6 °C 4,8 °C 6,4 km/h (2 Bft)
07.12.2024 18:58 21,5 °C 4,8 °C 53 % 92 % 1000,2 hPa 0,0 l/m² 5,4 km/h (2 Bft) SO 127 ° 0 min 0 W/m² 3,6 °C 4,8 °C 9,7 km/h (2 Bft)
07.12.2024 18:59 21,5 °C 4,8 °C 53 % 92 % 1000,2 hPa 0,0 l/m² 5,7 km/h (2 Bft) O-SO 111 ° 0 min 0 W/m² 3,6 °C 4,8 °C 9,7 km/h (2 Bft)
07.12.2024 19:00 21,5 °C 4,8 °C 53 % 92 % 1000,2 hPa 0,0 l/m² 6,1 km/h (2 Bft) O-SO 123 ° 0 min 0 W/m² 3,6 °C 4,8 °C 9,7 km/h (2 Bft)
07.12.2024 19:01 21,5 °C 4,8 °C 53 % 92 % 1000,2 hPa 0,0 l/m² 3,8 km/h (1 Bft) O-SO 115 ° 0 min 0 W/m² 3,6 °C 4,8 °C 4,8 km/h (1 Bft)
07.12.2024 19:02 21,6 °C 4,8 °C 53 % 92 % 1000,2 hPa 0,0 l/m² 5,7 km/h (2 Bft) O-SO 119 ° 0 min 0 W/m² 3,6 °C 4,8 °C 8,0 km/h (2 Bft)
07.12.2024 19:03 21,5 °C 4,8 °C 53 % 92 % 1000,1 hPa 0,0 l/m² 4,1 km/h (1 Bft) O-SO 113 ° 0 min 0 W/m² 3,6 °C 4,8 °C 6,4 km/h (2 Bft)
07.12.2024 19:04 21,5 °C 4,8 °C 53 % 92 % 1000,1 hPa 0,0 l/m² 4,5 km/h (1 Bft) O-SO 113 ° 0 min 0 W/m² 3,6 °C 4,8 °C 6,4 km/h (2 Bft)
07.12.2024 19:05 21,4 °C 4,8 °C 53 % 92 % 1000,1 hPa 0,0 l/m² 4,7 km/h (1 Bft) O-SO 121 ° 0 min 0 W/m² 3,6 °C 4,8 °C 6,4 km/h (2 Bft)
07.12.2024 19:06 21,5 °C 4,8 °C 53 % 92 % 1000,2 hPa 0,0 l/m² 4,1 km/h (1 Bft) O-SO 111 ° 0 min 0 W/m² 3,6 °C 4,8 °C 6,4 km/h (2 Bft)
07.12.2024 19:07 21,5 °C 4,8 °C 53 % 92 % 1000,2 hPa 0,0 l/m² 3,9 km/h (1 Bft) O-SO 115 ° 0 min 0 W/m² 3,6 °C 4,8 °C 6,4 km/h (2 Bft)
07.12.2024 19:08 21,5 °C 4,8 °C 53 % 92 % 1000,1 hPa 0,0 l/m² 4,5 km/h (1 Bft) O-SO 120 ° 0 min 0 W/m² 3,6 °C 4,8 °C 8,0 km/h (2 Bft)
07.12.2024 19:09 21,5 °C 4,8 °C 53 % 92 % 1000,1 hPa 0,0 l/m² 3,8 km/h (1 Bft) O 96 ° 0 min 0 W/m² 3,6 °C 4,8 °C 6,4 km/h (2 Bft)
07.12.2024 19:10 21,5 °C 4,8 °C 53 % 92 % 1000,1 hPa 0,0 l/m² 3,2 km/h (1 Bft) O 97 ° 0 min 0 W/m² 3,6 °C 4,8 °C 6,4 km/h (2 Bft)
07.12.2024 19:11 21,5 °C 4,8 °C 53 % 92 % 1000,1 hPa 0,0 l/m² 5,3 km/h (1 Bft) O-SO 113 ° 0 min 0 W/m² 3,6 °C 4,8 °C 9,7 km/h (2 Bft)
07.12.2024 19:12 21,5 °C 4,8 °C 53 % 92 % 1000,1 hPa 0,0 l/m² 5,0 km/h (1 Bft) O-SO 113 ° 0 min 0 W/m² 3,6 °C 4,8 °C 6,4 km/h (2 Bft)
07.12.2024 19:13 21,6 °C 4,8 °C 53 % 92 % 1000,1 hPa 0,0 l/m² 5,4 km/h (2 Bft) O-SO 109 ° 0 min 0 W/m² 3,6 °C 4,8 °C 8,0 km/h (2 Bft)
07.12.2024 19:14 21,6 °C 4,8 °C 53 % 92 % 1000,1 hPa 0,0 l/m² 5,8 km/h (2 Bft) O-SO 113 ° 0 min 0 W/m² 3,6 °C 4,8 °C 9,7 km/h (2 Bft)
07.12.2024 19:15 21,5 °C 4,8 °C 53 % 92 % 1000,1 hPa 0,0 l/m² 4,6 km/h (1 Bft) O 98 ° 0 min 0 W/m² 3,6 °C 4,8 °C 6,4 km/h (2 Bft)
07.12.2024 19:16 21,6 °C 4,8 °C 53 % 92 % 1000,1 hPa 0,0 l/m² 3,8 km/h (1 Bft) O 101 ° 0 min 0 W/m² 3,6 °C 4,8 °C 4,8 km/h (1 Bft)
07.12.2024 19:17 21,6 °C 4,8 °C 53 % 92 % 1000,1 hPa 0,0 l/m² 3,4 km/h (1 Bft) O 101 ° 0 min 0 W/m² 3,6 °C 4,8 °C 4,8 km/h (1 Bft)
07.12.2024 19:18 21,6 °C 4,8 °C 53 % 92 % 1000,2 hPa 0,0 l/m² 5,0 km/h (1 Bft) O-SO 114 ° 0 min 0 W/m² 3,6 °C 4,8 °C 9,7 km/h (2 Bft)
07.12.2024 19:19 21,6 °C 4,8 °C 53 % 92 % 1000,2 hPa 0,0 l/m² 2,7 km/h (1 Bft) O-SO 113 ° 0 min 0 W/m² 3,6 °C 4,8 °C 4,8 km/h (1 Bft)
07.12.2024 19:20 21,6 °C 4,8 °C 53 % 92 % 1000,2 hPa 0,0 l/m² 1,5 km/h (1 Bft) O-SO 113 ° 0 min 0 W/m² 3,6 °C 4,8 °C 3,2 km/h (1 Bft)
07.12.2024 19:21 21,5 °C 4,8 °C 53 % 92 % 1000,3 hPa 0,0 l/m² 3,0 km/h (1 Bft) O-SO 112 ° 0 min 0 W/m² 3,6 °C 4,8 °C 4,8 km/h (1 Bft)
07.12.2024 19:22 21,6 °C 4,8 °C 53 % 92 % 1000,3 hPa 0,0 l/m² 1,5 km/h (1 Bft) O-SO 112 ° 0 min 0 W/m² 3,6 °C 4,8 °C 3,2 km/h (1 Bft)
07.12.2024 19:23 21,6 °C 4,7 °C 53 % 92 % 1000,2 hPa 0,0 l/m² 1,7 km/h (1 Bft) O-SO 112 ° 0 min 0 W/m² 3,5 °C 4,7 °C 4,8 km/h (1 Bft)
07.12.2024 19:24 21,6 °C 4,8 °C 53 % 92 % 1000,3 hPa 0,0 l/m² 2,0 km/h (1 Bft) O-SO 112 ° 0 min 0 W/m² 3,6 °C 4,8 °C 3,2 km/h (1 Bft)
07.12.2024 19:25 21,6 °C 4,8 °C 53 % 92 % 1000,2 hPa 0,0 l/m² 3,7 km/h (1 Bft) O-SO 112 ° 0 min 0 W/m² 3,6 °C 4,8 °C 6,4 km/h (2 Bft)
07.12.2024 19:26 21,6 °C 4,7 °C 53 % 92 % 1000,3 hPa 0,0 l/m² 2,4 km/h (1 Bft) O-SO 112 ° 0 min 0 W/m² 3,5 °C 4,7 °C 4,8 km/h (1 Bft)
07.12.2024 19:27 21,6 °C 4,8 °C 53 % 92 % 1000,3 hPa 0,0 l/m² 2,4 km/h (1 Bft) O-SO 112 ° 0 min 0 W/m² 3,6 °C 4,8 °C 3,2 km/h (1 Bft)
07.12.2024 19:28 21,6 °C 4,7 °C 53 % 92 % 1000,4 hPa 0,0 l/m² 0,2 km/h (0 Bft) O-SO 112 ° 0 min 0 W/m² 3,5 °C 4,7 °C 1,6 km/h (1 Bft)
07.12.2024 19:29 21,6 °C 4,8 °C 53 % 92 % 1000,2 hPa 0,0 l/m² 0,1 km/h (0 Bft) O-SO 112 ° 0 min 0 W/m² 3,6 °C 4,8 °C 1,6 km/h (1 Bft)
07.12.2024 19:30 21,6 °C 4,8 °C 53 % 92 % 1000,2 hPa 0,0 l/m² 0,1 km/h (0 Bft) O-SO 112 ° 0 min 0 W/m² 3,6 °C 4,8 °C 1,6 km/h (1 Bft)
07.12.2024 19:31 21,6 °C 4,7 °C 53 % 92 % 1000,3 hPa 0,0 l/m² 1,5 km/h (1 Bft) O-SO 112 ° 0 min 0 W/m² 3,5 °C 4,7 °C 3,2 km/h (1 Bft)
07.12.2024 19:32 21,6 °C 4,7 °C 53 % 92 % 1000,2 hPa 0,0 l/m² 0,1 km/h (0 Bft) O-SO 112 ° 0 min 0 W/m² 3,5 °C 4,7 °C 1,6 km/h (1 Bft)
07.12.2024 19:33 21,6 °C 4,7 °C 53 % 92 % 1000,3 hPa 0,0 l/m² 1,4 km/h (1 Bft) O-SO 112 ° 0 min 0 W/m² 3,5 °C 4,7 °C 3,2 km/h (1 Bft)
07.12.2024 19:34 21,6 °C 4,8 °C 53 % 92 % 1000,2 hPa 0,0 l/m² 2,5 km/h (1 Bft) O-SO 112 ° 0 min 0 W/m² 3,6 °C 4,8 °C 3,2 km/h (1 Bft)
07.12.2024 19:35 21,6 °C 4,7 °C 54 % 92 % 1000,2 hPa 0,0 l/m² 0,1 km/h (0 Bft) O-SO 112 ° 0 min 0 W/m² 3,5 °C 4,7 °C 1,6 km/h (1 Bft)
07.12.2024 19:36 21,6 °C 4,8 °C 54 % 92 % 1000,2 hPa 0,0 l/m² 1,5 km/h (1 Bft) O-SO 112 ° 0 min 0 W/m² 3,6 °C 4,8 °C 3,2 km/h (1 Bft)
07.12.2024 19:37 21,6 °C 4,7 °C 54 % 92 % 1000,3 hPa 0,0 l/m² 2,0 km/h (1 Bft) O-SO 112 ° 0 min 0 W/m² 3,5 °C 4,7 °C 3,2 km/h (1 Bft)
07.12.2024 19:38 21,6 °C 4,7 °C 54 % 92 % 1000,3 hPa 0,0 l/m² 1,6 km/h (1 Bft) O-SO 112 ° 0 min 0 W/m² 3,5 °C 4,7 °C 3,2 km/h (1 Bft)
07.12.2024 19:39 21,6 °C 4,7 °C 54 % 92 % 1000,2 hPa 0,0 l/m² 2,2 km/h (1 Bft) O-SO 115 ° 0 min 0 W/m² 3,5 °C 4,7 °C 3,2 km/h (1 Bft)
07.12.2024 19:40 21,6 °C 4,7 °C 54 % 92 % 1000,3 hPa 0,0 l/m² 2,1 km/h (1 Bft) O-SO 117 ° 0 min 0 W/m² 3,5 °C 4,7 °C 3,2 km/h (1 Bft)
07.12.2024 19:41 21,6 °C 4,7 °C 54 % 92 % 1000,3 hPa 0,0 l/m² 1,9 km/h (1 Bft) O-SO 117 ° 0 min 0 W/m² 3,5 °C 4,7 °C 3,2 km/h (1 Bft)
07.12.2024 19:42 21,6 °C 4,7 °C 54 % 92 % 1000,3 hPa 0,0 l/m² 4,7 km/h (1 Bft) SO 140 ° 0 min 0 W/m² 3,5 °C 4,7 °C 6,4 km/h (2 Bft)
07.12.2024 19:43 21,6 °C 4,7 °C 54 % 92 % 1000,3 hPa 0,0 l/m² 4,0 km/h (1 Bft) SO 137 ° 0 min 0 W/m² 3,5 °C 4,7 °C 6,4 km/h (2 Bft)
07.12.2024 19:44 21,6 °C 4,7 °C 54 % 92 % 1000,2 hPa 0,0 l/m² 5,3 km/h (1 Bft) SO 146 ° 0 min 0 W/m² 3,5 °C 4,7 °C 6,4 km/h (2 Bft)
07.12.2024 19:45 21,6 °C 4,7 °C 54 % 92 % 1000,3 hPa 0,0 l/m² 3,3 km/h (1 Bft) SO 132 ° 0 min 0 W/m² 3,5 °C 4,7 °C 4,8 km/h (1 Bft)
07.12.2024 19:47 21,6 °C 4,7 °C 54 % 92 % 1000,2 hPa 0,0 l/m² 2,7 km/h (1 Bft) S-SO 150 ° 0 min 0 W/m² 3,5 °C 4,7 °C 6,4 km/h (2 Bft)
07.12.2024 19:48 21,6 °C 4,7 °C 54 % 92 % 1000,2 hPa 0,0 l/m² 4,2 km/h (1 Bft) SO 128 ° 0 min 0 W/m² 3,5 °C 4,7 °C 8,0 km/h (2 Bft)
07.12.2024 19:49 21,6 °C 4,7 °C 54 % 92 % 1000,3 hPa 0,0 l/m² 6,8 km/h (2 Bft) SO 128 ° 0 min 0 W/m² 3,5 °C 4,4 °C 9,7 km/h (2 Bft)
07.12.2024 19:50 21,6 °C 4,7 °C 54 % 92 % 1000,3 hPa 0,0 l/m² 5,6 km/h (2 Bft) S-SO 153 ° 0 min 0 W/m² 3,5 °C 4,7 °C 8,0 km/h (2 Bft)
07.12.2024 19:51 21,6 °C 4,7 °C 54 % 92 % 1000,3 hPa 0,0 l/m² 4,4 km/h (1 Bft) SO 145 ° 0 min 0 W/m² 3,5 °C 4,7 °C 8,0 km/h (2 Bft)
07.12.2024 19:52 21,6 °C 4,7 °C 54 % 92 % 1000,3 hPa 0,0 l/m² 5,0 km/h (1 Bft) S-SO 148 ° 0 min 0 W/m² 3,5 °C 4,7 °C 8,0 km/h (2 Bft)
07.12.2024 19:53 21,6 °C 4,7 °C 54 % 92 % 1000,3 hPa 0,0 l/m² 6,2 km/h (2 Bft) SO 137 ° 0 min 0 W/m² 3,5 °C 4,7 °C 11,3 km/h (2 Bft)
07.12.2024 19:54 21,6 °C 4,7 °C 54 % 92 % 1000,3 hPa 0,0 l/m² 8,5 km/h (2 Bft) S-SO 151 ° 0 min 0 W/m² 3,5 °C 2,9 °C 12,9 km/h (3 Bft)
07.12.2024 19:55 21,6 °C 4,7 °C 54 % 92 % 1000,3 hPa 0,0 l/m² 9,3 km/h (2 Bft) SO 128 ° 0 min 0 W/m² 3,5 °C 2,3 °C 12,9 km/h (3 Bft)
07.12.2024 19:57 21,6 °C 4,7 °C 54 % 92 % 1000,2 hPa 0,0 l/m² 8,6 km/h (2 Bft) SO 132 ° 0 min 0 W/m² 3,5 °C 2,8 °C 12,9 km/h (3 Bft)
07.12.2024 19:58 21,6 °C 4,7 °C 54 % 92 % 1000,2 hPa 0,0 l/m² 4,4 km/h (1 Bft) SO 146 ° 0 min 0 W/m² 3,5 °C 4,7 °C 6,4 km/h (2 Bft)
07.12.2024 19:59 21,6 °C 4,7 °C 54 % 92 % 1000,3 hPa 0,0 l/m² 6,8 km/h (2 Bft) SO 137 ° 0 min 0 W/m² 3,5 °C 4,4 °C 9,7 km/h (2 Bft)
07.12.2024 20:00 21,6 °C 4,7 °C 54 % 92 % 1000,2 hPa 0,0 l/m² 6,1 km/h (2 Bft) SO 138 ° 0 min 0 W/m² 3,5 °C 4,7 °C 8,0 km/h (2 Bft)
07.12.2024 20:01 21,6 °C 4,7 °C 54 % 92 % 1000,3 hPa 0,0 l/m² 6,9 km/h (2 Bft) S-SO 155 ° 0 min 0 W/m² 3,5 °C 4,3 °C 11,3 km/h (2 Bft)
07.12.2024 20:02 21,6 °C 4,8 °C 54 % 92 % 1000,3 hPa 0,0 l/m² 6,1 km/h (2 Bft) SO 140 ° 0 min 0 W/m² 3,6 °C 4,8 °C 8,0 km/h (2 Bft)
07.12.2024 20:03 21,6 °C 4,7 °C 55 % 92 % 1000,3 hPa 0,0 l/m² 5,4 km/h (2 Bft) SO 142 ° 0 min 0 W/m² 3,5 °C 4,7 °C 9,7 km/h (2 Bft)
07.12.2024 20:04 21,6 °C 4,7 °C 55 % 92 % 1000,3 hPa 0,0 l/m² 6,6 km/h (2 Bft) SO 142 ° 0 min 0 W/m² 3,5 °C 4,5 °C 11,3 km/h (2 Bft)
07.12.2024 20:05 21,6 °C 4,7 °C 55 % 92 % 1000,3 hPa 0,0 l/m² 6,6 km/h (2 Bft) SO 143 ° 0 min 0 W/m² 3,5 °C 4,5 °C 8,0 km/h (2 Bft)
07.12.2024 20:06 21,6 °C 4,7 °C 55 % 92 % 1000,3 hPa 0,0 l/m² 4,8 km/h (1 Bft) S-SO 157 ° 0 min 0 W/m² 3,5 °C 4,7 °C 9,7 km/h (2 Bft)
07.12.2024 20:07 21,6 °C 4,7 °C 55 % 92 % 1000,3 hPa 0,0 l/m² 5,0 km/h (1 Bft) SO 138 ° 0 min 0 W/m² 3,5 °C 4,7 °C 8,0 km/h (2 Bft)
07.12.2024 20:08 21,6 °C 4,7 °C 55 % 92 % 1000,3 hPa 0,0 l/m² 4,3 km/h (1 Bft) SO 146 ° 0 min 0 W/m² 3,5 °C 4,7 °C 8,0 km/h (2 Bft)
07.12.2024 20:09 21,6 °C 4,7 °C 55 % 92 % 1000,3 hPa 0,0 l/m² 3,8 km/h (1 Bft) SO 130 ° 0 min 0 W/m² 3,5 °C 4,7 °C 8,0 km/h (2 Bft)
07.12.2024 20:10 21,6 °C 4,7 °C 55 % 92 % 1000,3 hPa 0,0 l/m² 4,7 km/h (1 Bft) SO 140 ° 0 min 0 W/m² 3,5 °C 4,7 °C 8,0 km/h (2 Bft)
07.12.2024 20:11 21,6 °C 4,7 °C 55 % 92 % 1000,3 hPa 0,0 l/m² 4,6 km/h (1 Bft) S-SO 148 ° 0 min 0 W/m² 3,5 °C 4,7 °C 6,4 km/h (2 Bft)
07.12.2024 20:12 21,6 °C 4,7 °C 55 % 92 % 1000,3 hPa 0,0 l/m² 3,6 km/h (1 Bft) SO 138 ° 0 min 0 W/m² 3,5 °C 4,7 °C 6,4 km/h (2 Bft)
07.12.2024 20:13 21,6 °C 4,7 °C 55 % 92 % 1000,3 hPa 0,0 l/m² 7,7 km/h (2 Bft) S-SO 155 ° 0 min 0 W/m² 3,5 °C 3,5 °C 11,3 km/h (2 Bft)
07.12.2024 20:14 21,6 °C 4,7 °C 55 % 92 % 1000,3 hPa 0,0 l/m² 7,5 km/h (2 Bft) SO 146 ° 0 min 0 W/m² 3,5 °C 3,7 °C 11,3 km/h (2 Bft)
07.12.2024 20:15 21,6 °C 4,7 °C 55 % 92 % 1000,4 hPa 0,0 l/m² 8,4 km/h (2 Bft) SO 139 ° 0 min 0 W/m² 3,5 °C 3,0 °C 14,5 km/h (3 Bft)
07.12.2024 20:17 21,6 °C 4,7 °C 55 % 92 % 1000,3 hPa 0,0 l/m² 5,6 km/h (2 Bft) S-SO 152 ° 0 min 0 W/m² 3,5 °C 4,7 °C 11,3 km/h (2 Bft)
07.12.2024 20:18 21,6 °C 4,7 °C 55 % 92 % 1000,3 hPa 0,0 l/m² 8,0 km/h (2 Bft) S-SO 162 ° 0 min 0 W/m² 3,5 °C 3,3 °C 11,3 km/h (2 Bft)
07.12.2024 20:19 21,6 °C 4,7 °C 55 % 92 % 1000,4 hPa 0,0 l/m² 9,5 km/h (2 Bft) S-SO 165 ° 0 min 0 W/m² 3,5 °C 2,1 °C 14,5 km/h (3 Bft)
07.12.2024 20:20 21,6 °C 4,7 °C 55 % 92 % 1000,4 hPa 0,0 l/m² 8,9 km/h (2 Bft) S-SO 157 ° 0 min 0 W/m² 3,5 °C 2,6 °C 11,3 km/h (2 Bft)
07.12.2024 20:21 21,6 °C 4,7 °C 55 % 92 % 1000,5 hPa 0,0 l/m² 6,6 km/h (2 Bft) S-SO 167 ° 0 min 0 W/m² 3,5 °C 4,5 °C 9,7 km/h (2 Bft)
07.12.2024 20:22 21,6 °C 4,7 °C 55 % 92 % 1000,5 hPa 0,0 l/m² 6,8 km/h (2 Bft) S-SO 155 ° 0 min 0 W/m² 3,5 °C 4,4 °C 9,7 km/h (2 Bft)
07.12.2024 20:23 21,6 °C 4,7 °C 55 % 92 % 1000,5 hPa 0,0 l/m² 7,3 km/h (2 Bft) S-SO 148 ° 0 min 0 W/m² 3,5 °C 3,9 °C 9,7 km/h (2 Bft)
07.12.2024 20:24 21,6 °C 4,7 °C 55 % 92 % 1000,4 hPa 0,0 l/m² 7,5 km/h (2 Bft) S-SO 161 ° 0 min 0 W/m² 3,5 °C 3,7 °C 9,7 km/h (2 Bft)
07.12.2024 20:25 21,6 °C 4,7 °C 55 % 92 % 1000,4 hPa 0,0 l/m² 8,6 km/h (2 Bft) S-SO 150 ° 0 min 0 W/m² 3,5 °C 2,8 °C 11,3 km/h (2 Bft)
07.12.2024 20:26 21,6 °C 4,7 °C 55 % 92 % 1000,4 hPa 0,0 l/m² 8,8 km/h (2 Bft) SO 145 ° 0 min 0 W/m² 3,5 °C 2,6 °C 11,3 km/h (2 Bft)
07.12.2024 20:27 21,6 °C 4,7 °C 55 % 92 % 1000,3 hPa 0,0 l/m² 5,6 km/h (2 Bft) S-SO 152 ° 0 min 0 W/m² 3,5 °C 4,7 °C 6,4 km/h (2 Bft)
07.12.2024 20:28 21,6 °C 4,7 °C 55 % 92 % 1000,3 hPa 0,0 l/m² 6,6 km/h (2 Bft) S-SO 159 ° 0 min 0 W/m² 3,5 °C 4,5 °C 8,0 km/h (2 Bft)
07.12.2024 20:29 21,7 °C 4,7 °C 55 % 92 % 1000,4 hPa 0,0 l/m² 6,4 km/h (2 Bft) S-SO 155 ° 0 min 0 W/m² 3,5 °C 4,7 °C 8,0 km/h (2 Bft)
07.12.2024 20:30 21,7 °C 4,7 °C 55 % 92 % 1000,4 hPa 0,0 l/m² 6,9 km/h (2 Bft) S-SO 160 ° 0 min 0 W/m² 3,5 °C 4,3 °C 9,7 km/h (2 Bft)
07.12.2024 20:31 21,7 °C 4,7 °C 55 % 92 % 1000,4 hPa 0,0 l/m² 8,3 km/h (2 Bft) S-SO 157 ° 0 min 0 W/m² 3,5 °C 3,0 °C 12,9 km/h (3 Bft)
07.12.2024 20:32 21,7 °C 4,7 °C 55 % 92 % 1000,4 hPa 0,0 l/m² 8,0 km/h (2 Bft) S-SO 147 ° 0 min 0 W/m² 3,5 °C 3,3 °C 11,3 km/h (2 Bft)
07.12.2024 20:33 21,7 °C 4,7 °C 55 % 92 % 1000,5 hPa 0,0 l/m² 7,1 km/h (2 Bft) S-SO 150 ° 0 min 0 W/m² 3,5 °C 4,1 °C 9,7 km/h (2 Bft)
07.12.2024 20:34 21,7 °C 4,7 °C 55 % 92 % 1000,4 hPa 0,0 l/m² 5,0 km/h (1 Bft) S-SO 153 ° 0 min 0 W/m² 3,5 °C 4,7 °C 6,4 km/h (2 Bft)
07.12.2024 20:35 21,7 °C 4,7 °C 55 % 92 % 1000,4 hPa 0,0 l/m² 5,6 km/h (2 Bft) S-SO 148 ° 0 min 0 W/m² 3,5 °C 4,7 °C 8,0 km/h (2 Bft)
07.12.2024 20:36 21,7 °C 4,7 °C 55 % 92 % 1000,4 hPa 0,0 l/m² 6,7 km/h (2 Bft) S-SO 151 ° 0 min 0 W/m² 3,5 °C 4,4 °C 11,3 km/h (2 Bft)
07.12.2024 20:37 21,7 °C 4,7 °C 55 % 93 % 1000,4 hPa 0,0 l/m² 7,6 km/h (2 Bft) SO 145 ° 0 min 0 W/m² 3,7 °C 3,6 °C 11,3 km/h (2 Bft)
07.12.2024 20:38 21,7 °C 4,6 °C 55 % 93 % 1000,5 hPa 0,0 l/m² 7,0 km/h (2 Bft) S-SO 148 ° 0 min 0 W/m² 3,6 °C 4,1 °C 9,7 km/h (2 Bft)
07.12.2024 20:39 21,7 °C 4,7 °C 55 % 93 % 1000,5 hPa 0,0 l/m² 5,4 km/h (2 Bft) SO 144 ° 0 min 0 W/m² 3,7 °C 4,7 °C 6,4 km/h (2 Bft)
07.12.2024 20:40 21,7 °C 4,7 °C 55 % 92 % 1000,5 hPa 0,0 l/m² 6,6 km/h (2 Bft) SO 136 ° 0 min 0 W/m² 3,5 °C 4,5 °C 11,3 km/h (2 Bft)
07.12.2024 20:41 21,7 °C 4,7 °C 55 % 93 % 1000,5 hPa 0,0 l/m² 5,8 km/h (2 Bft) SO 144 ° 0 min 0 W/m² 3,7 °C 4,7 °C 8,0 km/h (2 Bft)
07.12.2024 20:42 21,8 °C 4,7 °C 55 % 92 % 1000,6 hPa 0,0 l/m² 6,4 km/h (2 Bft) SO 145 ° 0 min 0 W/m² 3,5 °C 4,7 °C 8,0 km/h (2 Bft)
07.12.2024 20:43 21,7 °C 4,7 °C 55 % 93 % 1000,6 hPa 0,0 l/m² 5,4 km/h (2 Bft) S-SO 150 ° 0 min 0 W/m² 3,7 °C 4,7 °C 8,0 km/h (2 Bft)
07.12.2024 20:45 21,8 °C 4,7 °C 55 % 93 % 1000,7 hPa 0,0 l/m² 5,1 km/h (1 Bft) SO 146 ° 0 min 0 W/m² 3,7 °C 4,7 °C 6,4 km/h (2 Bft)
07.12.2024 20:46 21,8 °C 4,7 °C 55 % 92 % 1000,7 hPa 0,0 l/m² 3,1 km/h (1 Bft) S-SO 149 ° 0 min 0 W/m² 3,5 °C 4,7 °C 4,8 km/h (1 Bft)
07.12.2024 20:47 21,8 °C 4,7 °C 55 % 93 % 1000,7 hPa 0,0 l/m² 4,2 km/h (1 Bft) S-SO 162 ° 0 min 0 W/m² 3,7 °C 4,7 °C 8,0 km/h (2 Bft)
07.12.2024 20:48 21,8 °C 4,7 °C 55 % 93 % 1000,7 hPa 0,0 l/m² 5,3 km/h (1 Bft) S-SO 161 ° 0 min 0 W/m² 3,7 °C 4,7 °C 6,4 km/h (2 Bft)
07.12.2024 20:49 21,8 °C 4,7 °C 55 % 93 % 1000,7 hPa 0,0 l/m² 5,0 km/h (1 Bft) S-SO 162 ° 0 min 0 W/m² 3,7 °C 4,7 °C 8,0 km/h (2 Bft)
07.12.2024 20:50 21,8 °C 4,6 °C 55 % 93 % 1000,7 hPa 0,0 l/m² 0,9 km/h (0 Bft) S-SO 163 ° 0 min 0 W/m² 3,6 °C 4,6 °C 3,2 km/h (1 Bft)
07.12.2024 20:51 21,8 °C 4,7 °C 55 % 93 % 1000,7 hPa 0,0 l/m² 1,1 km/h (1 Bft) S-SO 163 ° 0 min 0 W/m² 3,7 °C 4,7 °C 3,2 km/h (1 Bft)
07.12.2024 20:52 21,8 °C 4,7 °C 55 % 93 % 1000,8 hPa 0,0 l/m² 3,0 km/h (1 Bft) S-SO 165 ° 0 min 0 W/m² 3,7 °C 4,7 °C 6,4 km/h (2 Bft)
07.12.2024 20:53 21,8 °C 4,7 °C 55 % 93 % 1000,8 hPa 0,0 l/m² 4,4 km/h (1 Bft) S-SO 163 ° 0 min 0 W/m² 3,7 °C 4,7 °C 6,4 km/h (2 Bft)
07.12.2024 20:54 21,8 °C 4,7 °C 55 % 93 % 1000,8 hPa 0,0 l/m² 6,4 km/h (2 Bft) S-SO 159 ° 0 min 0 W/m² 3,7 °C 4,7 °C 8,0 km/h (2 Bft)
07.12.2024 20:55 21,8 °C 4,7 °C 55 % 93 % 1000,9 hPa 0,0 l/m² 6,0 km/h (2 Bft) S 171 ° 0 min 0 W/m² 3,7 °C 4,7 °C 8,0 km/h (2 Bft)
07.12.2024 20:57 21,9 °C 4,6 °C 55 % 93 % 1000,8 hPa 0,0 l/m² 3,8 km/h (1 Bft) S 171 ° 0 min 0 W/m² 3,6 °C 4,6 °C 8,0 km/h (2 Bft)
07.12.2024 20:58 21,9 °C 4,7 °C 55 % 93 % 1000,8 hPa 0,0 l/m² 5,3 km/h (1 Bft) S-SO 167 ° 0 min 0 W/m² 3,7 °C 4,7 °C 8,0 km/h (2 Bft)
07.12.2024 20:59 21,9 °C 4,7 °C 55 % 93 % 1000,8 hPa 0,0 l/m² 3,9 km/h (1 Bft) S-SO 163 ° 0 min 0 W/m² 3,7 °C 4,7 °C 8,0 km/h (2 Bft)
07.12.2024 21:00 21,9 °C 4,7 °C 55 % 93 % 1000,8 hPa 0,0 l/m² 5,6 km/h (2 Bft) S-SO 156 ° 0 min 0 W/m² 3,7 °C 4,7 °C 9,7 km/h (2 Bft)
07.12.2024 21:01 21,9 °C 4,7 °C 55 % 93 % 1000,8 hPa 0,0 l/m² 5,8 km/h (2 Bft) S-SO 148 ° 0 min 0 W/m² 3,7 °C 4,7 °C 8,0 km/h (2 Bft)
07.12.2024 21:02 21,9 °C 4,7 °C 55 % 93 % 1000,9 hPa 0,0 l/m² 4,5 km/h (1 Bft) SO 145 ° 0 min 0 W/m² 3,7 °C 4,7 °C 6,4 km/h (2 Bft)
07.12.2024 21:03 21,9 °C 4,7 °C 55 % 93 % 1000,8 hPa 0,0 l/m² 4,8 km/h (1 Bft) SO 146 ° 0 min 0 W/m² 3,7 °C 4,7 °C 6,4 km/h (2 Bft)
07.12.2024 21:04 21,9 °C 4,7 °C 55 % 93 % 1000,9 hPa 0,0 l/m² 5,0 km/h (1 Bft) S-SO 149 ° 0 min 0 W/m² 3,7 °C 4,7 °C 6,4 km/h (2 Bft)
07.12.2024 21:05 21,9 °C 4,7 °C 55 % 93 % 1000,8 hPa 0,0 l/m² 2,7 km/h (1 Bft) SO 146 ° 0 min 0 W/m² 3,7 °C 4,7 °C 4,8 km/h (1 Bft)
07.12.2024 21:06 21,9 °C 4,7 °C 55 % 93 % 1000,9 hPa 0,0 l/m² 1,3 km/h (1 Bft) SO 144 ° 0 min 0 W/m² 3,7 °C 4,7 °C 4,8 km/h (1 Bft)
07.12.2024 21:07 21,9 °C 4,7 °C 55 % 93 % 1000,9 hPa 0,0 l/m² 4,2 km/h (1 Bft) SO 144 ° 0 min 0 W/m² 3,7 °C 4,7 °C 6,4 km/h (2 Bft)
07.12.2024 21:08 21,9 °C 4,7 °C 55 % 93 % 1001,0 hPa 0,0 l/m² 2,6 km/h (1 Bft) SO 144 ° 0 min 0 W/m² 3,7 °C 4,7 °C 4,8 km/h (1 Bft)
07.12.2024 21:09 21,9 °C 4,7 °C 55 % 93 % 1001,0 hPa 0,0 l/m² 2,9 km/h (1 Bft) SO 144 ° 0 min 0 W/m² 3,7 °C 4,7 °C 4,8 km/h (1 Bft)
07.12.2024 21:10 21,9 °C 4,7 °C 55 % 93 % 1000,9 hPa 0,0 l/m² 3,1 km/h (1 Bft) S-SO 157 ° 0 min 0 W/m² 3,7 °C 4,7 °C 4,8 km/h (1 Bft)
07.12.2024 21:11 21,9 °C 4,7 °C 55 % 93 % 1001,0 hPa 0,0 l/m² 0,5 km/h (0 Bft) SO 131 ° 0 min 0 W/m² 3,7 °C 4,7 °C 1,6 km/h (1 Bft)
07.12.2024 21:12 21,9 °C 4,7 °C 55 % 93 % 1001,0 hPa 0,0 l/m² 0,1 km/h (0 Bft) SO 131 ° 0 min 0 W/m² 3,7 °C 4,7 °C 1,6 km/h (1 Bft)
07.12.2024 21:13 22,0 °C 4,7 °C 55 % 93 % 1000,9 hPa 0,0 l/m² 1,8 km/h (1 Bft) SO 130 ° 0 min 0 W/m² 3,7 °C 4,7 °C 3,2 km/h (1 Bft)
07.12.2024 21:14 22,0 °C 4,7 °C 55 % 93 % 1000,9 hPa 0,0 l/m² 0,6 km/h (0 Bft) SO 130 ° 0 min 0 W/m² 3,7 °C 4,7 °C 3,2 km/h (1 Bft)
07.12.2024 21:15 21,9 °C 4,7 °C 55 % 93 % 1000,9 hPa 0,0 l/m² 0,7 km/h (0 Bft) SO 129 ° 0 min 0 W/m² 3,7 °C 4,7 °C 3,2 km/h (1 Bft)
07.12.2024 21:16 22,0 °C 4,7 °C 55 % 93 % 1000,8 hPa 0,0 l/m² 1,5 km/h (1 Bft) SO 129 ° 0 min 0 W/m² 3,7 °C 4,7 °C 3,2 km/h (1 Bft)
07.12.2024 21:17 22,0 °C 4,7 °C 55 % 93 % 1000,9 hPa 0,0 l/m² 5,0 km/h (1 Bft) SO 130 ° 0 min 0 W/m² 3,7 °C 4,7 °C 6,4 km/h (2 Bft)
07.12.2024 21:18 22,0 °C 4,7 °C 55 % 93 % 1000,8 hPa 0,0 l/m² 5,0 km/h (1 Bft) SO 128 ° 0 min 0 W/m² 3,7 °C 4,7 °C 6,4 km/h (2 Bft)
07.12.2024 21:19 22,0 °C 4,7 °C 55 % 93 % 1000,8 hPa 0,0 l/m² 5,1 km/h (1 Bft) SO 130 ° 0 min 0 W/m² 3,7 °C 4,7 °C 8,0 km/h (2 Bft)
07.12.2024 21:20 22,1 °C 4,7 °C 55 % 93 % 1000,9 hPa 0,0 l/m² 4,3 km/h (1 Bft) SO 124 ° 0 min 0 W/m² 3,7 °C 4,7 °C 6,4 km/h (2 Bft)
07.12.2024 21:22 22,0 °C 4,7 °C 55 % 93 % 1000,9 hPa 0,0 l/m² 2,2 km/h (1 Bft) SO 144 ° 0 min 0 W/m² 3,7 °C 4,7 °C 6,4 km/h (2 Bft)
07.12.2024 21:23 22,0 °C 4,7 °C 55 % 93 % 1000,9 hPa 0,0 l/m² 2,1 km/h (1 Bft) SO 144 ° 0 min 0 W/m² 3,7 °C 4,7 °C 3,2 km/h (1 Bft)
07.12.2024 21:24 22,0 °C 4,7 °C 55 % 93 % 1001,0 hPa 0,0 l/m² 2,2 km/h (1 Bft) SO 144 ° 0 min 0 W/m² 3,7 °C 4,7 °C 4,8 km/h (1 Bft)
07.12.2024 21:25 22,1 °C 4,7 °C 55 % 93 % 1001,0 hPa 0,0 l/m² 2,1 km/h (1 Bft) SO 144 ° 0 min 0 W/m² 3,7 °C 4,7 °C 3,2 km/h (1 Bft)
07.12.2024 21:26 22,1 °C 4,7 °C 55 % 93 % 1000,9 hPa 0,0 l/m² 3,3 km/h (1 Bft) SO 124 ° 0 min 0 W/m² 3,7 °C 4,7 °C 6,4 km/h (2 Bft)
07.12.2024 21:27 22,1 °C 4,7 °C 55 % 93 % 1000,9 hPa 0,0 l/m² 5,1 km/h (1 Bft) SO 124 ° 0 min 0 W/m² 3,7 °C 4,7 °C 6,4 km/h (2 Bft)
07.12.2024 21:28 22,1 °C 4,7 °C 55 % 93 % 1001,0 hPa 0,0 l/m² 4,2 km/h (1 Bft) SO 126 ° 0 min 0 W/m² 3,7 °C 4,7 °C 6,4 km/h (2 Bft)
07.12.2024 21:29 22,1 °C 4,7 °C 55 % 93 % 1000,9 hPa 0,0 l/m² 3,6 km/h (1 Bft) SO 124 ° 0 min 0 W/m² 3,7 °C 4,7 °C 6,4 km/h (2 Bft)
07.12.2024 21:30 22,1 °C 4,7 °C 55 % 93 % 1000,9 hPa 0,0 l/m² 2,8 km/h (1 Bft) SO 137 ° 0 min 0 W/m² 3,7 °C 4,7 °C 4,8 km/h (1 Bft)
07.12.2024 21:31 22,1 °C 4,7 °C 55 % 93 % 1000,9 hPa 0,0 l/m² 4,5 km/h (1 Bft) SO 136 ° 0 min 0 W/m² 3,7 °C 4,7 °C 8,0 km/h (2 Bft)
07.12.2024 21:32 22,1 °C 4,7 °C 55 % 93 % 1000,9 hPa 0,0 l/m² 4,3 km/h (1 Bft) S-SO 155 ° 0 min 0 W/m² 3,7 °C 4,7 °C 6,4 km/h (2 Bft)
07.12.2024 21:33 22,1 °C 4,7 °C 55 % 93 % 1000,9 hPa 0,0 l/m² 5,3 km/h (1 Bft) S-SO 152 ° 0 min 0 W/m² 3,7 °C 4,7 °C 8,0 km/h (2 Bft)
07.12.2024 21:34 22,1 °C 4,7 °C 55 % 93 % 1000,9 hPa 0,0 l/m² 6,3 km/h (2 Bft) S 171 ° 0 min 0 W/m² 3,7 °C 4,7 °C 11,3 km/h (2 Bft)
07.12.2024 21:35 22,1 °C 4,7 °C 55 % 93 % 1000,9 hPa 0,0 l/m² 7,6 km/h (2 Bft) S 171 ° 0 min 0 W/m² 3,7 °C 3,6 °C 9,7 km/h (2 Bft)
07.12.2024 21:36 22,1 °C 4,7 °C 55 % 93 % 1000,8 hPa 0,0 l/m² 7,5 km/h (2 Bft) S-SO 166 ° 0 min 0 W/m² 3,7 °C 3,7 °C 9,7 km/h (2 Bft)
07.12.2024 21:37 22,1 °C 4,7 °C 55 % 93 % 1000,8 hPa 0,0 l/m² 7,1 km/h (2 Bft) S-SO 163 ° 0 min 0 W/m² 3,7 °C 4,1 °C 9,7 km/h (2 Bft)
07.12.2024 21:38 22,2 °C 4,7 °C 55 % 93 % 1000,8 hPa 0,0 l/m² 7,6 km/h (2 Bft) S 173 ° 0 min 0 W/m² 3,7 °C 3,6 °C 9,7 km/h (2 Bft)
07.12.2024 21:39 22,1 °C 4,7 °C 55 % 93 % 1000,8 hPa 0,0 l/m² 7,7 km/h (2 Bft) S 173 ° 0 min 0 W/m² 3,7 °C 3,5 °C 12,9 km/h (3 Bft)
07.12.2024 21:40 22,1 °C 4,7 °C 55 % 93 % 1000,8 hPa 0,0 l/m² 10,1 km/h (2 Bft) S 177 ° 0 min 0 W/m² 3,7 °C 1,7 °C 12,9 km/h (3 Bft)
07.12.2024 21:41 22,1 °C 4,7 °C 55 % 93 % 1000,8 hPa 0,0 l/m² 7,2 km/h (2 Bft) S 178 ° 0 min 0 W/m² 3,7 °C 4,0 °C 9,7 km/h (2 Bft)
07.12.2024 21:42 22,2 °C 4,7 °C 55 % 93 % 1000,8 hPa 0,0 l/m² 7,1 km/h (2 Bft) S 174 ° 0 min 0 W/m² 3,7 °C 4,1 °C 9,7 km/h (2 Bft)
07.12.2024 21:43 22,2 °C 4,7 °C 55 % 93 % 1000,8 hPa 0,0 l/m² 5,5 km/h (2 Bft) S 171 ° 0 min 0 W/m² 3,7 °C 4,7 °C 8,0 km/h (2 Bft)
07.12.2024 21:44 22,2 °C 4,7 °C 55 % 93 % 1000,9 hPa 0,0 l/m² 7,4 km/h (2 Bft) S 183 ° 0 min 0 W/m² 3,7 °C 3,8 °C 12,9 km/h (3 Bft)
07.12.2024 21:45 22,2 °C 4,7 °C 55 % 93 % 1000,8 hPa 0,0 l/m² 4,8 km/h (1 Bft) S 176 ° 0 min 0 W/m² 3,7 °C 4,7 °C 6,4 km/h (2 Bft)
07.12.2024 21:46 22,2 °C 4,7 °C 55 % 93 % 1000,8 hPa 0,0 l/m² 4,6 km/h (1 Bft) S 175 ° 0 min 0 W/m² 3,7 °C 4,7 °C 6,4 km/h (2 Bft)
07.12.2024 21:47 22,2 °C 4,7 °C 55 % 93 % 1000,8 hPa 0,0 l/m² 3,7 km/h (1 Bft) S 175 ° 0 min 0 W/m² 3,7 °C 4,7 °C 4,8 km/h (1 Bft)
07.12.2024 21:48 22,2 °C 4,7 °C 55 % 93 % 1000,8 hPa 0,0 l/m² 1,8 km/h (1 Bft) S 175 ° 0 min 0 W/m² 3,7 °C 4,7 °C 4,8 km/h (1 Bft)
07.12.2024 21:49 22,2 °C 4,7 °C 55 % 93 % 1000,9 hPa 0,0 l/m² 1,5 km/h (1 Bft) S 175 ° 0 min 0 W/m² 3,7 °C 4,7 °C 3,2 km/h (1 Bft)
07.12.2024 21:50 22,2 °C 4,7 °C 55 % 93 % 1000,9 hPa 0,0 l/m² 1,9 km/h (1 Bft) S 175 ° 0 min 0 W/m² 3,7 °C 4,7 °C 3,2 km/h (1 Bft)
07.12.2024 21:51 22,2 °C 4,7 °C 55 % 93 % 1000,9 hPa 0,0 l/m² 0,7 km/h (0 Bft) S 175 ° 0 min 0 W/m² 3,7 °C 4,7 °C 1,6 km/h (1 Bft)
07.12.2024 21:52 22,2 °C 4,7 °C 55 % 93 % 1001,0 hPa 0,0 l/m² 3,9 km/h (1 Bft) S 175 ° 0 min 0 W/m² 3,7 °C 4,7 °C 6,4 km/h (2 Bft)
07.12.2024 21:53 22,2 °C 4,7 °C 55 % 93 % 1001,0 hPa 0,0 l/m² 5,6 km/h (2 Bft) S 178 ° 0 min 0 W/m² 3,7 °C 4,7 °C 8,0 km/h (2 Bft)
07.12.2024 21:54 22,2 °C 4,7 °C 55 % 93 % 1000,9 hPa 0,0 l/m² 8,0 km/h (2 Bft) S 175 ° 0 min 0 W/m² 3,7 °C 3,3 °C 11,3 km/h (2 Bft)
07.12.2024 21:55 22,2 °C 4,7 °C 55 % 93 % 1000,9 hPa 0,0 l/m² 6,3 km/h (2 Bft) S 175 ° 0 min 0 W/m² 3,7 °C 4,7 °C 11,3 km/h (2 Bft)
07.12.2024 21:56 22,2 °C 4,7 °C 55 % 93 % 1001,0 hPa 0,0 l/m² 7,4 km/h (2 Bft) S 178 ° 0 min 0 W/m² 3,7 °C 3,8 °C 9,7 km/h (2 Bft)
07.12.2024 21:57 22,2 °C 4,7 °C 55 % 93 % 1001,0 hPa 0,0 l/m² 9,1 km/h (2 Bft) S-SO 161 ° 0 min 0 W/m² 3,7 °C 2,4 °C 11,3 km/h (2 Bft)
07.12.2024 21:58 22,2 °C 4,7 °C 55 % 93 % 1000,9 hPa 0,0 l/m² 9,4 km/h (2 Bft) S-SO 164 ° 0 min 0 W/m² 3,7 °C 2,2 °C 12,9 km/h (3 Bft)
07.12.2024 21:59 22,3 °C 4,8 °C 55 % 93 % 1000,9 hPa 0,0 l/m² 8,4 km/h (2 Bft) S 169 ° 0 min 0 W/m² 3,8 °C 3,1 °C 9,7 km/h (2 Bft)
07.12.2024 22:00 22,3 °C 4,8 °C 55 % 93 % 1001,0 hPa 0,0 l/m² 8,5 km/h (2 Bft) S-SO 150 ° 0 min 0 W/m² 3,8 °C 3,0 °C 12,9 km/h (3 Bft)
07.12.2024 22:01 22,2 °C 4,8 °C 55 % 93 % 1001,0 hPa 0,0 l/m² 7,4 km/h (2 Bft) S 178 ° 0 min 0 W/m² 3,8 °C 3,9 °C 11,3 km/h (2 Bft)
07.12.2024 22:02 22,3 °C 4,8 °C 55 % 93 % 1000,9 hPa 0,0 l/m² 7,0 km/h (2 Bft) S-SO 157 ° 0 min 0 W/m² 3,8 °C 4,3 °C 9,7 km/h (2 Bft)
07.12.2024 22:03 22,2 °C 4,8 °C 55 % 93 % 1001,0 hPa 0,0 l/m² 4,5 km/h (1 Bft) S-SO 157 ° 0 min 0 W/m² 3,8 °C 4,8 °C 9,7 km/h (2 Bft)
07.12.2024 22:04 22,3 °C 4,8 °C 55 % 93 % 1000,9 hPa 0,0 l/m² 8,0 km/h (2 Bft) S-SO 160 ° 0 min 0 W/m² 3,8 °C 3,4 °C 9,7 km/h (2 Bft)
07.12.2024 22:05 22,3 °C 4,8 °C 55 % 93 % 1001,0 hPa 0,0 l/m² 8,1 km/h (2 Bft) S 173 ° 0 min 0 W/m² 3,8 °C 3,3 °C 14,5 km/h (3 Bft)
07.12.2024 22:06 22,3 °C 4,8 °C 55 % 93 % 1000,9 hPa 0,0 l/m² 4,4 km/h (1 Bft) S 186 ° 0 min 0 W/m² 3,8 °C 4,8 °C 8,0 km/h (2 Bft)
07.12.2024 22:07 22,3 °C 4,9 °C 55 % 93 % 1000,9 hPa 0,0 l/m² 2,3 km/h (1 Bft) S-SO 164 ° 0 min 0 W/m² 3,9 °C 4,9 °C 6,4 km/h (2 Bft)
07.12.2024 22:08 22,3 °C 4,9 °C 55 % 93 % 1000,9 hPa 0,0 l/m² 4,2 km/h (1 Bft) S-SO 162 ° 0 min 0 W/m² 3,9 °C 4,9 °C 8,0 km/h (2 Bft)
07.12.2024 22:09 22,3 °C 4,9 °C 55 % 93 % 1000,9 hPa 0,0 l/m² 2,2 km/h (1 Bft) S-SO 157 ° 0 min 0 W/m² 3,9 °C 4,9 °C 6,4 km/h (2 Bft)
07.12.2024 22:10 22,3 °C 4,9 °C 55 % 93 % 1000,8 hPa 0,0 l/m² 3,2 km/h (1 Bft) S-SO 152 ° 0 min 0 W/m² 3,9 °C 4,9 °C 6,4 km/h (2 Bft)
07.12.2024 22:11 22,3 °C 4,9 °C 55 % 92 % 1000,9 hPa 0,0 l/m² 1,2 km/h (1 Bft) S-SO 155 ° 0 min 0 W/m² 3,7 °C 4,9 °C 3,2 km/h (1 Bft)
07.12.2024 22:12 22,3 °C 4,9 °C 55 % 92 % 1000,9 hPa 0,0 l/m² 0,4 km/h (0 Bft) S-SO 157 ° 0 min 0 W/m² 3,7 °C 4,9 °C 1,6 km/h (1 Bft)
07.12.2024 22:13 22,3 °C 4,9 °C 55 % 92 % 1001,0 hPa 0,0 l/m² 1,3 km/h (1 Bft) S-SO 157 ° 0 min 0 W/m² 3,7 °C 4,9 °C 3,2 km/h (1 Bft)
07.12.2024 22:14 22,3 °C 4,9 °C 55 % 92 % 1000,9 hPa 0,0 l/m² 2,8 km/h (1 Bft) S-SO 167 ° 0 min 0 W/m² 3,7 °C 4,9 °C 6,4 km/h (2 Bft)
07.12.2024 22:15 22,3 °C 4,9 °C 55 % 92 % 1000,9 hPa 0,0 l/m² 3,1 km/h (1 Bft) S-SO 167 ° 0 min 0 W/m² 3,7 °C 4,9 °C 6,4 km/h (2 Bft)
07.12.2024 22:16 22,3 °C 4,9 °C 55 % 92 % 1001,0 hPa 0,0 l/m² 0,0 km/h (0 Bft) S-SO 167 ° 0 min 0 W/m² 3,7 °C 4,9 °C 0,0 km/h (0 Bft)
07.12.2024 22:17 22,3 °C 4,9 °C 55 % 93 % 1001,0 hPa 0,0 l/m² 0,7 km/h (0 Bft) S-SO 167 ° 0 min 0 W/m² 3,9 °C 4,9 °C 6,4 km/h (2 Bft)
07.12.2024 22:18 22,3 °C 4,9 °C 55 % 93 % 1001,0 hPa 0,0 l/m² 1,5 km/h (1 Bft) S-SO 167 ° 0 min 0 W/m² 3,9 °C 4,9 °C 4,8 km/h (1 Bft)
07.12.2024 22:19 22,3 °C 4,9 °C 55 % 93 % 1001,0 hPa 0,0 l/m² 0,2 km/h (0 Bft) S-SO 167 ° 0 min 0 W/m² 3,9 °C 4,9 °C 1,6 km/h (1 Bft)
07.12.2024 22:20 22,3 °C 4,9 °C 55 % 93 % 1001,0 hPa 0,0 l/m² 1,3 km/h (1 Bft) S-SO 167 ° 0 min 0 W/m² 3,9 °C 4,9 °C 4,8 km/h (1 Bft)
07.12.2024 22:21 22,3 °C 4,9 °C 55 % 93 % 1001,0 hPa 0,0 l/m² 0,4 km/h (0 Bft) S-SO 167 ° 0 min 0 W/m² 3,9 °C 4,9 °C 1,6 km/h (1 Bft)
07.12.2024 22:22 22,3 °C 4,9 °C 55 % 93 % 1001,0 hPa 0,0 l/m² 1,7 km/h (1 Bft) S-SO 167 ° 0 min 0 W/m² 3,9 °C 4,9 °C 4,8 km/h (1 Bft)
07.12.2024 22:23 22,3 °C 4,9 °C 55 % 93 % 1001,1 hPa 0,0 l/m² 2,3 km/h (1 Bft) S-SO 167 ° 0 min 0 W/m² 3,9 °C 4,9 °C 6,4 km/h (2 Bft)
07.12.2024 22:24 22,3 °C 4,9 °C 55 % 93 % 1001,0 hPa 0,0 l/m² 0,5 km/h (0 Bft) S-SO 167 ° 0 min 0 W/m² 3,9 °C 4,9 °C 1,6 km/h (1 Bft)
07.12.2024 22:25 22,3 °C 4,9 °C 55 % 93 % 1001,1 hPa 0,0 l/m² 0,3 km/h (0 Bft) S-SO 167 ° 0 min 0 W/m² 3,9 °C 4,9 °C 1,6 km/h (1 Bft)
07.12.2024 22:26 22,3 °C 4,9 °C 55 % 93 % 1001,1 hPa 0,0 l/m² 3,5 km/h (1 Bft) S-SO 167 ° 0 min 0 W/m² 3,9 °C 4,9 °C 6,4 km/h (2 Bft)
07.12.2024 22:27 22,3 °C 4,9 °C 55 % 92 % 1001,2 hPa 0,0 l/m² 1,4 km/h (1 Bft) S-SO 167 ° 0 min 0 W/m² 3,7 °C 4,9 °C 4,8 km/h (1 Bft)
07.12.2024 22:28 22,3 °C 4,9 °C 55 % 92 % 1001,2 hPa 0,0 l/m² 1,1 km/h (1 Bft) S-SO 167 ° 0 min 0 W/m² 3,7 °C 4,9 °C 4,8 km/h (1 Bft)
07.12.2024 22:29 22,3 °C 4,9 °C 55 % 92 % 1001,2 hPa 0,0 l/m² 0,9 km/h (0 Bft) S-SO 167 ° 0 min 0 W/m² 3,7 °C 4,9 °C 4,8 km/h (1 Bft)
07.12.2024 22:30 22,3 °C 4,9 °C 55 % 92 % 1001,2 hPa 0,0 l/m² 3,5 km/h (1 Bft) S-SO 167 ° 0 min 0 W/m² 3,7 °C 4,9 °C 6,4 km/h (2 Bft)
07.12.2024 22:31 22,3 °C 4,9 °C 55 % 92 % 1001,2 hPa 0,0 l/m² 3,4 km/h (1 Bft) S-SO 167 ° 0 min 0 W/m² 3,7 °C 4,9 °C 4,8 km/h (1 Bft)
07.12.2024 22:32 22,3 °C 4,9 °C 55 % 92 % 1001,2 hPa 0,0 l/m² 5,0 km/h (1 Bft) S-SO 150 ° 0 min 0 W/m² 3,7 °C 4,9 °C 8,0 km/h (2 Bft)
07.12.2024 22:33 22,3 °C 4,9 °C 55 % 92 % 1001,2 hPa 0,0 l/m² 4,4 km/h (1 Bft) S-SO 155 ° 0 min 0 W/m² 3,7 °C 4,9 °C 6,4 km/h (2 Bft)
07.12.2024 22:34 22,3 °C 4,9 °C 55 % 92 % 1001,2 hPa 0,0 l/m² 7,6 km/h (2 Bft) S-SO 160 ° 0 min 0 W/m² 3,7 °C 3,8 °C 9,7 km/h (2 Bft)
07.12.2024 22:35 22,3 °C 4,9 °C 55 % 92 % 1001,2 hPa 0,0 l/m² 4,1 km/h (1 Bft) S-SO 160 ° 0 min 0 W/m² 3,7 °C 4,9 °C 6,4 km/h (2 Bft)
07.12.2024 22:36 22,3 °C 4,9 °C 55 % 92 % 1001,2 hPa 0,0 l/m² 5,2 km/h (1 Bft) S-SO 161 ° 0 min 0 W/m² 3,7 °C 4,9 °C 8,0 km/h (2 Bft)
07.12.2024 22:37 22,3 °C 4,9 °C 55 % 92 % 1001,2 hPa 0,0 l/m² 7,0 km/h (2 Bft) S-SO 168 ° 0 min 0 W/m² 3,7 °C 4,4 °C 9,7 km/h (2 Bft)
07.12.2024 22:38 22,3 °C 4,9 °C 55 % 92 % 1001,2 hPa 0,0 l/m² 7,5 km/h (2 Bft) S-SO 167 ° 0 min 0 W/m² 3,7 °C 3,9 °C 9,7 km/h (2 Bft)
07.12.2024 22:39 22,3 °C 4,9 °C 55 % 92 % 1001,2 hPa 0,0 l/m² 7,0 km/h (2 Bft) S-SO 167 ° 0 min 0 W/m² 3,7 °C 4,4 °C 9,7 km/h (2 Bft)
07.12.2024 22:40 22,3 °C 4,9 °C 55 % 92 % 1001,2 hPa 0,0 l/m² 7,5 km/h (2 Bft) S-SO 167 ° 0 min 0 W/m² 3,7 °C 3,9 °C 9,7 km/h (2 Bft)
07.12.2024 22:41 22,3 °C 4,9 °C 55 % 92 % 1001,2 hPa 0,0 l/m² 7,0 km/h (2 Bft) S-SO 167 ° 0 min 0 W/m² 3,7 °C 4,4 °C 9,7 km/h (2 Bft)
07.12.2024 22:42 22,3 °C 4,9 °C 55 % 92 % 1001,2 hPa 0,0 l/m² 5,9 km/h (2 Bft) S-SO 167 ° 0 min 0 W/m² 3,7 °C 4,9 °C 6,4 km/h (2 Bft)
07.12.2024 22:43 22,3 °C 4,9 °C 55 % 92 % 1001,2 hPa 0,0 l/m² 4,2 km/h (1 Bft) S-SO 167 ° 0 min 0 W/m² 3,7 °C 4,9 °C 6,4 km/h (2 Bft)
07.12.2024 22:44 22,3 °C 4,9 °C 55 % 92 % 1001,3 hPa 0,0 l/m² 6,1 km/h (2 Bft) S-SO 167 ° 0 min 0 W/m² 3,7 °C 4,9 °C 8,0 km/h (2 Bft)
07.12.2024 22:45 22,3 °C 4,9 °C 55 % 92 % 1001,2 hPa 0,0 l/m² 3,5 km/h (1 Bft) S-SO 167 ° 0 min 0 W/m² 3,7 °C 4,9 °C 4,8 km/h (1 Bft)
07.12.2024 22:46 22,3 °C 4,9 °C 55 % 92 % 1001,3 hPa 0,0 l/m² 4,8 km/h (1 Bft) S-SO 167 ° 0 min 0 W/m² 3,7 °C 4,9 °C 6,4 km/h (2 Bft)
07.12.2024 22:47 22,2 °C 4,9 °C 55 % 92 % 1001,3 hPa 0,0 l/m² 2,5 km/h (1 Bft) S-SO 167 ° 0 min 0 W/m² 3,7 °C 4,9 °C 6,4 km/h (2 Bft)
07.12.2024 22:48 22,3 °C 4,9 °C 55 % 92 % 1001,2 hPa 0,0 l/m² 2,9 km/h (1 Bft) S-SO 167 ° 0 min 0 W/m² 3,7 °C 4,9 °C 4,8 km/h (1 Bft)
07.12.2024 22:49 22,3 °C 4,9 °C 55 % 92 % 1001,3 hPa 0,0 l/m² 2,1 km/h (1 Bft) S-SO 167 ° 0 min 0 W/m² 3,7 °C 4,9 °C 4,8 km/h (1 Bft)
07.12.2024 22:50 22,3 °C 4,9 °C 55 % 92 % 1001,3 hPa 0,0 l/m² 0,5 km/h (0 Bft) S-SO 167 ° 0 min 0 W/m² 3,7 °C 4,9 °C 1,6 km/h (1 Bft)
07.12.2024 22:51 22,3 °C 4,9 °C 55 % 92 % 1001,3 hPa 0,0 l/m² 0,0 km/h (0 Bft) S-SO 167 ° 0 min 0 W/m² 3,7 °C 4,9 °C 0,0 km/h (0 Bft)
07.12.2024 22:52 22,3 °C 4,8 °C 55 % 92 % 1001,3 hPa 0,0 l/m² 0,0 km/h (0 Bft) S-SO 167 ° 0 min 0 W/m² 3,6 °C 4,8 °C 0,0 km/h (0 Bft)
07.12.2024 22:53 22,2 °C 4,9 °C 55 % 92 % 1001,3 hPa 0,0 l/m² 0,1 km/h (0 Bft) S-SO 167 ° 0 min 0 W/m² 3,7 °C 4,9 °C 1,6 km/h (1 Bft)
07.12.2024 22:54 22,2 °C 4,9 °C 55 % 92 % 1001,3 hPa 0,0 l/m² 0,0 km/h (0 Bft) S-SO 167 ° 0 min 0 W/m² 3,7 °C 4,9 °C 0,0 km/h (0 Bft)
07.12.2024 22:55 22,3 °C 4,9 °C 55 % 92 % 1001,3 hPa 0,0 l/m² 0,4 km/h (0 Bft) S-SO 167 ° 0 min 0 W/m² 3,7 °C 4,9 °C 1,6 km/h (1 Bft)
07.12.2024 22:56 22,3 °C 4,9 °C 55 % 92 % 1001,3 hPa 0,0 l/m² 4,4 km/h (1 Bft) S-SO 167 ° 0 min 0 W/m² 3,7 °C 4,9 °C 4,8 km/h (1 Bft)
07.12.2024 22:57 22,2 °C 4,9 °C 55 % 92 % 1001,3 hPa 0,0 l/m² 5,3 km/h (1 Bft) S-SO 167 ° 0 min 0 W/m² 3,7 °C 4,9 °C 6,4 km/h (2 Bft)
07.12.2024 22:58 22,3 °C 4,8 °C 55 % 92 % 1001,4 hPa 0,0 l/m² 4,9 km/h (1 Bft) N-NW 342 ° 0 min 0 W/m² 3,6 °C 4,8 °C 6,4 km/h (2 Bft)
07.12.2024 22:59 22,3 °C 4,8 °C 55 % 92 % 1001,3 hPa 0,0 l/m² 4,4 km/h (1 Bft) N-NW 346 ° 0 min 0 W/m² 3,6 °C 4,8 °C 4,8 km/h (1 Bft)
07.12.2024 23:00 22,2 °C 4,8 °C 55 % 92 % 1001,4 hPa 0,0 l/m² 1,9 km/h (1 Bft) N-NW 346 ° 0 min 0 W/m² 3,6 °C 4,8 °C 4,8 km/h (1 Bft)
07.12.2024 23:01 22,2 °C 4,8 °C 55 % 92 % 1001,3 hPa 0,0 l/m² 1,6 km/h (1 Bft) N 360 ° 0 min 0 W/m² 3,6 °C 4,8 °C 4,8 km/h (1 Bft)
07.12.2024 23:02 22,2 °C 4,8 °C 55 % 92 % 1001,3 hPa 0,0 l/m² 0,8 km/h (0 Bft) N 360 ° 0 min 0 W/m² 3,6 °C 4,8 °C 3,2 km/h (1 Bft)
07.12.2024 23:03 22,3 °C 4,8 °C 55 % 92 % 1001,3 hPa 0,0 l/m² 0,3 km/h (0 Bft) N 5 ° 0 min 0 W/m² 3,6 °C 4,8 °C 1,6 km/h (1 Bft)
07.12.2024 23:04 22,3 °C 4,8 °C 55 % 92 % 1001,3 hPa 0,0 l/m² 0,5 km/h (0 Bft) N 5 ° 0 min 0 W/m² 3,6 °C 4,8 °C 3,2 km/h (1 Bft)
07.12.2024 23:05 22,3 °C 4,8 °C 56 % 92 % 1001,3 hPa 0,0 l/m² 0,0 km/h (0 Bft) N 5 ° 0 min 0 W/m² 3,6 °C 4,8 °C 0,0 km/h (0 Bft)
07.12.2024 23:06 22,2 °C 4,8 °C 55 % 92 % 1001,3 hPa 0,0 l/m² 0,0 km/h (0 Bft) N 5 ° 0 min 0 W/m² 3,6 °C 4,8 °C 0,0 km/h (0 Bft)
07.12.2024 23:07 22,3 °C 4,8 °C 56 % 92 % 1001,4 hPa 0,0 l/m² 0,0 km/h (0 Bft) N 5 ° 0 min 0 W/m² 3,6 °C 4,8 °C 0,0 km/h (0 Bft)
07.12.2024 23:08 22,3 °C 4,8 °C 55 % 92 % 1001,4 hPa 0,0 l/m² 0,0 km/h (0 Bft) N 5 ° 0 min 0 W/m² 3,6 °C 4,8 °C 0,0 km/h (0 Bft)
07.12.2024 23:09 22,2 °C 4,8 °C 55 % 92 % 1001,4 hPa 0,0 l/m² 0,0 km/h (0 Bft) N 5 ° 0 min 0 W/m² 3,6 °C 4,8 °C 0,0 km/h (0 Bft)
07.12.2024 23:10 22,2 °C 4,8 °C 55 % 92 % 1001,3 hPa 0,0 l/m² 0,0 km/h (0 Bft) N 5 ° 0 min 0 W/m² 3,6 °C 4,8 °C 0,0 km/h (0 Bft)
07.12.2024 23:11 22,2 °C 4,8 °C 55 % 92 % 1001,4 hPa 0,0 l/m² 0,0 km/h (0 Bft) N 5 ° 0 min 0 W/m² 3,6 °C 4,8 °C 0,0 km/h (0 Bft)
07.12.2024 23:12 22,2 °C 4,8 °C 55 % 92 % 1001,4 hPa 0,0 l/m² 0,0 km/h (0 Bft) N 5 ° 0 min 0 W/m² 3,6 °C 4,8 °C 0,0 km/h (0 Bft)
07.12.2024 23:13 22,2 °C 4,8 °C 55 % 92 % 1001,4 hPa 0,0 l/m² 0,0 km/h (0 Bft) N 5 ° 0 min 0 W/m² 3,6 °C 4,8 °C 0,0 km/h (0 Bft)
07.12.2024 23:14 22,2 °C 4,8 °C 55 % 92 % 1001,5 hPa 0,0 l/m² 0,0 km/h (0 Bft) N 5 ° 0 min 0 W/m² 3,6 °C 4,8 °C 0,0 km/h (0 Bft)
07.12.2024 23:15 22,2 °C 4,8 °C 55 % 92 % 1001,4 hPa 0,0 l/m² 0,0 km/h (0 Bft) N 5 ° 0 min 0 W/m² 3,6 °C 4,8 °C 0,0 km/h (0 Bft)
07.12.2024 23:16 22,2 °C 4,8 °C 55 % 92 % 1001,6 hPa 0,0 l/m² 0,0 km/h (0 Bft) N 0 ° 0 min 0 W/m² 3,6 °C 4,8 °C 0,0 km/h (0 Bft)
07.12.2024 23:17 22,2 °C 4,7 °C 55 % 92 % 1001,4 hPa 0,0 l/m² 0,0 km/h (0 Bft) N 0 ° 0 min 0 W/m² 3,5 °C 4,7 °C 0,0 km/h (0 Bft)
07.12.2024 23:18 22,2 °C 4,7 °C 55 % 92 % 1001,4 hPa 0,0 l/m² 1,6 km/h (1 Bft) N 360 ° 0 min 0 W/m² 3,5 °C 4,7 °C 3,2 km/h (1 Bft)
07.12.2024 23:19 22,2 °C 4,7 °C 55 % 92 % 1001,4 hPa 0,0 l/m² 3,2 km/h (1 Bft) N 360 ° 0 min 0 W/m² 3,5 °C 4,7 °C 4,8 km/h (1 Bft)
07.12.2024 23:20 22,2 °C 4,7 °C 56 % 92 % 1001,4 hPa 0,0 l/m² 3,2 km/h (1 Bft) N 360 ° 0 min 0 W/m² 3,5 °C 4,7 °C 4,8 km/h (1 Bft)
07.12.2024 23:26 22,1 °C 4,6 °C 55 % 92 % 1001,3 hPa 0,0 l/m² 0,0 km/h (0 Bft) SO 143 ° 0 min 0 W/m² 3,4 °C 4,6 °C 0,0 km/h (0 Bft)
07.12.2024 23:28 22,1 °C 4,5 °C 55 % 92 % 1001,4 hPa 0,0 l/m² 0,0 km/h (0 Bft) SO 143 ° 0 min 0 W/m² 3,3 °C 4,5 °C 0,0 km/h (0 Bft)
07.12.2024 23:30 22,1 °C 4,4 °C 55 % 92 % 1001,3 hPa 0,0 l/m² 0,0 km/h (0 Bft) SO 143 ° 0 min 0 W/m² 3,2 °C 4,4 °C 0,0 km/h (0 Bft)
07.12.2024 23:31 22,1 °C 4,4 °C 55 % 92 % 1001,3 hPa 0,0 l/m² 0,0 km/h (0 Bft) SO 143 ° 0 min 0 W/m² 3,2 °C 4,4 °C 0,0 km/h (0 Bft)
07.12.2024 23:32 22,1 °C 4,4 °C 55 % 92 % 1001,3 hPa 0,0 l/m² 0,0 km/h (0 Bft) SO 143 ° 0 min 0 W/m² 3,2 °C 4,4 °C 0,0 km/h (0 Bft)
07.12.2024 23:34 22,1 °C 4,4 °C 55 % 92 % 1001,3 hPa 0,0 l/m² 0,0 km/h (0 Bft) SO 143 ° 0 min 0 W/m² 3,2 °C 4,4 °C 0,0 km/h (0 Bft)
07.12.2024 23:35 22,1 °C 4,4 °C 55 % 92 % 1001,5 hPa 0,0 l/m² 0,0 km/h (0 Bft) SO 143 ° 0 min 0 W/m² 3,2 °C 4,4 °C 0,0 km/h (0 Bft)
07.12.2024 23:37 22,1 °C 4,4 °C 55 % 92 % 1001,3 hPa 0,0 l/m² 0,0 km/h (0 Bft) SO 143 ° 0 min 0 W/m² 3,2 °C 4,4 °C 0,0 km/h (0 Bft)
07.12.2024 23:39 22,0 °C 4,3 °C 55 % 92 % 1001,4 hPa 0,0 l/m² 0,0 km/h (0 Bft) SO 143 ° 0 min 0 W/m² 3,1 °C 4,3 °C 0,0 km/h (0 Bft)
07.12.2024 23:40 22,0 °C 4,3 °C 55 % 92 % 1001,4 hPa 0,0 l/m² 0,0 km/h (0 Bft) SO 143 ° 0 min 0 W/m² 3,1 °C 4,3 °C 0,0 km/h (0 Bft)
07.12.2024 23:41 22,0 °C 4,3 °C 55 % 92 % 1001,4 hPa 0,0 l/m² 0,0 km/h (0 Bft) SO 143 ° 0 min 0 W/m² 3,1 °C 4,3 °C 0,0 km/h (0 Bft)
07.12.2024 23:42 22,0 °C 4,3 °C 55 % 92 % 1001,4 hPa 0,0 l/m² 0,0 km/h (0 Bft) SO 143 ° 0 min 0 W/m² 3,1 °C 4,3 °C 0,0 km/h (0 Bft)
07.12.2024 23:44 22,0 °C 4,3 °C 55 % 92 % 1001,4 hPa 0,0 l/m² 0,0 km/h (0 Bft) SO 143 ° 0 min 0 W/m² 3,1 °C 4,3 °C 0,0 km/h (0 Bft)
07.12.2024 23:45 22,0 °C 4,3 °C 55 % 92 % 1001,4 hPa 0,0 l/m² 0,0 km/h (0 Bft) SO 143 ° 0 min 0 W/m² 3,1 °C 4,3 °C 0,0 km/h (0 Bft)
07.12.2024 23:47 22,0 °C 4,3 °C 55 % 92 % 1001,3 hPa 0,0 l/m² 0,0 km/h (0 Bft) SO 143 ° 0 min 0 W/m² 3,1 °C 4,3 °C 0,0 km/h (0 Bft)
07.12.2024 23:49 21,9 °C 4,3 °C 55 % 92 % 1001,4 hPa 0,0 l/m² 0,0 km/h (0 Bft) SO 143 ° 0 min 0 W/m² 3,1 °C 4,3 °C 0,0 km/h (0 Bft)
07.12.2024 23:50 21,9 °C 4,3 °C 55 % 92 % 1001,3 hPa 0,0 l/m² 0,0 km/h (0 Bft) SO 143 ° 0 min 0 W/m² 3,1 °C 4,3 °C 0,0 km/h (0 Bft)
07.12.2024 23:51 21,9 °C 4,3 °C 55 % 92 % 1001,5 hPa 0,0 l/m² 0,0 km/h (0 Bft) SO 143 ° 0 min 0 W/m² 3,1 °C 4,3 °C 0,0 km/h (0 Bft)
07.12.2024 23:52 21,9 °C 4,3 °C 55 % 92 % 1001,5 hPa 0,0 l/m² 0,0 km/h (0 Bft) SO 143 ° 0 min 0 W/m² 3,1 °C 4,3 °C 0,0 km/h (0 Bft)
07.12.2024 23:55 21,9 °C 4,3 °C 55 % 92 % 1001,5 hPa 0,0 l/m² 0,6 km/h (0 Bft) O 89 ° 0 min 0 W/m² 3,1 °C 4,3 °C 3,2 km/h (1 Bft)
07.12.2024 23:56 21,9 °C 4,3 °C 55 % 92 % 1001,4 hPa 0,0 l/m² 0,0 km/h (0 Bft) O 89 ° 0 min 0 W/m² 3,1 °C 4,3 °C 0,0 km/h (0 Bft)
07.12.2024 23:57 21,9 °C 4,3 °C 55 % 92 % 1001,5 hPa 0,0 l/m² 0,0 km/h (0 Bft) O 89 ° 0 min 0 W/m² 3,1 °C 4,3 °C 0,0 km/h (0 Bft)
07.12.2024 23:59 21,9 °C 4,3 °C 55 % 92 % 1001,5 hPa 0,0 l/m² 0,0 km/h (0 Bft) O 89 ° 0 min 0 W/m² 3,1 °C 4,3 °C 0,0 km/h (0 Bft)
_ Min-Zeit 19:05 07:52 12:00 13:11 19:17 - 23:59 - - - - 07:51 09:00 23:59
Minimum _ 21,4 °C 2,9 °C 47 % 84 % 1000,1 hPa - 0,0 km/h (0 Bft) - - - - 1,0 °C -4,0 °C 0,0 km/h (0 Bft)
_ Max-Zeit 23:08 00:13 23:20 22:26 00:54 18:52 02:47 - - 09:39 09:42 00:25 00:10 13:44
Maximum _ 22,3 °C 7,2 °C 56 % 93 % 1012,5 hPa 0,2 l/m² 22,1 km/h
W-SW (4 Bft)
- - 2 min 53 W/m² 5,7 °C 7,2 °C 29,0 km/h
SO (5 Bft)
Durchschnitt _ 21,7 °C 4,9 °C 53 % 89 % 1005,2 hPa #6,8 l/m² 9,3 km/h (2 Bft) SO - #5 min. 9 W/m² 3,3 °C 2,2 °C 13,2 km/h (3 Bft)
© 2009 Mathias Hoßbach